[[{"header":{"parameterUnit":"m.s-1","parameterCategory":1,"la1":30.6,"la2":29.2853,"lo1":-89.7004,"lo2":-87.6739,"dy":0.0162,"dx":0.0183,"nx":112,"ny":82,"refTime":"2024-05-17T12:00:00:Z","depth":0,"parameterNumber":2,"parameterNumberName":"U-component_of_WINDS"},"data":[0.0,0.0,0.0,0.0,0.0,0.0,0.0,0.0,0.0,0.0,0.0,0.0,0.0,0.0,0.0,0.0,0.0,0.0,0.0,0.0,0.0,0.0,0.0,0.0,0.0,0.0,0.0,0.0,0.0,0.0,0.0,0.0,0.0,0.0,0.0,0.0,0.0,0.0,0.0,0.0,0.0,0.0,0.0,0.0,0.0,0.0,0.0,0.0,0.0,0.0,0.0,0.0,0.0,0.0,0.0,0.0,0.0,0.0,0.0,0.0,0.0,0.0,0.0,0.0,0.0,0.0,0.0,0.0,0.0,0.0,0.0,0.0,0.0,0.0,0.0,0.0,0.0,0.0,0.0,0.0,0.0,0.0,0.0,0.0,0.0,0.0,0.0,0.0,0.0,0.0,-5.579,-5.7617,-5.925,-6.0192,-6.0192,-5.9452,-5.7949,-5.5469,0.0,0.0,0.0,0.0,0.0,0.0,0.0,0.0,0.0,0.0,0.0,0.0,0.0,0.0,0.0,0.0,0.0,0.0,0.0,0.0,0.0,0.0,0.0,0.0,0.0,0.0,0.0,0.0,0.0,0.0,0.0,0.0,0.0,0.0,0.0,0.0,0.0,0.0,0.0,0.0,0.0,0.0,0.0,0.0,0.0,0.0,0.0,0.0,0.0,0.0,0.0,0.0,0.0,0.0,0.0,0.0,0.0,0.0,0.0,0.0,0.0,0.0,0.0,0.0,0.0,0.0,0.0,0.0,0.0,0.0,0.0,0.0,0.0,0.0,0.0,0.0,0.0,0.0,0.0,0.0,0.0,0.0,0.0,0.0,0.0,0.0,0.0,0.0,0.0,0.0,0.0,0.0,0.0,0.0,0.0,0.0,0.0,0.0,0.0,0.0,0.0,0.0,0.0,0.0,-5.5127,-5.7539,-5.8694,-5.9304,-5.9308,-5.8567,-5.73,-5.5428,0.0,0.0,0.0,0.0,0.0,0.0,0.0,0.0,0.0,0.0,0.0,0.0,0.0,0.0,0.0,0.0,0.0,0.0,0.0,0.0,0.0,0.0,0.0,0.0,0.0,0.0,0.0,0.0,0.0,0.0,0.0,0.0,0.0,0.0,0.0,0.0,0.0,0.0,0.0,0.0,0.0,0.0,0.0,0.0,0.0,0.0,0.0,0.0,0.0,0.0,0.0,0.0,0.0,0.0,0.0,0.0,0.0,0.0,0.0,0.0,0.0,0.0,0.0,0.0,0.0,0.0,0.0,0.0,0.0,0.0,0.0,0.0,0.0,0.0,0.0,0.0,0.0,0.0,0.0,0.0,0.0,0.0,0.0,0.0,0.0,0.0,0.0,0.0,0.0,0.0,0.0,0.0,0.0,0.0,0.0,0.0,0.0,0.0,0.0,0.0,0.0,0.0,0.0,-5.4869,-5.6023,-5.7629,-5.8162,-5.8399,-5.8404,-5.7665,-5.6458,-5.4704,-5.3339,0.0,0.0,0.0,0.0,0.0,0.0,0.0,0.0,0.0,0.0,0.0,0.0,0.0,0.0,0.0,0.0,0.0,0.0,0.0,0.0,0.0,0.0,0.0,0.0,0.0,0.0,0.0,0.0,0.0,0.0,0.0,0.0,0.0,0.0,0.0,0.0,0.0,0.0,0.0,0.0,0.0,0.0,0.0,0.0,0.0,0.0,0.0,0.0,0.0,0.0,0.0,0.0,0.0,0.0,0.0,0.0,0.0,0.0,0.0,0.0,0.0,0.0,0.0,0.0,0.0,0.0,0.0,0.0,0.0,0.0,0.0,0.0,0.0,0.0,0.0,0.0,0.0,0.0,0.0,0.0,0.0,0.0,0.0,0.0,0.0,0.0,0.0,0.0,0.0,0.0,0.0,0.0,0.0,0.0,0.0,0.0,0.0,0.0,0.0,0.0,0.0,0.0,-5.5747,-5.6606,-5.7426,-5.7512,-5.7516,-5.7516,-5.6585,-5.5321,-5.3784,-5.187,0.0,0.0,0.0,0.0,0.0,0.0,0.0,0.0,0.0,0.0,0.0,0.0,0.0,0.0,0.0,0.0,0.0,0.0,0.0,0.0,0.0,0.0,0.0,0.0,0.0,0.0,0.0,0.0,0.0,0.0,0.0,0.0,0.0,0.0,0.0,0.0,0.0,0.0,0.0,0.0,0.0,0.0,0.0,0.0,0.0,0.0,0.0,0.0,0.0,0.0,0.0,0.0,0.0,0.0,0.0,0.0,0.0,0.0,0.0,0.0,0.0,0.0,0.0,0.0,0.0,0.0,0.0,0.0,0.0,0.0,0.0,0.0,0.0,0.0,0.0,0.0,0.0,0.0,0.0,0.0,0.0,0.0,0.0,0.0,0.0,0.0,0.0,0.0,0.0,0.0,0.0,0.0,0.0,0.0,0.0,0.0,0.0,0.0,0.0,0.0,0.0,0.0,-5.4849,-5.5728,-5.6586,-5.6684,-5.6684,-5.6684,-5.5144,-5.3782,-5.2853,-5.0453,0.0,0.0,0.0,0.0,0.0,0.0,0.0,0.0,0.0,0.0,0.0,0.0,0.0,0.0,0.0,0.0,0.0,0.0,0.0,0.0,0.0,0.0,0.0,0.0,0.0,0.0,0.0,0.0,0.0,0.0,0.0,0.0,0.0,0.0,0.0,0.0,0.0,0.0,0.0,0.0,0.0,0.0,0.0,0.0,0.0,0.0,0.0,0.0,0.0,0.0,0.0,0.0,0.0,0.0,0.0,0.0,0.0,0.0,0.0,0.0,0.0,0.0,0.0,0.0,0.0,0.0,0.0,0.0,0.0,0.0,0.0,0.0,0.0,0.0,0.0,0.0,0.0,0.0,0.0,0.0,0.0,0.0,0.0,0.0,0.0,0.0,0.0,0.0,0.0,0.0,0.0,0.0,0.0,0.0,0.0,0.0,0.0,0.0,0.0,0.0,0.0,0.0,-5.3951,-5.5025,-5.645,-5.6606,-5.6372,-5.5845,-5.5181,-5.3975,-5.2013,0.0,0.0,0.0,0.0,0.0,0.0,0.0,0.0,0.0,0.0,0.0,0.0,0.0,0.0,0.0,0.0,0.0,0.0,0.0,0.0,0.0,0.0,0.0,0.0,0.0,0.0,0.0,0.0,0.0,0.0,0.0,0.0,0.0,0.0,0.0,0.0,0.0,0.0,0.0,0.0,0.0,0.0,0.0,0.0,0.0,0.0,0.0,0.0,0.0,0.0,0.0,0.0,0.0,0.0,0.0,0.0,0.0,0.0,0.0,0.0,0.0,0.0,0.0,0.0,0.0,0.0,0.0,0.0,0.0,0.0,0.0,0.0,0.0,0.0,0.0,0.0,0.0,0.0,0.0,0.0,0.0,0.0,0.0,0.0,0.0,0.0,0.0,0.0,0.0,0.0,0.0,0.0,0.0,0.0,0.0,0.0,0.0,0.0,0.0,0.0,0.0,0.0,-5.1941,-5.3288,-5.4459,-5.565,-5.602,-5.5825,-5.4966,-5.4381,-5.3057,-5.0722,0.0,0.0,0.0,0.0,0.0,0.0,0.0,0.0,0.0,0.0,0.0,0.0,0.0,0.0,0.0,0.0,0.0,0.0,0.0,0.0,0.0,0.0,0.0,0.0,0.0,0.0,0.0,0.0,0.0,0.0,0.0,0.0,0.0,0.0,0.0,0.0,0.0,0.0,0.0,0.0,0.0,0.0,0.0,0.0,0.0,0.0,0.0,0.0,0.0,0.0,0.0,0.0,0.0,0.0,0.0,0.0,0.0,0.0,0.0,0.0,0.0,0.0,0.0,0.0,0.0,0.0,0.0,0.0,0.0,0.0,0.0,0.0,0.0,0.0,0.0,0.0,0.0,0.0,0.0,0.0,0.0,0.0,0.0,0.0,0.0,0.0,0.0,0.0,0.0,0.0,0.0,0.0,0.0,0.0,0.0,0.0,0.0,0.0,0.0,0.0,0.0,0.0,-5.1061,-5.2895,-5.3988,-5.3988,-5.4771,-5.4927,-5.4066,-5.2409,-5.0653,0.0,0.0,0.0,0.0,0.0,0.0,0.0,0.0,0.0,0.0,0.0,0.0,0.0,0.0,0.0,0.0,0.0,0.0,0.0,0.0,0.0,0.0,0.0,0.0,0.0,0.0,0.0,0.0,0.0,0.0,0.0,0.0,0.0,0.0,0.0,0.0,0.0,0.0,0.0,0.0,0.0,0.0,0.0,0.0,0.0,0.0,0.0,0.0,0.0,0.0,0.0,0.0,0.0,0.0,0.0,0.0,0.0,0.0,0.0,0.0,0.0,0.0,0.0,0.0,0.0,0.0,0.0,0.0,0.0,0.0,0.0,0.0,0.0,0.0,0.0,0.0,0.0,0.0,0.0,0.0,0.0,0.0,0.0,0.0,0.0,0.0,0.0,0.0,0.0,0.0,0.0,0.0,0.0,0.0,0.0,0.0,0.0,0.0,0.0,0.0,0.0,0.0,0.0,-5.0027,-5.1834,-5.3132,-5.3653,-5.4122,-5.3996,-5.302,-5.2567,-5.1063,-4.8135,0.0,0.0,0.0,0.0,0.0,0.0,0.0,0.0,0.0,0.0,0.0,0.0,0.0,0.0,0.0,0.0,0.0,0.0,0.0,0.0,0.0,0.0,0.0,0.0,0.0,0.0,0.0,0.0,0.0,0.0,0.0,0.0,0.0,0.0,0.0,0.0,0.0,0.0,0.0,0.0,0.0,0.0,0.0,0.0,0.0,0.0,0.0,0.0,0.0,0.0,0.0,0.0,0.0,0.0,0.0,0.0,0.0,0.0,0.0,0.0,0.0,0.0,0.0,0.0,0.0,0.0,0.0,0.0,0.0,0.0,0.0,0.0,0.0,0.0,0.0,0.0,0.0,0.0,0.0,0.0,0.0,0.0,0.0,0.0,0.0,0.0,0.0,0.0,0.0,0.0,0.0,0.0,0.0,0.0,0.0,0.0,0.0,0.0,0.0,0.0,0.0,0.0,-4.8572,-5.0904,-5.2456,-5.256,-5.302,-5.2945,-5.1974,-5.1982,-5.0566,-4.7135,0.0,0.0,0.0,0.0,0.0,0.0,0.0,0.0,0.0,0.0,0.0,0.0,0.0,0.0,0.0,0.0,0.0,0.0,0.0,0.0,0.0,0.0,0.0,0.0,0.0,0.0,0.0,0.0,0.0,0.0,0.0,0.0,0.0,0.0,0.0,0.0,0.0,0.0,0.0,0.0,0.0,0.0,0.0,0.0,0.0,0.0,0.0,0.0,0.0,0.0,0.0,0.0,0.0,0.0,0.0,0.0,0.0,0.0,0.0,0.0,0.0,0.0,0.0,0.0,0.0,0.0,0.0,0.0,0.0,0.0,0.0,0.0,0.0,0.0,0.0,0.0,0.0,0.0,0.0,0.0,0.0,0.0,0.0,0.0,0.0,0.0,0.0,0.0,0.0,0.0,0.0,0.0,0.0,0.0,0.0,0.0,0.0,0.0,0.0,0.0,0.0,0.0,-4.7148,-5.013,-5.1845,-5.1043,-5.1695,-5.1863,-5.1068,-5.0996,-4.959,-4.623,0.0,0.0,0.0,0.0,0.0,0.0,0.0,0.0,0.0,0.0,0.0,0.0,0.0,0.0,0.0,0.0,0.0,0.0,0.0,0.0,0.0,0.0,0.0,0.0,0.0,0.0,0.0,0.0,0.0,0.0,0.0,0.0,0.0,0.0,0.0,0.0,0.0,0.0,0.0,0.0,0.0,0.0,0.0,0.0,0.0,0.0,0.0,0.0,0.0,0.0,0.0,0.0,0.0,0.0,0.0,0.0,0.0,0.0,0.0,0.0,-5.0712,0.0,0.0,0.0,0.0,0.0,0.0,0.0,0.0,0.0,0.0,0.0,0.0,0.0,0.0,0.0,0.0,0.0,0.0,0.0,0.0,0.0,0.0,0.0,0.0,0.0,0.0,0.0,0.0,0.0,0.0,0.0,0.0,0.0,0.0,0.0,0.0,0.0,0.0,0.0,0.0,0.0,-4.763,-4.9771,-5.1013,-5.073,-5.1032,-5.1179,-5.0935,-5.0966,-4.9837,-4.7093,-4.6304,0.0,0.0,0.0,0.0,0.0,0.0,0.0,0.0,0.0,0.0,0.0,0.0,0.0,0.0,0.0,0.0,0.0,0.0,0.0,0.0,0.0,0.0,0.0,0.0,0.0,0.0,0.0,0.0,0.0,0.0,0.0,0.0,0.0,0.0,0.0,0.0,0.0,0.0,0.0,0.0,0.0,0.0,0.0,0.0,0.0,0.0,0.0,0.0,0.0,0.0,0.0,0.0,0.0,0.0,0.0,0.0,0.0,0.0,0.0,0.0,-5.0663,0.0,0.0,0.0,0.0,0.0,0.0,0.0,0.0,0.0,0.0,0.0,0.0,0.0,0.0,0.0,0.0,0.0,0.0,0.0,0.0,0.0,0.0,0.0,0.0,0.0,0.0,0.0,0.0,0.0,0.0,0.0,0.0,0.0,0.0,0.0,0.0,0.0,0.0,0.0,0.0,-4.6628,-4.9029,-5.0635,-5.0553,-5.0681,-5.0758,-5.07,-5.0741,-4.9671,-4.7113,-4.6201,0.0,0.0,0.0,0.0,0.0,0.0,0.0,0.0,0.0,0.0,0.0,0.0,0.0,0.0,0.0,0.0,0.0,0.0,0.0,0.0,0.0,0.0,0.0,0.0,0.0,0.0,0.0,0.0,0.0,0.0,0.0,0.0,0.0,0.0,0.0,0.0,0.0,0.0,0.0,0.0,0.0,0.0,0.0,0.0,0.0,0.0,0.0,0.0,0.0,0.0,0.0,0.0,0.0,-5.2817,-5.2981,-5.3589,-5.3048,-5.2839,-5.2828,-5.1502,-5.0984,-5.1086,-5.0952,0.0,0.0,0.0,0.0,0.0,0.0,0.0,0.0,0.0,0.0,0.0,0.0,0.0,0.0,0.0,0.0,0.0,0.0,0.0,0.0,0.0,0.0,0.0,0.0,-4.7839,-4.7895,0.0,0.0,0.0,0.0,0.0,0.0,0.0,0.0,0.0,0.0,0.0,0.0,-4.5793,-4.8419,-5.0317,-5.047,-5.05,-5.05,-5.05,-5.0347,-4.9311,-4.7068,-4.6077,-4.4556,0.0,0.0,0.0,0.0,0.0,0.0,0.0,0.0,0.0,0.0,0.0,0.0,0.0,0.0,0.0,0.0,0.0,0.0,0.0,0.0,0.0,0.0,0.0,0.0,0.0,0.0,0.0,0.0,0.0,0.0,0.0,0.0,-4.9702,-5.0418,0.0,0.0,0.0,0.0,0.0,0.0,0.0,0.0,0.0,0.0,0.0,0.0,0.0,-5.268,-5.191,-5.2661,-5.3095,-5.3208,-5.3141,-5.3157,-5.3251,-5.2356,-5.2191,-5.2545,-5.227,0.0,-5.2631,-5.1883,0.0,0.0,0.0,0.0,0.0,0.0,0.0,0.0,0.0,0.0,0.0,0.0,0.0,0.0,0.0,0.0,0.0,0.0,0.0,0.0,0.0,0.0,-5.0084,-4.9885,-4.9912,-4.9721,0.0,-4.692,-4.5132,-4.4212,-4.4039,0.0,0.0,0.0,0.0,0.0,0.0,0.0,-4.7369,-4.8567,-4.9581,-5.0317,-5.0468,-5.05,-5.05,-4.982,-4.8938,-4.7893,-4.633,-4.4959,-4.3942,-4.2377,0.0,0.0,0.0,0.0,0.0,0.0,0.0,0.0,0.0,0.0,0.0,0.0,0.0,0.0,0.0,0.0,0.0,0.0,0.0,0.0,0.0,0.0,0.0,0.0,0.0,0.0,0.0,0.0,0.0,-4.9738,-5.0398,-5.0765,-5.1206,-5.1151,0.0,0.0,0.0,0.0,0.0,0.0,0.0,0.0,0.0,-5.2605,-5.3441,-5.3702,-5.3311,-5.3683,-5.3869,-5.3869,-5.3607,-5.3472,-5.3471,-5.3288,-5.332,-5.3493,-5.3481,-5.3573,-5.3632,-5.2256,-5.1719,-5.1664,0.0,0.0,0.0,0.0,-4.9669,-4.9255,-4.9369,-4.8811,0.0,-4.7566,0.0,0.0,0.0,0.0,0.0,0.0,0.0,0.0,0.0,0.0,-5.0302,-5.0302,-5.0302,-5.0206,-4.9843,-4.8922,-4.7769,0.0,-4.5837,-4.5225,-4.4383,0.0,0.0,0.0,0.0,-4.5615,-4.6341,-4.7996,-4.9067,-4.8941,-4.9395,-4.9502,-4.9023,-4.8622,-4.8048,-4.7206,-4.6019,-4.4967,-4.4115,-4.2948,-4.2115,0.0,0.0,0.0,0.0,0.0,0.0,0.0,0.0,0.0,0.0,0.0,0.0,0.0,0.0,0.0,0.0,0.0,0.0,0.0,0.0,0.0,0.0,0.0,0.0,0.0,0.0,0.0,0.0,-5.06,-5.1187,-5.1389,-5.2307,-5.2435,0.0,0.0,0.0,0.0,0.0,0.0,-5.2564,-5.2601,-5.2986,-5.3794,-5.4399,-5.4711,-5.4711,-5.4491,-5.4399,-5.4381,-5.385,-5.3564,-5.3584,-5.3889,-5.4071,-5.4141,-5.4141,-5.4193,-5.4196,-5.2759,-5.2057,-5.1813,-5.1089,-5.0681,-5.05,-5.0489,-5.0057,-4.9605,-5.0227,-4.9849,-4.9043,-4.8711,-4.825,-4.7578,-4.5944,0.0,0.0,0.0,0.0,-4.9148,-4.9358,-4.9843,-5.0302,-5.0302,-5.0302,-5.0302,-5.0302,-5.0302,-4.9862,0.0,-4.7608,-4.6825,-4.5793,0.0,0.0,0.0,0.0,-4.5373,-4.5583,-4.7264,-4.8277,-4.7845,-4.8372,-4.8506,-4.7865,-4.7597,-4.7177,-4.6538,-4.5736,-4.501,-4.435,-4.3531,-4.2738,-4.1925,0.0,0.0,0.0,0.0,0.0,0.0,0.0,0.0,0.0,0.0,0.0,0.0,0.0,0.0,0.0,0.0,0.0,0.0,0.0,0.0,0.0,0.0,0.0,0.0,0.0,0.0,0.0,0.0,0.0,-5.2983,-5.4454,0.0,0.0,0.0,0.0,-5.205,-5.2656,-5.3445,-5.4234,-5.4271,-5.4638,-5.5445,-5.5522,-5.5559,-5.5559,-5.4785,-5.4399,-5.4399,-5.3613,-5.3227,-5.3227,-5.3248,-5.344,-5.3739,-5.3739,-5.3944,-5.4257,-5.3721,-5.3044,-5.2311,-5.183,-5.1165,-5.05,-5.0435,-5.0393,-5.0344,-5.0325,-4.9778,-4.9224,-4.995,-4.9117,-4.7933,-4.8632,-4.7734,0.0,0.0,-4.9033,-4.9282,-5.0034,-5.0264,-5.0302,-5.0302,-5.0302,-5.0302,-5.0302,-5.0302,-5.0054,0.0,-4.8995,-4.843,-4.6729,0.0,-4.6061,-4.5277,-4.525,-4.5583,-4.6347,-4.6557,-4.694,-4.7712,-4.7845,-4.7845,-4.7788,-4.7035,-4.6557,-4.65,-4.5736,-4.5288,-4.525,-4.4399,-4.3558,-4.2756,-4.1925,0.0,0.0,0.0,0.0,0.0,0.0,0.0,0.0,0.0,0.0,0.0,0.0,0.0,0.0,0.0,0.0,0.0,0.0,0.0,0.0,0.0,0.0,0.0,0.0,0.0,0.0,0.0,0.0,-5.394,-5.539,0.0,-5.4436,-5.4821,-5.4932,-5.4366,-5.4583,-5.5097,-5.5904,-5.5941,-5.6308,-5.7116,-5.7134,-5.7134,-5.7134,-5.5831,-5.517,-5.5152,-5.383,-5.3185,-5.3185,-5.3185,-5.3272,-5.338,-5.338,-5.3461,-5.3565,-5.3084,-5.255,-5.1903,-5.089,-5.0298,-5.0069,-5.0259,-5.0344,-5.0325,-5.0302,-5.0111,-4.992,-5.0206,-4.9557,-4.8697,-4.9003,-4.8659,-4.8296,-4.8938,-4.9461,-4.9939,-5.0225,-5.0302,-5.0302,-5.0302,-5.0302,-5.0302,-5.0302,-5.0302,-5.0225,-4.992,-4.9442,-4.8899,-4.8277,-4.7245,-4.6405,-4.6118,-4.5621,-4.5392,-4.5679,-4.6175,-4.6424,-4.6214,-4.6653,-4.6748,-4.6233,-4.5908,-4.5736,-4.5736,-4.5449,-4.5048,-4.4494,-4.4159,-4.3357,-4.1991,-4.1648,-4.0826,0.0,0.0,0.0,0.0,0.0,0.0,0.0,0.0,0.0,0.0,0.0,0.0,0.0,0.0,0.0,0.0,0.0,0.0,0.0,0.0,0.0,0.0,0.0,0.0,0.0,-5.31,-5.4491,-5.4766,-5.6235,-5.6785,-5.5684,-5.611,-5.629,-5.6033,-5.6253,-5.6638,-5.7189,-5.7207,-5.7446,-5.7978,-5.7997,-5.7997,-5.7997,-5.64,-5.5614,-5.5596,-5.3977,-5.3185,-5.3185,-5.3185,-5.3185,-5.3185,-5.3185,-5.3185,-5.3136,-5.228,-5.1751,-5.1368,-5.0433,-4.9892,-4.966,-4.987,-4.9968,-4.9981,-5.0088,-5.0212,-5.0302,-5.0302,-4.9939,-4.95,-4.95,-4.95,-4.95,-4.95,-4.9882,-5.0302,-5.0302,-5.0302,-5.0302,-5.0302,-5.0302,-5.0302,-5.0302,-5.0302,-5.0302,-5.0302,-4.9862,-4.9328,-4.8754,-4.7704,-4.6748,-4.6175,-4.564,-4.5307,-4.5307,-4.5774,-4.5889,-4.5364,-4.5774,-4.587,-4.5345,-4.5029,-4.4991,-4.5288,-4.4762,-4.4322,-4.4006,-4.3739,-4.2928,-4.1533,-4.1227,-4.0406,-3.9011,0.0,0.0,0.0,0.0,0.0,0.0,0.0,0.0,0.0,0.0,0.0,0.0,0.0,0.0,0.0,0.0,0.0,0.0,0.0,0.0,0.0,0.0,0.0,-5.2315,-5.358,-5.4726,-5.5537,-5.7042,-5.7391,-5.5835,-5.7079,-5.7685,-5.6914,-5.7556,-5.7997,-5.7997,-5.7997,-5.7997,-5.7997,-5.7997,-5.7997,-5.7997,-5.64,-5.5614,-5.5596,-5.3977,-5.3185,-5.3185,-5.3185,-5.3185,-5.3185,-5.3185,-5.3185,-5.3096,-5.1463,-5.0802,-5.0772,-5.06,-5.0034,-4.9302,-4.9302,-4.9299,-4.9363,-4.9674,-5.0012,-5.0278,-5.0278,-5.0278,-5.0278,-5.0278,-5.0278,-5.0278,-5.029,-5.029,-5.029,-5.0302,-5.0302,-5.0302,-5.0302,-5.0302,-5.0302,-5.0302,-5.0302,-5.0302,-5.0302,-5.0283,-4.9748,-4.8113,-4.7807,-4.7234,-4.5583,-4.5326,0.0,-4.5307,-4.5307,-4.5307,-4.5307,-4.5307,-4.5307,-4.5307,-4.4532,-4.4399,-4.5201,-4.373,-4.3157,-4.3892,-4.3176,-4.2354,-4.1476,-4.0711,-3.9881,-3.904,0.0,0.0,0.0,0.0,0.0,0.0,0.0,0.0,0.0,0.0,0.0,0.0,0.0,0.0,0.0,0.0,0.0,0.0,0.0,0.0,0.0,-4.9617,-5.1052,-5.2226,-5.4192,-5.5731,-5.6392,-5.7373,-5.7831,-5.7373,-5.774,-5.7905,-5.7685,-5.7868,-5.7997,-5.7997,-5.7997,-5.7997,-5.7997,-5.7997,-5.7997,-5.7997,-5.64,-5.5614,-5.5596,-5.3977,-5.3185,-5.3185,-5.3185,-5.3185,-5.3185,-5.3185,-5.3185,-5.3096,-5.1463,-5.0802,-5.0695,-4.9691,-4.9156,-4.8967,-4.9206,-4.9299,-4.9299,-4.9409,-4.9498,-4.957,-4.957,-4.957,-4.957,-4.957,-4.957,-4.9632,-4.987,-4.9942,-4.9993,-5.0236,-5.0302,-5.0302,-5.0302,-5.0302,-5.0302,-5.0302,-5.0302,-5.0302,-5.0302,-4.9824,-4.927,-4.8812,-4.822,-4.7425,-4.6328,-4.566,0.0,-4.5307,-4.5307,-4.5307,-4.5307,-4.5307,-4.5307,-4.5307,-4.5067,-4.4781,-4.4369,-4.3911,-4.3233,-4.2221,-4.1972,-4.1476,-4.0654,-4.0416,-4.0081,0.0,0.0,0.0,0.0,0.0,0.0,0.0,0.0,0.0,0.0,0.0,0.0,0.0,0.0,0.0,0.0,0.0,0.0,0.0,0.0,0.0,0.0,-5.0471,-5.1709,-5.2794,-5.4371,-5.5804,-5.6811,-5.7339,-5.7726,-5.7973,-5.7997,-5.7997,-5.7997,-5.7997,-5.7997,-5.7997,-5.7997,-5.7997,-5.7997,-5.7997,-5.7997,-5.7997,-5.64,-5.5614,-5.5596,-5.3977,-5.3185,-5.3185,-5.3185,-5.3185,-5.3185,-5.3185,-5.3185,-5.3096,-5.1463,-5.0802,0.0,0.0,0.0,0.0,0.0,-4.8965,-4.9097,-4.9097,-4.9174,-4.9299,-4.9299,-4.9299,-4.9299,-4.9299,-4.9299,-4.9329,-4.9541,-4.9584,-4.9674,-4.9993,-4.9981,-4.9929,-5.0051,-4.9981,-4.987,-4.987,-4.9733,-4.9581,-4.9581,-4.8945,0.0,-4.791,-4.7522,-4.6978,-4.6118,-4.5602,-4.5307,-4.5307,-4.5307,-4.5307,-4.5307,-4.5307,-4.5307,-4.5307,-4.4972,0.0,0.0,0.0,-4.2315,-4.09,-4.0712,0.0,0.0,0.0,0.0,0.0,0.0,0.0,0.0,-4.0591,-4.1095,0.0,0.0,0.0,0.0,0.0,0.0,0.0,0.0,0.0,0.0,0.0,0.0,0.0,0.0,0.0,0.0,-5.185,-5.2978,-5.3602,-5.4267,-5.5292,-5.6899,-5.7091,-5.7333,-5.7932,-5.807,-5.8143,-5.8143,-5.8217,-5.8235,-5.8143,0.0,0.0,0.0,0.0,-5.7997,-5.7997,-5.64,-5.5614,-5.5596,-5.3977,-5.3185,-5.3185,-5.3185,-5.3185,-5.3185,-5.3185,-5.3185,-5.3096,-5.1463,-5.0692,-5.038,-4.8893,-4.8306,-4.8306,-4.8306,-4.8495,-4.8746,-4.8746,0.0,0.0,-4.9193,-4.9193,-4.9193,-4.9193,-4.9193,-4.9209,-4.9221,-4.9237,-4.9333,-4.966,-4.9527,-4.936,-4.9674,-4.9512,-4.928,-4.9186,-4.8848,-4.8524,-4.8429,-4.7755,-4.6967,-4.6177,-4.629,-4.617,-4.5328,-4.5224,-4.5235,-4.5194,-4.5203,-4.5203,-4.5203,0.0,0.0,-4.5203,-4.4518,-4.4376,-4.5074,-4.2897,-4.1099,-4.0041,-3.9755,-3.9596,-3.9514,-3.9514,-3.9527,-3.9583,-4.0289,-4.0699,-4.086,-4.1089,-4.1806,0.0,0.0,0.0,0.0,0.0,0.0,0.0,0.0,0.0,0.0,0.0,0.0,0.0,0.0,0.0,-5.0958,-5.1822,-5.27,-5.3574,-5.3982,-5.4834,-5.6721,-5.7022,-5.7333,-5.7932,-5.8602,-5.8964,-5.8964,-5.9575,-5.9648,-5.9006,-5.8964,-5.8676,-5.8015,-5.7997,-5.7997,-5.7997,-5.64,-5.5614,-5.5596,0.0,0.0,-5.3185,-5.3185,-5.3185,-5.3185,-5.3185,-5.3185,-5.3096,-5.1463,-4.9994,-4.8746,-4.8434,-4.8306,-4.8306,-4.8306,-4.8344,-4.8402,-4.8402,-4.8439,-4.8477,-4.8477,-4.8477,-4.8477,-4.8477,-4.8477,0.0,-4.8815,-4.89,-4.8965,-4.9317,-4.9345,-4.9333,-4.9375,-4.9363,-4.913,-4.8472,-4.8269,-4.7997,-4.7353,-4.6582,-4.5979,-4.581,-4.6013,-4.5811,-4.4749,-4.4758,-4.4819,-4.4604,-4.4578,-4.4578,-4.4578,-4.4578,-4.4578,-4.4578,-4.4619,-4.4436,-4.3961,-4.2822,-4.1654,-4.0597,-4.0497,-4.0165,-3.9502,-3.9514,-3.9662,-3.9983,-4.0131,-4.0747,-4.1754,-4.174,-4.178,0.0,0.0,0.0,0.0,0.0,0.0,0.0,0.0,0.0,0.0,0.0,-4.8772,-4.9517,0.0,-5.1031,-5.2181,-5.2672,-5.306,-5.3517,-5.375,-5.4394,-5.5851,-5.6403,-5.6938,-5.7498,-5.8547,-5.9184,-5.9184,-5.996,-6.0052,-5.9239,-5.8822,-5.8419,-5.8015,-5.7611,-5.7593,-5.7997,-5.64,-5.5614,-5.5596,-5.3977,-5.3185,-5.3185,-5.3185,-5.3185,-5.3185,-5.3185,-5.3185,-5.3096,-5.1463,-4.9811,-4.8306,-4.8306,-4.8306,-4.8306,-4.8306,-4.8306,-4.8306,-4.8306,-4.8306,-4.8306,-4.8306,-4.8306,-4.8306,-4.8306,-4.8306,-4.8326,-4.8495,-4.855,-4.8623,-4.8949,-4.8934,-4.8737,-4.8511,-4.8617,-4.8463,-4.7254,-4.7124,-4.7012,-4.6206,-4.5402,-4.4842,-4.4842,-4.4955,-4.4904,-4.4472,-4.4506,-4.4546,-4.443,-4.4397,-4.4397,-4.4397,-4.4397,-4.4397,-4.4397,-4.4519,-4.4227,-4.3403,-4.2816,-4.1914,-4.0555,-4.0365,-3.9923,-3.912,-3.9022,-3.9297,-3.9899,-4.0276,-4.0972,-4.201,-4.238,-4.2493,0.0,0.0,0.0,0.0,0.0,0.0,0.0,-4.78,-4.8206,-4.8463,-4.9255,-5.0253,-5.1437,-5.1894,-5.247,-5.3737,-5.394,-5.394,-5.394,-5.3906,-5.4184,-5.4942,-5.5783,-5.6545,-5.7206,-5.8464,-5.9254,-5.9203,-5.996,-6.0052,-5.9239,-5.8437,-5.7997,-5.7997,-5.7226,-5.7189,-5.7997,-5.64,-5.5614,-5.5596,-5.3977,-5.3185,-5.3185,-5.3185,-5.3185,-5.3185,-5.3185,-5.3023,-5.2616,-5.1334,-4.9811,-4.8306,-4.8306,-4.8306,-4.8306,-4.8306,-4.8306,-4.8306,-4.8306,-4.8306,-4.8306,-4.8306,-4.8306,-4.8306,-4.8306,-4.8306,-4.8306,-4.8306,-4.8306,-4.8364,-4.8641,-4.8495,-4.8198,-4.7826,-4.8016,-4.7865,-4.625,-4.6116,-4.6008,-4.506,-4.4355,-4.391,-4.391,-4.391,-4.3986,-4.4202,-4.4289,-4.4303,-4.4227,-4.4231,-4.4231,-4.4231,-4.4231,-4.4227,-4.427,-4.4285,-4.3975,-4.3273,-4.2999,-4.2143,-4.0459,-4.0194,-3.9646,-3.8676,-3.8559,-3.8896,-3.9668,-4.0406,-4.1192,-4.1958,-4.2778,-4.316,-4.4615,-4.506,-4.5754,-4.6481,-4.6735,-4.731,0.0,-4.9289,-4.9255,-5.0543,-5.1995,-5.3061,-5.3213,-5.4329,-5.5225,-5.5446,-5.5463,-5.5463,-5.5463,-5.4991,-5.4703,-5.482,-5.5695,-5.6723,-5.7809,-5.8857,-5.9408,-5.9216,-5.996,-6.0052,-5.9239,-5.8437,-5.7997,-5.7997,-5.7226,-5.7189,-5.7997,-5.64,-5.5614,-5.5596,-5.3977,-5.3185,-5.3185,-5.3185,-5.3185,-5.3185,-5.3185,-5.2399,-5.1059,-5.0875,-4.9811,-4.8306,-4.8306,-4.8306,-4.8306,-4.8306,-4.8306,-4.8306,-4.8306,-4.8306,-4.8306,-4.8306,-4.8306,-4.8306,-4.8306,-4.8306,-4.8306,-4.8306,-4.8306,-4.8306,-4.8363,-4.8344,-4.8288,-4.8235,-4.8252,-4.7865,-4.625,-4.5938,-4.5515,-4.3989,-4.3621,-4.3548,-4.3548,-4.3548,-4.3565,-4.3599,-4.386,-4.3939,-4.3631,-4.3597,-4.3597,-4.3597,-4.3597,-4.3662,-4.3852,-4.3868,-4.3799,-4.3643,-4.361,-4.2728,-4.0819,-4.0761,-4.0081,-3.8562,-3.851,-3.888,-3.9621,-4.0357,-4.1052,-4.176,-4.2557,-4.3031,-4.4479,-4.5432,-4.6413,-4.6718,-4.7445,-4.8426,-4.9779,-5.0185,-5.0591,-5.164,-5.2739,-5.3636,-5.4059,-5.4634,-5.5209,-5.5614,-5.5681,-5.5564,-5.5124,-5.4838,-5.4703,-5.4703,-5.5157,-5.566,-5.6152,-5.8096,-5.9092,-5.8587,-5.9688,-6.0052,-5.9239,-5.8437,-5.7997,-5.7997,-5.7226,-5.7189,-5.7997,-5.64,-5.5614,-5.5596,-5.3977,-5.3185,-5.3185,-5.3185,-5.3185,-5.3167,-5.2711,-5.1848,-5.0765,-5.0288,-4.9389,-4.8306,-4.8306,-4.8306,-4.8306,-4.8306,-4.8306,-4.8306,-4.8306,-4.8306,-4.8306,-4.8306,-4.8306,-4.8306,-4.8306,-4.8306,-4.8306,-4.8306,-4.8306,-4.8306,-4.8306,-4.8306,-4.8196,-4.77,-4.759,-4.7149,-4.5553,-4.5204,-4.4856,-4.3718,-4.3515,-4.3515,-4.3515,-4.3515,-4.3515,-4.3515,-4.3615,-4.3666,-4.3532,-4.3515,-4.3515,-4.3515,-4.3515,-4.3513,-4.3565,-4.3565,-4.3512,-4.3426,-4.2968,-4.2148,-4.0862,-4.0385,-3.9615,-3.8465,-3.8401,-3.8771,-3.9539,-4.0253,-4.098,-4.1723,-4.252,-4.2957,-4.4445,-4.5698,-4.6786,-4.6786,-4.7902,-4.9187,-4.9915,-5.0507,-5.1116,-5.1843,-5.2807,-5.367,-5.4194,-5.4786,-5.5378,-5.5936,-5.619,-5.6122,-5.5581,-5.5158,-5.4905,-5.4905,-5.4856,-5.4751,-5.4543,-5.6992,-5.8385,-5.7815,-5.8793,-5.9153,-5.8561,-5.7776,-5.7428,-5.7666,-5.7097,-5.7189,-5.7997,-5.64,-5.5614,-5.5596,-5.3977,-5.3185,-5.3185,-5.3185,-5.3185,-5.317,-5.2344,-5.1536,-5.0747,-4.9941,-4.9077,-4.8306,-4.8306,-4.8306,-4.8306,-4.8306,-4.8306,-4.8306,-4.8306,-4.8306,-4.8306,-4.8306,-4.8306,-4.8306,-4.8306,-4.8306,-4.8306,-4.8306,-4.8306,-4.8306,-4.8306,-4.8306,-4.8159,-4.7571,-4.7259,-4.6709,-4.5333,-4.4874,-4.447,-4.3644,-4.3515,-4.3515,-4.3515,-4.3515,-4.3515,-4.3515,-4.3515,-4.3515,-4.3515,-4.348,-4.3463,-4.3463,-4.3445,-4.3393,-4.3323,-4.3323,-4.3251,-4.3123,-4.2359,-4.1559,-4.0758,-3.9991,-3.9188,-3.8387,-3.8322,-3.8598,-3.9162,-4.0056,-4.08,-4.1397,-4.2411,-4.2901,-4.4598,-4.5698,-4.6786,-4.6786,-4.7902,-4.9187,-4.9915,-5.0101,-5.0338,-5.1099,-5.2452,-5.3518,-5.3534,-5.5294,-5.6748,-5.6765,-5.7357,-5.7814,-5.778,-5.6579,-5.5683,-5.5683,-5.504,-5.4347,-5.3602,-5.5733,-5.7106,-5.6951,-5.6908,-5.6914,-5.6877,-5.6106,-5.6033,-5.6822,-5.6822,-5.7189,-5.7997,-5.64,-5.5614,-5.5596,-5.3977,-5.3185,-5.3185,-5.3185,-5.3185,-5.317,-5.2344,-5.1536,-5.0747,-4.9941,-4.9077,-4.8306,-4.8306,-4.8306,-4.8306,-4.8306,-4.8306,-4.8306,-4.8306,-4.8306,-4.8306,-4.8306,-4.8306,-4.8306,-4.8306,-4.8306,-4.8306,-4.8306,-4.8306,-4.8306,-4.8306,-4.8306,-4.8306,-4.8269,-4.7663,-4.6874,-4.6049,-4.5259,-4.447,-4.3644,-4.3515,-4.3515,-4.3515,-4.3515,-4.3515,-4.3515,-4.3515,-4.3515,-4.3515,-4.3446,-4.3412,-4.3412,-4.3305,-4.3178,-4.3123,-4.3104,-4.3049,-4.2919,-4.2158,-4.1361,-4.0546,-3.9873,-3.9125,-3.8325,-3.8307,-3.8325,-3.8343,-3.9784,-4.051,-4.0564,-4.2158,-4.2901,-4.4615,-4.5698,-4.6786,-4.6786,-4.7902,-4.9187,-4.9915,-5.0084,-5.0304,-5.1065,-5.1623,-5.23,-5.3315,-5.411,-5.5091,-5.6562,-5.7002,-5.7171,-5.7171,-5.6748,-5.6072,-5.5091,-5.4752,-5.4296,-5.3568,-5.5113,-5.6134,-5.6103,-5.659,-5.7091,-5.757,-5.7336,-5.7317,-5.7593,-5.7593,-5.7464,-5.7207,-5.6124,-5.5317,-5.4785,-5.372,-5.3185,-5.3185,-5.3185,-5.2913,-5.2362,-5.1555,-5.0747,-4.9939,-4.9077,-4.8563,-4.8306,-4.8306,-4.8306,-4.8306,-4.8306,-4.8306,-4.8306,-4.8306,-4.8306,-4.8306,-4.8306,-4.8306,-4.8306,-4.8306,-4.8306,-4.8306,-4.8306,-4.8306,-4.8306,-4.8306,-4.8306,-4.8306,-4.8306,-4.7278,-4.6232,-4.5957,-4.4837,-4.3809,-4.3551,-4.3463,-4.3429,-4.3429,-4.3358,-4.3286,-4.3286,-4.3394,-4.3429,-4.3429,-4.334,-4.3269,-4.3269,-4.3233,-4.316,-4.3104,-4.3104,-4.303,-4.2919,-4.1651,-4.0782,-4.051,-3.9313,-3.8514,-3.8242,-3.8224,-3.8224,-3.8242,-3.9278,-3.9767,-3.9804,-4.1379,-4.2103,-4.4615,-4.5698,-4.6786,-4.6786,-4.7902,-4.912,-4.9593,-4.9712,-4.983,-5.0321,-5.0625,-5.12,-5.2452,-5.3129,-5.4143,-5.6089,-5.663,-5.6884,-5.7154,-5.6748,-5.6072,-5.5108,-5.4532,-5.4008,-5.3551,-5.4357,-5.5018,-5.5297,-5.6036,-5.6674,-5.7151,-5.7441,-5.7574,-5.7574,-5.7574,-5.7317,-5.6822,-5.5721,-5.4766,-5.3959,-5.3463,-5.3185,-5.3185,-5.3185,-5.2766,-5.1958,-5.1151,-5.0343,-4.9537,-4.8655,-4.8306,-4.8306,-4.8306,-4.8306,-4.8306,-4.8306,-4.8306,-4.8306,-4.8306,-4.8306,-4.8306,-4.8306,-4.8306,-4.8306,-4.8306,-4.8306,-4.8306,-4.8306,-4.8306,-4.8306,-4.8306,-4.8306,-4.8233,-4.7938,-4.6837,-4.5792,-4.5517,-4.438,-4.341,-4.3445,-4.3394,-4.3323,-4.3323,-4.3251,-4.3214,-4.3214,-4.3251,-4.3305,-4.3323,-4.3233,-4.316,-4.316,-4.3123,-4.3087,-4.303,-4.303,-4.2867,-4.2484,-4.1506,-4.0673,-4.013,-3.9152,-3.8499,-3.8209,-3.8209,-3.8209,-3.8209,-3.9007,-3.9387,-3.9423,-4.0691,-4.1433,-4.4615,-4.5698,-4.6786,-4.6786,-4.7902,-4.9001,-4.9001,-4.9001,-4.9001,-4.9001,-4.956,-5.027,-5.1014,-5.2384,-5.389,-5.5412,-5.6275,-5.7019,-5.778,-5.6664,-5.575,-5.5681,-5.4448,-5.3551,-5.3501,-5.3501,-5.3766,-5.4482,-5.5236,-5.5682,-5.5775,-5.6434,-5.6795,-5.6804,-5.6804,-5.6767,-5.6693,-5.5115,-5.3959,-5.3185,-5.3185,-5.3185,-5.3185,-5.317,-5.2711,-5.1885,-5.1096,-5.027,-4.9482,-4.8636,-4.8306,-4.8306,-4.8306,-4.8306,-4.8306,-4.8306,-4.8306,-4.8306,-4.8306,-4.8306,-4.8306,-4.8306,-4.8306,-4.8306,-4.8306,-4.8306,-4.8306,-4.8306,-4.8306,-4.8306,-4.8306,-4.8306,-4.8104,-4.7278,-4.6433,-4.5608,-4.4856,-4.3907,-4.3233,-4.3376,-4.3269,-4.3178,-4.3196,-4.3178,-4.3178,-4.3178,-4.3142,-4.3123,-4.3196,-4.3142,-4.3086,-4.3086,-4.2975,-4.2901,-4.2901,-4.2846,-4.2502,-4.1741,-4.1632,-4.0944,-3.946,-3.9351,-3.8988,-3.8209,-3.8209,-3.8209,-3.8209,-3.897,-3.9333,-3.9351,-4.0111,-4.0836,-4.4615,-4.5698,-4.6786,-4.6786,-4.7902,-4.9001,-4.9001,-4.9001,-4.9001,-4.9001,-4.9154,-4.9509,-5.0236,-5.115,-5.2469,-5.4532,-5.5513,-5.6444,-5.7712,-5.7103,-5.6325,-5.5749,-5.4888,-5.4093,-5.3551,-5.3501,-5.3584,-5.3783,-5.4622,-5.5522,-5.6554,-5.6876,-5.6957,-5.6799,-5.6804,-5.6235,-5.5023,-5.4014,-5.3387,-5.3185,-5.3185,-5.3185,-5.3167,-5.2582,-5.1867,-5.1059,-5.0251,-4.9407,-4.8618,-4.8398,-4.8306,-4.8306,-4.8306,-4.8306,-4.8306,-4.8306,-4.8306,-4.8306,-4.8306,-4.8306,-4.8306,-4.8306,-4.8306,-4.8306,-4.8306,-4.8306,-4.8306,-4.8306,-4.8306,-4.8306,-4.8306,-4.8306,-4.8104,-4.7278,-4.6433,-4.559,-4.4784,-4.3871,-4.3214,-4.3251,-4.3196,-4.3086,-4.2994,-4.2994,-4.2994,-4.2994,-4.2957,-4.2994,-4.3105,-4.3012,-4.2938,-4.2938,-4.2919,-4.2901,-4.2901,-4.2357,-4.1922,-4.1705,-4.0619,-3.9804,-3.9405,-3.8808,-3.8408,-3.8209,-3.8209,-3.8209,-3.8209,-3.8408,-3.8517,-3.8518,-3.9315,-3.9786,-4.5579,-4.6397,-4.7293,-4.7293,-4.8156,-4.8917,-4.8595,-4.8528,-4.8528,-4.8528,-4.8528,-4.8849,-4.9898,-5.071,-5.1961,-5.4228,-5.5226,-5.6224,-5.7679,-5.6985,-5.6173,-5.5732,-5.4448,-5.3433,-5.301,-5.2689,-5.2621,-5.2959,-5.4109,-5.5196,-5.6232,-5.6765,-5.6921,-5.6708,-5.6432,-5.55,-5.3904,-5.3424,-5.3185,-5.3185,-5.3185,-5.3023,-5.2656,-5.2197,-5.1353,-5.0251,0.0,-4.9095,-4.8306,-4.8306,-4.8306,-4.8306,-4.8306,-4.8306,-4.8306,-4.8306,-4.8306,-4.8306,-4.8306,-4.8306,-4.8306,-4.8306,-4.8306,-4.8306,-4.8306,-4.8306,-4.8306,-4.8306,-4.8306,-4.8306,-4.8306,-4.8286,-4.8046,-4.7258,-4.6357,-4.5459,-4.4674,-4.3743,-4.3068,-4.3068,-4.305,-4.2994,-4.2901,-4.2901,-4.2901,-4.2901,-4.2901,-4.2938,-4.2994,-4.2938,-4.2901,-4.2901,-4.2901,-4.2755,-4.2393,-4.1958,-4.1397,-4.0745,-4.0184,-3.9586,-3.8915,-3.8788,-3.8571,-3.8209,-3.8209,-3.8209,-3.8209,-3.8209,-3.8209,-3.8209,-3.8662,-3.9061,-4.6786,-4.7344,-4.7889,-4.7889,-4.846,-4.8815,-4.8058,-4.7889,-4.7855,-4.7753,-4.7821,-4.8308,-4.956,-5.049,-5.1775,-5.394,-5.4921,-5.597,-5.7526,-5.6478,-5.5564,-5.5564,-5.3636,-5.2266,-5.2164,-5.1674,-5.1623,-5.2249,-5.3644,-5.4743,-5.5338,-5.6169,-5.6548,-5.631,-5.5658,-5.4601,-5.3203,-5.3185,-5.3185,-5.3185,-5.3185,-5.2784,-5.1995,-5.1885,-5.1004,-4.9592,-4.9482,0.0,-4.8306,-4.8306,-4.8306,-4.8306,-4.8306,-4.8306,-4.8306,-4.8306,-4.8306,-4.8306,-4.8306,-4.8306,-4.8306,-4.8306,-4.8306,-4.8306,-4.8306,-4.8306,-4.8306,-4.8306,-4.8306,-4.8287,-4.8287,-4.8228,-4.7986,-4.718,-4.6222,-4.5286,-4.4544,-4.3594,-4.2901,-4.2901,-4.2901,-4.2901,-4.2901,-4.2901,-4.2901,-4.2901,-4.2901,-4.2901,-4.2901,-4.2901,-4.2901,-4.2901,-4.2901,-4.2574,-4.1759,-4.1596,-4.0926,-3.9478,-3.9894,-3.9586,-3.8263,-3.8862,-3.8898,-3.8209,-3.8209,-3.8209,-3.8209,-3.8209,-3.8209,-3.8209,-3.8209,-3.8554,-4.6786,-4.7344,-4.7889,-4.7889,-4.846,-4.8815,-4.8058,-4.7889,-4.775,-4.7124,-4.7479,-4.7973,-4.824,-4.939,-5.0811,-5.2435,-5.3365,-5.4617,-5.6697,-5.5716,-5.4786,-5.4786,-5.3315,-5.2063,-5.1471,-5.1843,-5.2164,-5.2283,-5.316,-5.3994,-5.4713,-5.5016,-5.505,-5.4792,-5.4011,-5.3482,-5.3185,-5.3185,-5.3185,-5.3185,-5.3185,-5.2784,-5.1977,-5.1316,-5.049,-4.9555,-4.8838,0.0,-4.8306,-4.8306,-4.8306,-4.8306,-4.8306,-4.8306,-4.8306,-4.8306,-4.8306,-4.8306,-4.8306,-4.8306,-4.8306,-4.8306,-4.8306,-4.8306,-4.8306,-4.8306,-4.8306,-4.8306,-4.8306,-4.8287,-4.8228,-4.8207,-4.7966,-4.7046,-4.6165,-4.5286,-4.4487,-4.3575,-4.2901,-4.2901,-4.2901,-4.2901,-4.2901,-4.2901,-4.2901,-4.2901,-4.2901,-4.2901,-4.2901,-4.2901,-4.2901,-4.2901,-4.2901,-4.2574,-4.1759,-4.1089,-4.0329,-3.946,-3.8915,-3.848,-3.8209,-3.8336,-3.8354,-3.8209,-3.8209,-3.8209,-3.8209,-3.8209,-3.8209,-3.8209,-3.8209,-3.8281,-4.7936,-4.8206,-4.8477,-4.8477,-4.8748,-4.8714,-4.7581,-4.7344,-4.7225,-4.687,-4.7073,-4.7564,-4.8342,-4.9357,-5.0456,-5.1555,-5.2384,-5.3534,-5.5378,-5.4718,-5.416,-5.4549,-5.323,-5.2164,-5.1809,-5.1758,-5.1894,-5.2266,-5.2655,-5.3374,-5.4451,-5.4522,-5.4324,-5.384,-5.3401,-5.3185,-5.3185,-5.3185,-5.3185,-5.3185,-5.2784,-5.2142,-5.1353,-5.0527,-4.9719,-4.8893,-4.8489,0.0,-4.8306,-4.8306,-4.8306,-4.8306,-4.8306,-4.8306,-4.8306,-4.8306,-4.8306,-4.8287,-4.8267,-4.8267,-4.8287,-4.8267,-4.8286,-4.8306,-4.8306,-4.8306,-4.8306,-4.8306,-4.8267,-4.8228,-4.8207,-4.8126,-4.7935,-4.7474,-4.6357,-4.5062,-4.3847,-4.3229,-4.2901,-4.2901,-4.2901,-4.2901,-4.2901,-4.2901,-4.2901,-4.2901,-4.2901,-4.2901,-4.2901,-4.2901,-4.2901,-4.2901,-4.2901,-4.2574,-4.1759,-4.0963,-4.0202,-3.9441,-3.8627,-3.8209,-3.8209,-3.8209,-3.8209,-3.8209,-3.8209,-3.8209,-3.8209,-3.8209,-3.8209,-3.8209,-3.8209,-3.8209,-4.9001,-4.9001,-4.9001,-4.9001,-4.9001,-4.8612,-4.7141,-4.6786,-4.6752,-4.6599,-4.6684,-4.7192,-4.8528,-4.9373,-5.0101,-5.0845,-5.1589,-5.2604,-5.4143,-5.3873,-5.3721,-5.4296,-5.3145,-5.2249,-5.208,-5.1691,-5.1691,-5.2266,-5.2469,-5.2966,-5.3922,-5.402,-5.3738,-5.3051,-5.3119,-5.3164,-5.3185,-5.3185,-5.3185,-5.3185,-5.238,-5.1573,-5.0765,-4.9978,-4.9114,-4.8306,-4.8306,0.0,0.0,-4.8306,-4.8306,-4.8306,-4.8306,-4.8306,-4.8306,-4.8306,-4.8287,-4.8267,-4.8226,-4.8208,-4.8229,-4.8169,-4.8228,-4.8306,-4.8306,-4.8287,-4.8286,-4.8286,-4.8208,-4.8148,-4.8128,-4.8024,-4.7809,-4.7425,-4.6293,-4.4856,-4.3263,-4.2901,-4.2901,-4.2901,-4.2901,-4.2901,-4.2901,-4.2901,-4.2901,-4.2901,-4.2901,-4.2901,-4.2901,-4.2901,-4.2901,-4.2901,-4.2901,-4.2574,-4.1759,-4.0963,-4.0202,-3.9441,-3.8627,-3.8209,-3.8209,-3.8209,-3.8209,-3.8209,-3.8209,-3.8209,-3.8209,-3.8209,-3.8209,-3.8209,-3.8209,-3.8209,-4.9001,-4.9001,-4.9001,-4.9001,-4.9001,-4.8612,-4.7141,-4.6786,-4.6599,-4.594,-4.6329,-4.7039,-4.7868,-4.8612,-4.934,-5.0067,-5.0828,-5.186,-5.3382,-5.3551,-5.3534,-5.3602,-5.2841,-5.2046,-5.1386,-5.186,-5.2232,-5.23,-5.2976,-5.3135,-5.2524,-5.2954,-5.2892,-5.2233,-5.2739,-5.3082,-5.3185,-5.3185,-5.3185,-5.3185,-5.238,-5.1573,-5.0765,-4.9978,-4.9114,-4.8306,-4.8306,0.0,0.0,-4.8306,-4.8306,-4.8306,-4.8306,-4.8306,-4.8306,-4.8306,-4.8267,-4.8207,-4.8207,-4.813,-4.8032,-4.8012,-4.8151,-4.8306,-4.8306,-4.8267,-4.8207,-4.8207,-4.811,-4.801,-4.7925,-4.7902,-4.7497,-4.5929,-4.5417,-4.4856,-4.3263,-4.2901,-4.2901,-4.2901,-4.2901,-4.2901,-4.2901,-4.2901,-4.2901,-4.2901,-4.2901,-4.2901,-4.2901,-4.2901,-4.2901,-4.2901,-4.2901,-4.2574,-4.1759,-4.0963,-4.0202,-3.9441,-3.8627,-3.8209,-3.8209,-3.8209,-3.8209,-3.8209,-3.8209,-3.8209,-3.8209,-3.8209,-3.8209,-3.8209,-3.8209,-3.8209,-4.8883,-4.9001,-4.9001,-4.9001,-4.9001,-4.8612,-4.7141,-4.7141,-4.7259,-4.6515,-4.6955,-4.7699,-4.8443,-4.8798,-4.9103,-4.939,-4.9695,-5.0253,-5.1302,-5.1843,-5.2283,-5.2723,-5.2926,-5.2909,-5.2621,-5.2858,-5.2824,-5.2334,-5.2604,-5.2227,-5.1028,-5.2018,-5.2081,-5.0885,-5.1843,-5.2435,-5.2531,-5.2915,-5.2886,-5.2472,-5.1665,-5.0857,-5.005,-4.9187,-4.8636,-4.8306,-4.8306,0.0,0.0,-4.8306,-4.8306,-4.8306,-4.8306,-4.8286,-4.8228,-4.8228,-4.8169,-4.807,-4.8026,-4.8008,-4.7992,-4.7947,-4.801,-4.8131,-4.8131,-4.8092,-4.809,-4.809,-4.8008,-4.7925,-4.7902,-4.7477,-4.6744,-4.5562,-4.4928,-4.4258,-4.3155,-4.2901,-4.2901,-4.2901,-4.2901,-4.2901,-4.2901,-4.2901,-4.2901,-4.2901,-4.2901,-4.2901,-4.2901,-4.2901,-4.2901,-4.2901,-4.2901,-4.2755,-4.2448,-4.1669,-4.089,-4.0111,-3.9333,-3.8716,-3.8227,-3.8209,-3.8209,-3.8209,-3.8209,-3.8209,-3.8209,-3.8209,-3.8209,-3.8209,-3.8209,-3.8209,-4.8545,-4.8832,-4.9001,-4.9001,-4.9001,-4.8612,-4.7141,-4.7378,-4.7669,-4.6955,-4.7394,-4.8041,-4.8595,-4.8849,-4.8934,-4.8714,-4.9035,-4.9509,-5.0016,-5.0727,-5.1371,-5.1911,-5.2469,-5.2909,-5.3129,-5.3145,-5.2909,-5.2334,-5.2097,-5.142,-5.0152,-5.1087,-5.1136,-5.0039,-5.1268,-5.1778,-5.1491,-5.2253,-5.2209,-5.1326,-5.0741,-5.0141,-4.9574,-4.8691,-4.8306,-4.8306,-4.8306,0.0,0.0,-4.8306,-4.8306,-4.8287,-4.8286,-4.8228,-4.8187,-4.8168,-4.807,-4.7949,-4.7922,-4.7904,-4.7909,-4.7863,-4.7866,-4.7909,-4.7909,-4.7949,-4.797,-4.797,-4.7925,-4.784,-4.784,-4.7161,-4.6305,-4.549,-4.4693,-4.3878,-4.3082,-4.2901,-4.2901,-4.2901,-4.2901,-4.2901,-4.2901,-4.2901,-4.2901,-4.2901,-4.2901,-4.2901,-4.2901,-4.2901,-4.2901,-4.2901,-4.2901,-4.2901,-4.2901,-4.2158,-4.1361,-4.0546,-3.9804,-3.9025,-3.8227,-3.8209,-3.8209,-3.8209,-3.8209,-3.8209,-3.8209,-3.8209,-3.8209,-3.8209,-3.8209,-3.8209,-4.7906,-4.846,-4.9001,-4.9001,-4.9001,-4.8612,-4.7141,-4.7378,-4.7669,-4.6955,-4.7394,-4.7889,-4.7906,-4.8528,-4.8765,-4.8024,-4.9137,-5.0084,-5.0084,-5.0727,-5.1185,-5.1202,-5.1202,-5.1522,-5.2249,-5.2317,-5.2317,-5.23,-5.164,0.0,-5.0135,-5.0115,-5.0083,-4.9993,-5.1165,-5.1215,-5.0021,-5.1194,-5.114,-4.9834,-4.9679,-4.961,-4.9574,-4.8691,-4.8306,-4.8306,0.0,0.0,0.0,-4.8306,-4.8306,-4.8287,-4.8226,-4.8187,-4.8187,-4.805,-4.7968,-4.7881,-4.7881,-4.7801,-4.7699,-4.7699,-4.7699,-4.7699,-4.7699,-4.7798,-4.7902,-4.7902,-4.7801,-4.7717,-4.7717,-4.7102,-4.6305,-4.549,-4.4693,-4.3878,-4.3082,-4.2901,-4.2901,-4.2901,-4.2901,-4.2901,-4.2901,-4.2901,-4.2901,-4.2901,-4.2901,-4.2901,-4.2901,-4.2901,-4.2901,-4.2901,-4.2901,-4.2901,-4.2901,-4.2158,-4.1361,-4.0546,-3.9804,-3.9025,-3.8227,-3.8209,-3.8209,-3.8209,-3.8209,-3.8209,-3.8209,-3.8209,-3.8209,-3.8209,-3.8209,-3.8209,-4.7734,-4.8058,-4.8392,-4.8883,-4.8629,-4.8003,-4.7022,-4.7378,-4.7669,-4.6955,-4.7784,-4.8663,-4.8663,-4.8849,-4.8934,-4.8697,-4.9035,-4.9357,-4.9357,-4.9982,-5.0439,-5.0439,-5.1336,-5.186,-5.1589,-5.2012,-5.1877,-5.0862,-5.0574,-5.0135,-4.939,-4.9357,-4.9345,-4.9316,-4.96,-4.9596,-4.9255,-4.9522,-4.9387,-4.8848,-4.8894,-4.8824,-4.8631,-4.8396,-4.8306,-4.8306,0.0,0.0,0.0,-4.8267,-4.8209,-4.8092,-4.8168,-4.8126,-4.8004,-4.7945,-4.7863,-4.7759,-4.7759,-4.7738,-4.7717,-4.7717,-4.7717,-4.7717,-4.7717,-4.7738,-4.7759,-4.7759,-4.7738,-4.7717,-4.7717,-4.6703,-4.5617,-4.5363,-4.4258,-4.3227,-4.2955,-4.2901,-4.2901,-4.2901,-4.2901,-4.2901,-4.2901,-4.2901,-4.2901,-4.2901,-4.2901,-4.2901,-4.2901,-4.2901,-4.2901,-4.2901,-4.2901,-4.2901,-4.2901,-4.2665,-4.194,-4.0583,-4.0275,-3.9568,-3.8263,-3.8209,-3.8209,-3.8209,-3.8209,-3.8209,-3.8209,-3.8209,-3.8209,-3.8209,-3.8209,-3.8209,-4.7255,-4.7449,-4.7614,-4.8054,-4.7817,-4.7293,-4.6549,-4.6972,-4.7361,-4.6887,-4.775,-4.8595,-4.8595,-4.8815,-4.8917,-4.8646,-4.8832,-4.9001,-4.9001,-4.9407,-4.9678,-4.9678,-5.0744,-5.1285,-5.0828,-5.12,-5.1082,-5.0152,-4.983,-4.9475,-4.9018,-4.8748,-4.8595,-4.8595,-4.8728,-4.8419,-4.7705,-4.8067,-4.8019,-4.7615,-4.7927,-4.8122,-4.8207,-4.8228,-4.8286,-4.8287,0.0,0.0,0.0,-4.819,-4.8131,-4.807,-4.8068,-4.8024,-4.7881,-4.784,-4.7759,-4.7717,-4.7717,-4.7717,-4.7717,-4.7717,-4.7717,-4.7624,-4.7355,-4.7464,-4.7717,-4.7717,-4.7717,-4.7717,-4.7717,-4.6739,-4.5743,-4.5743,-4.4512,-4.3335,-4.3335,-4.3118,-4.2901,-4.2901,-4.2901,-4.2901,-4.2901,-4.2901,-4.2901,-4.2901,-4.2901,-4.2901,-4.2901,-4.2901,-4.2901,-4.2901,-4.2901,-4.2901,-4.2901,-4.2901,-4.2339,-4.1035,-4.0673,-3.9948,-3.8716,-3.8662,-3.8662,-3.8662,-3.8662,-3.8662,-3.8662,-3.8354,-3.8209,-3.8209,-3.8209,-3.8209,0.0,-4.6627,-4.6718,-4.6786,-4.6752,-4.6532,-4.5872,-4.6227,0.0,-4.6718,-4.731,-4.7804,-4.7804,-4.8392,-4.8629,-4.7922,-4.8443,-4.8934,-4.8934,-4.8968,-4.9001,-4.9001,-4.9644,-5.0067,-5.0016,-5.005,-5.0067,-5.0016,-4.939,-4.8984,-4.8934,-4.8291,-4.7838,-4.7736,-4.8305,-4.7649,-4.572,-4.6769,-4.6935,-4.6238,-4.6814,-4.7446,-4.8128,-4.8128,-4.8189,0.0,0.0,0.0,0.0,-4.8072,-4.807,-4.8166,-4.7963,-4.7881,-4.7861,-4.7738,-4.7717,-4.7717,-4.7717,-4.7717,-4.7717,-4.7717,-4.7663,-4.7482,-4.6739,-4.7029,-4.7627,-4.7627,-4.7627,-4.7645,-4.7699,-4.7102,-4.6486,-4.6432,-4.5236,-4.4077,-4.4023,-4.3425,-4.2901,-4.2901,-4.2901,-4.2901,-4.2901,-4.2901,-4.2901,-4.2901,-4.2901,-4.2901,-4.2901,-4.2901,-4.2901,-4.2901,-4.2901,-4.2901,-4.2901,-4.2901,-4.2556,-4.1741,-4.0999,-4.0239,-3.9514,-3.9478,-3.9478,-3.9478,-3.9423,-3.9387,-3.9352,-3.8538,-3.814,-3.8106,-3.8106,-3.8106,-4.6009,0.0,-4.6092,-4.665,-4.638,-4.5923,0.0,-4.5838,-4.5957,-4.5957,-4.6549,-4.7056,-4.7056,-4.7192,-4.7259,-4.709,-4.7682,-4.8173,-4.8173,-4.8646,-4.9001,-4.9001,-4.9644,-4.9864,-4.9306,-4.9763,-4.9864,-4.9306,-4.9103,-4.8765,-4.8176,-4.7973,-4.7365,-4.6261,-4.6355,-4.6186,-4.5703,-4.5431,-4.5367,-4.5537,-4.5783,-4.6395,-4.7349,-4.7421,-4.7653,0.0,0.0,0.0,-4.7986,-4.801,-4.7929,-4.7804,-4.7881,-4.784,-4.7738,-4.7717,-4.7717,-4.7717,-4.7717,-4.7717,-4.7717,-4.7717,-4.7283,-4.6757,-4.6558,-4.6631,-4.6794,-4.6794,-4.6794,-4.692,-4.7554,-4.7102,-4.6341,-4.5725,-4.482,-4.3914,-4.3318,-4.3027,-4.2901,-4.2901,-4.2901,-4.2901,-4.2901,-4.2901,-4.2901,-4.2901,-4.2901,-4.2901,-4.2901,-4.2901,-4.2901,-4.2901,-4.2901,-4.2901,-4.2901,-4.2901,-4.2556,-4.1741,-4.1524,-4.1053,-4.0257,-4.0256,-4.0256,-4.0256,-3.9695,-3.9211,-3.885,-3.8061,-3.7505,-3.7207,-3.7207,-3.7207,-4.5563,-4.5552,-4.5805,-4.6194,-4.6244,-4.6126,-4.5788,-4.5703,-4.5703,-4.5703,-4.6024,-4.6397,-4.6735,-4.6786,-4.6904,-4.7259,-4.7648,-4.8007,-4.8376,-4.8748,-4.9001,-4.9001,-4.9357,-4.9441,-4.9035,-4.9357,-4.9424,-4.9035,-4.8697,-4.8342,-4.7906,-4.7246,-4.6532,-4.5737,-4.5365,-4.5196,-4.5196,-4.4818,-4.4841,-4.5303,-4.5381,-4.6,-4.7107,-4.7138,-4.7464,0.0,0.0,0.0,-4.7927,-4.7907,-4.7845,-4.778,-4.7801,-4.7759,-4.7717,-4.7717,-4.7717,-4.7717,-4.7717,-4.7717,-4.7645,-4.7283,-4.6866,-4.6359,-4.5617,-4.5399,-4.5472,-4.5852,-4.5943,-4.6051,-4.6486,-4.6287,-4.5834,-4.5399,-4.4693,-4.3969,-4.3534,-4.3173,-4.2901,-4.2901,-4.2901,-4.2901,-4.2901,-4.2901,-4.2901,-4.2901,-4.2901,-4.2901,-4.2901,-4.2901,-4.2901,-4.2901,-4.2901,-4.2901,-4.2901,-4.2901,-4.2701,-4.2285,-4.1904,-4.1506,-4.1071,-4.1053,-4.0799,-4.0237,-3.962,-3.8822,-3.7866,-3.7441,-3.7113,-3.69,-3.69,-3.69,-4.5337,-4.5403,-4.5703,-4.5703,-4.6092,-4.6329,-4.5821,-4.5618,-4.5534,-4.5534,-4.5534,-4.572,-4.6346,-4.6549,-4.6836,-4.7449,-4.7736,-4.8173,-4.89,-4.9001,-4.9001,-4.9001,-4.9001,-4.9001,-4.9001,-4.9001,-4.8951,-4.8849,-4.8257,-4.7787,-4.7567,-4.6397,-4.5652,-4.5551,-4.4925,-4.4615,-4.4615,-4.4615,-4.4814,-4.5188,-4.5188,-4.5817,-4.6931,-4.6863,-4.7244,-4.7949,0.0,0.0,-4.7931,-4.7762,-4.7759,-4.7861,-4.7738,-4.7717,-4.7717,-4.7717,-4.7717,-4.7717,-4.7717,-4.7606,-4.7409,-4.6721,-4.6341,-4.5888,-4.4512,-4.4005,-4.4059,-4.4729,-4.511,-4.5291,-4.5291,-4.5399,-4.5417,-4.5182,-4.4603,-4.4059,-4.3932,-4.3371,-4.2901,-4.2901,-4.2901,-4.2901,-4.2901,-4.2901,-4.2901,-4.2901,-4.2901,-4.2901,-4.2901,-4.2901,-4.2901,-4.2901,-4.2901,-4.2901,-4.2901,-4.2901,-4.2901,-4.2901,-4.2266,-4.1868,-4.1868,-4.1812,-4.1299,-4.0273,-3.9673,-3.8631,-3.7151,-3.7046,-3.6884,-3.6701,-3.6701,-3.6701,-4.5749,-4.5654,-4.5703,-4.5703,-4.5314,-4.506,-4.5585,-4.5213,-4.4784,-4.4784,-4.4784,-4.4818,-4.4936,-4.5449,-4.5923,-4.6024,-4.7107,-4.8173,-4.89,-4.9001,-4.9001,-4.9001,-4.9001,-4.9001,-4.9001,-4.9001,-4.8748,-4.8108,-4.7939,-4.7331,-4.6109,-4.5821,-4.5415,-4.4801,-4.4666,-4.4615,-4.4615,-4.4615,-4.4626,-4.472,-4.472,-4.5249,-4.6238,-4.5775,-4.6365,-4.772,0.0,-4.7323,-4.7741,-4.7699,-4.7717,-4.7738,-4.7717,-4.7717,-4.7717,-4.7717,-4.7717,-4.7717,-4.7717,-4.7265,-4.6667,-4.654,-4.558,-4.4421,-4.4168,-4.3607,-4.3118,-4.3226,-4.424,-4.5291,-4.5291,-4.5816,-4.5979,-4.4603,-4.4186,-4.3896,-4.3226,-4.2992,-4.2901,-4.2901,-4.2901,-4.2901,-4.2901,-4.2901,-4.2901,-4.2901,-4.2901,-4.2901,-4.2901,-4.2901,-4.2901,-4.2901,-4.2901,-4.2901,-4.2901,-4.2901,-4.2901,-4.2901,-4.2774,-4.2719,-4.2719,-4.2318,-4.2045,-4.1841,-4.0729,-3.953,-3.8352,-3.7651,-3.6797,-3.5805,-3.5805,-3.5805,-4.5825,-4.54,-4.5196,-4.5602,-4.5737,-4.5754,-4.572,-4.5432,-4.5077,-4.4682,-4.4615,-4.4615,-4.4615,-4.5196,-4.5974,-4.6769,-4.78,-4.8612,-4.8951,-4.9001,-4.9001,-4.9001,-4.9001,-4.8849,-4.846,-4.8426,-4.8105,-4.7361,-4.6955,-4.643,-4.5737,-4.5314,-4.4942,-4.4615,-4.4615,-4.4615,-4.4615,-4.4615,-4.4615,-4.4615,-4.4615,-4.4971,-4.5648,-4.5407,-4.6024,-4.7258,0.0,-4.7196,-4.7717,-4.7717,-4.7717,-4.7717,-4.7717,-4.7717,-4.7717,-4.7717,-4.7717,-4.7645,-4.721,-4.6812,-4.6359,-4.549,-4.4693,-4.4023,-4.357,-4.3191,-4.2901,-4.2901,-4.3425,-4.3987,-4.3987,-4.4277,-4.4367,-4.3625,-4.3444,-4.3335,-4.2992,-4.2901,-4.2901,-4.2901,-4.2692,-4.2518,-4.2518,-4.2518,-4.2438,-4.218,-4.236,-4.2438,-4.218,-4.2139,-4.2139,-4.2139,-4.2139,-4.2139,-4.2139,-4.2139,-4.236,-4.2863,-4.2653,-4.2518,-4.2518,-4.1825,-4.1262,-4.0858,-3.9638,-3.8557,-3.7638,-3.6824,-3.6145,-3.56,-3.56,-3.56,-4.6007,-4.5337,-4.4884,-4.5326,-4.5872,-4.6227,-4.6007,-4.5821,-4.5551,-4.4959,-4.4869,-4.4818,-4.4632,-4.5331,-4.6447,-4.7936,-4.8646,-4.9001,-4.9001,-4.9001,-4.8951,-4.8765,-4.8748,-4.846,-4.7733,-4.7618,-4.7344,-4.6599,-4.6024,-4.5618,-4.5449,-4.4891,-4.4615,-4.4615,-4.4615,-4.4615,-4.4615,-4.4615,-4.4615,-4.4615,-4.4615,-4.4852,-4.5303,-4.5188,-4.5767,-4.6886,-4.6771,-4.7084,-4.7717,-4.7717,-4.7717,-4.7717,-4.7717,-4.7717,-4.7717,-4.7717,-4.7591,-4.7337,-4.6721,-4.625,-4.5725,-4.4494,-4.3969,-4.3697,-4.31,-4.2901,-4.2901,-4.2901,-4.2901,-4.2901,-4.2901,-4.3046,-4.3099,-4.2804,-4.2749,-4.2711,-4.2596,-4.2577,-4.2577,-4.2577,-4.2279,-4.2053,-4.2053,-4.2053,-4.1909,-4.1547,-4.1803,-4.1909,-4.1547,-4.1503,-4.1503,-4.1503,-4.1503,-4.1503,-4.1503,-4.1503,-4.1807,-4.2537,-4.2239,-4.2053,-4.2053,-4.123,-4.0526,-3.9974,-3.8932,-3.8041,-3.732,-3.6518,-3.6039,-3.5893,-3.5684,-3.56,-4.6501,-4.5815,-4.5169,-4.4788,-4.4733,-4.5106,-4.6413,-4.6194,-4.5686,-4.5635,-4.5618,-4.5415,-4.4733,-4.5754,-4.7192,-4.868,-4.8968,-4.9001,-4.9001,-4.9001,-4.8748,-4.8041,-4.7973,-4.7699,-4.6955,-4.687,-4.6566,-4.5838,-4.5737,-4.5399,-4.4733,-4.4632,-4.4615,-4.4615,-4.4615,-4.4615,-4.4615,-4.4615,-4.4615,-4.4615,-4.4615,-4.4852,-4.5276,-4.4852,-4.5468,-4.6863,-4.6382,-4.673,-4.7717,-4.7717,-4.7717,-4.7717,-4.7717,-4.7717,-4.7717,-4.7717,-4.7228,-4.6576,-4.6522,-4.5526,-4.424,-4.4132,-4.3588,-4.2992,-4.2919,-4.2901,-4.2901,-4.2901,-4.2901,-4.2901,-4.2901,-4.3444,-4.3709,-4.2519,-4.2239,-4.2136,-4.17,-4.1591,-4.1591,-4.1591,-4.1569,-4.1547,-4.1547,-4.1547,-4.1547,-4.1503,-4.1525,-4.1547,-4.1503,-4.1503,-4.1503,-4.1503,-4.1503,-4.1503,-4.1503,-4.1503,-4.1525,-4.1591,-4.1569,-4.1547,-4.1547,-4.1065,-4.0784,-4.0716,-4.0192,-3.9588,-3.8836,-3.8108,-3.7381,-3.6711,-3.596,-3.56,-4.6548,-4.5865,-4.5188,-4.472,-4.4615,-4.475,-4.5309,-4.5224,-4.501,-4.501,-4.501,-4.506,-4.5246,-4.5737,-4.6447,-4.7462,-4.7631,-4.7631,-4.7631,-4.7631,-4.753,-4.7242,-4.7225,-4.6938,-4.6194,-4.6126,-4.5805,-4.506,-4.501,-4.4874,-4.4615,-4.4615,-4.4615,-4.4615,-4.4615,-4.4615,-4.4615,-4.4615,-4.4615,-4.4615,-4.4615,-4.4692,-4.4852,-4.4665,-4.5079,-4.59,-4.6049,-4.6525,-4.7236,-4.7554,-4.7717,-4.7717,-4.7717,-4.7717,-4.7645,-4.7156,-4.6757,-4.6359,-4.5345,-4.4603,-4.4023,-4.3516,-4.3155,-4.2901,-4.2901,-4.2901,-4.2901,-4.2901,-4.2901,-4.2901,-4.2901,-4.2907,-4.2795,-4.231,-4.199,-4.1717,-4.1547,-4.1503,-4.1503,-4.1503,-4.1276,-4.1047,-4.1047,-4.1047,-4.0972,-4.0666,-4.0879,-4.0972,-4.0683,-4.0635,-4.0635,-4.0635,-4.0635,-4.0635,-4.0635,-4.0635,-4.0635,-4.0635,-4.0902,-4.1047,-4.1047,-4.0611,-4.0377,-4.0377,-3.9738,-3.9039,-3.8311,-3.7567,-3.6806,-3.6045,-3.5735,-3.56,-4.6594,-4.5989,-4.5399,-4.4776,-4.4615,-4.4615,-4.4615,-4.4784,-4.4942,-4.4942,-4.4767,-4.4835,-4.5568,-4.5703,-4.594,-4.6667,-4.6786,-4.6786,-4.6786,-4.6786,-4.6701,-4.6481,-4.6447,-4.616,-4.5415,-4.5348,-4.5128,-4.4649,-4.4615,-4.4615,-4.4615,-4.4615,-4.4615,-4.4615,-4.4615,-4.4615,-4.4615,-4.4615,-4.4615,-4.4615,-4.4615,-4.4615,-4.4615,-4.4615,-4.4852,-4.5329,-4.5868,-4.6406,-4.6931,-4.749,-4.7717,-4.7717,-4.7717,-4.7717,-4.7609,-4.6812,-4.6341,-4.5924,-4.4566,-4.3914,-4.3625,-4.3082,-4.2901,-4.2901,-4.2901,-4.2901,-4.2863,-4.2711,-4.2673,-4.2653,-4.2498,-4.232,-4.2136,-4.1825,-4.1521,-4.1253,-4.1094,-4.1047,-4.1047,-4.1047,-4.0784,-4.058,-4.058,-4.058,-4.0458,-4.0146,-4.0377,-4.0458,-4.0146,-4.0096,-4.0096,-4.0096,-4.0096,-4.0096,-4.0096,-4.0096,-4.0096,-4.0096,-4.0402,-4.058,-4.058,-4.0254,-4.0096,-4.0096,-3.9605,-3.9089,-3.8582,-3.7618,-3.6857,-3.6309,-3.5819,-3.56,-4.6687,-4.6257,-4.5868,-4.4869,-4.4598,-4.4615,-4.4615,-4.5162,-4.5703,-4.5703,-4.5094,-4.4835,-4.5551,-4.5703,-4.5923,-4.665,-4.6769,-4.6769,-4.6769,-4.6769,-4.6498,-4.5788,-4.5703,-4.5399,-4.4682,-4.4615,-4.4615,-4.4615,-4.4615,-4.4615,-4.4615,-4.4615,-4.4615,-4.4615,-4.4615,-4.4615,-4.4615,-4.4615,-4.4615,-4.4615,-4.4615,-4.4615,-4.4615,-4.4615,-4.4852,-4.5329,-4.5868,-4.6406,-4.6931,-4.749,-4.7717,-4.7717,-4.7678,-4.7678,-4.7591,-4.6794,-4.5979,-4.5164,-4.4367,-4.357,-4.2901,-4.2901,-4.2901,-4.2901,-4.2901,-4.29,-4.2806,-4.2338,-4.2216,-4.2095,-4.163,-4.1846,-4.1952,-4.1019,-4.0802,-4.0676,-4.0196,-4.0096,-4.0096,-4.0096,-4.0096,-4.0096,-4.0096,-4.0096,-4.0096,-4.0096,-4.0096,-4.0096,-4.0096,-4.0096,-4.0096,-4.0096,-4.0096,-4.0096,-4.0096,-4.0096,-4.0096,-4.0096,-4.0096,-4.0096,-4.0096,-4.0096,-4.0096,-4.0096,-4.0096,-4.0096,-4.0079,-3.8616,-3.7905,-3.7855,-3.6309,-3.56,-4.7006,-4.6399,-4.5694,-4.5208,-4.5098,-4.5008,-4.4682,-4.4784,-4.4925,-4.4925,-4.4767,-4.4682,-4.4902,-4.4925,-4.4993,-4.5224,-4.5258,-4.5258,-4.5258,-4.5258,-4.5173,-4.4942,-4.4925,-4.4852,-4.4632,-4.4615,-4.4615,-4.4615,-4.4615,-4.4615,-4.4615,-4.4615,-4.4615,-4.4615,-4.4615,-4.4615,-4.4615,-4.4615,-4.4615,-4.4615,-4.4615,-4.4615,-4.4615,-4.4615,-4.4682,-4.4852,-4.5716,-4.6189,-4.6406,-4.7323,-4.7717,-4.7624,-4.7083,-4.6866,-4.6703,-4.5327,-4.4657,-4.4331,-4.3553,-4.31,-4.2901,-4.2901,-4.2901,-4.2901,-4.2901,-4.2673,-4.2378,-4.2257,-4.1952,-4.1609,-4.1116,-4.1111,-4.1157,-4.0873,-4.0556,-4.0254,-4.0121,-4.0096,-4.0096,-4.0096,-4.0096,-4.0096,-4.0096,-4.0096,-4.0096,-4.0096,-4.0096,-4.0096,-4.0096,-4.0096,-4.0096,-4.0096,-4.0096,-4.0096,-4.0096,-4.0096,-4.0096,-4.0096,-4.0096,-3.9876,-3.9368,-3.9825,-3.9859,-3.9351,-3.9842,-3.9605,-3.8548,-3.8125,-3.7347,-3.6259,-3.5802,-3.56,-4.7237,-4.6739,-4.6166,-4.5703,-4.5459,-4.5178,-4.4692,-4.4615,-4.4615,-4.4615,-4.4615,-4.4615,-4.4615,-4.4615,-4.4615,-4.4615,-4.4615,-4.4615,-4.4615,-4.4615,-4.4615,-4.4615,-4.4615,-4.4615,-4.4615,-4.4615,-4.4615,-4.4615,-4.4615,-4.4615,-4.4615,-4.4615,-4.4615,-4.4615,-4.4615,-4.4615,-4.4615,-4.4615,-4.4445,-4.4113,-4.4113,-4.3961,-4.3718,-4.4327,-4.4615,-4.4654,-4.5657,-4.6238,-4.646,-4.7,-4.7228,-4.7156,-4.6341,-4.6015,-4.587,-4.4584,-4.4095,-4.3969,-4.3172,-4.2901,-4.2901,-4.2901,-4.2769,-4.2614,-4.2614,-4.23,-4.1888,-4.1696,-4.1432,-4.1116,-4.0635,-4.0507,-4.0507,-4.0507,-4.0303,-4.0096,-4.0096,-4.0096,-4.0096,-4.0096,-4.0096,-4.0096,-4.0096,-4.0096,-4.0096,-4.0096,-4.0096,-4.0096,-4.0096,-4.0096,-4.0096,-4.0096,-4.0096,-4.0096,-4.0096,-3.9842,-3.9791,-4.0079,-3.9842,-3.9469,-3.9005,-3.9723,-3.9757,-3.9005,-3.9453,-3.9073,-3.7905,-3.7601,-3.6992,-3.6079,-3.5735,-3.56,-4.7409,-4.7172,-4.691,-4.6269,-4.5648,-4.5125,-4.4692,-4.4615,-4.4615,-4.4615,-4.4615,-4.4615,-4.4615,-4.4615,-4.4615,-4.4615,-4.4615,-4.4615,-4.4615,-4.4615,-4.4615,-4.4615,-4.4615,-4.4615,-4.4615,-4.4615,-4.4615,-4.4615,-4.4615,-4.4615,-4.4615,-4.4615,-4.4581,-4.4496,-4.4496,-4.4462,-4.4395,-4.4395,-4.4012,-4.3291,-4.3291,-4.2963,-4.2337,-4.3768,-4.4423,-4.4517,-4.5474,-4.6194,-4.6663,-4.6437,-4.6354,-4.6323,-4.5468,-4.5122,-4.5032,-4.4218,-4.3928,-4.382,-4.3098,-4.2844,-4.2844,-4.2844,-4.2518,-4.2136,-4.2136,-4.1803,-4.1366,-4.0926,-4.0778,-4.0652,-4.0221,-4.0096,-4.0096,-4.0096,-4.0096,-4.0096,-4.0096,-4.0096,-4.0096,-4.0096,-4.0096,-4.0096,-4.0096,-4.0096,-4.0096,-4.0096,-4.0096,-4.0096,-4.0096,-4.0096,-4.0096,-4.0096,-4.0096,-4.0096,-4.0096,-3.9503,-3.9402,-4.0062,-3.9462,-3.9089,-3.9089,-3.969,-3.9656,-3.8903,-3.8903,-3.8531,-3.7804,-3.7134,-3.6761,-3.6677,-3.5943,-3.56,-4.7711,-4.7314,-4.6675,-4.62,-4.5416,-4.472,-4.4626,-4.4615,-4.4615,-4.4615,-4.4615,-4.4615,-4.4615,-4.4615,-4.4615,-4.4615,-4.4615,-4.4615,-4.4615,-4.4615,-4.4615,-4.4615,-4.4615,-4.4615,-4.4615,-4.4615,-4.4615,-4.4615,-4.4615,-4.4615,-4.4615,-4.4615,-4.4299,-4.369,-4.3673,-4.3386,-4.2794,-4.2777,-4.2709,0.0,-4.254,-4.2439,-4.2303,-4.2625,-4.3027,-4.3459,-4.4045,-4.4604,-4.5092,-4.504,-4.5219,-4.5432,-4.4276,-4.3808,-4.3701,-4.2913,-4.2609,-4.2573,-4.2412,-4.2358,-4.2358,-4.2358,-4.2035,-4.1635,-4.1635,-4.1321,-4.0926,-4.0825,-4.0531,-4.0221,-4.0121,-4.0096,-4.0096,-4.0096,-4.0096,-4.0096,-4.0096,-4.0096,-4.0096,-4.0096,-4.0096,-4.0096,-4.0096,-4.0096,-4.0096,-4.0096,-4.0096,-4.0096,-4.0096,-4.0096,-4.0096,-4.0096,-4.0096,-4.0096,-4.0096,-3.996,-3.9943,-4.0096,-3.996,-3.9859,-3.9859,-3.9469,-3.8886,-3.8159,-3.8142,-3.777,-3.7049,-3.688,-3.6468,-3.5836,-3.5667,-3.56,-4.7525,-4.7427,-4.7179,-4.6623,-4.591,-4.5249,-4.4998,-4.4759,-4.4615,-4.4615,-4.4615,-4.4615,-4.4615,-4.4615,-4.4615,-4.4615,-4.4615,-4.4615,-4.4615,-4.4615,-4.4615,-4.4615,-4.4615,-4.4615,-4.4615,-4.4615,-4.4615,-4.4615,-4.4615,-4.4615,-4.4615,-4.4215,-4.3842,-4.3409,-4.3064,-4.2692,-4.2286,-4.2286,-4.2117,-4.1762,-4.1762,-4.1593,-4.128,-4.1965,-4.2454,-4.2749,-4.3485,-4.3839,-4.3874,-4.3987,-4.4043,-4.3974,-4.3147,-4.2697,-4.2477,-4.2258,-4.2074,-4.1867,-4.1867,-4.1867,-4.1867,-4.1867,-4.1543,-4.1162,-4.1162,-4.0832,-4.0458,-4.0458,-4.0279,-4.0096,-4.0096,-4.0096,-4.0096,-4.0096,-4.0096,-4.0096,-4.0096,-4.0096,-4.0096,-4.0096,-4.0096,-4.0096,-4.0096,-4.0096,-4.0096,-4.0096,-4.0096,-4.0096,-4.0096,-4.0096,-4.0096,-4.0096,-4.0096,-4.0096,-4.0096,-3.9791,-3.9723,-4.0079,-3.9774,-3.9571,-3.9571,-3.887,-3.8294,-3.7922,-3.755,-3.6992,-3.6231,-3.6231,-3.6011,-3.56,-3.56,-3.56,-4.6981,-4.7209,-4.7526,-4.7053,-4.6501,-4.5975,-4.5537,-4.5062,-4.472,-4.472,-4.4654,-4.4615,-4.4615,-4.4615,-4.4615,-4.4615,-4.4615,-4.4615,-4.4615,-4.4615,-4.4615,-4.4615,-4.4615,-4.4564,-4.4429,-4.453,-4.4496,-4.4225,-4.4327,-4.4344,-4.4225,-4.3572,-4.3139,-4.3003,-4.2439,-4.2049,-4.1914,-4.1914,-4.161,-4.1018,-4.1018,-4.0679,-4.0146,-4.1339,-4.1914,-4.1976,-4.2885,-4.306,-4.2711,-4.2886,-4.2776,-4.2462,-4.2111,-4.1717,-4.1432,-4.1803,-4.1717,-4.137,-4.137,-4.137,-4.137,-4.137,-4.1047,-4.0683,-4.0683,-4.0427,-4.0096,-4.0096,-4.0096,-4.0096,-4.0096,-4.0096,-4.0096,-4.0096,-4.0096,-4.0096,-4.0096,-4.0096,-4.0096,-4.0096,-4.0096,-4.0096,-4.0096,-4.0096,-4.0096,-4.0096,-4.0096,-4.0096,-4.0096,-4.0096,-4.0096,-4.0096,-4.0096,-4.0096,-4.0096,-3.9554,-3.9445,-4.0062,-3.9537,-3.9123,-3.9005,-3.8413,-3.7973,-3.7719,-3.6958,-3.6265,-3.56,-3.56,-3.56,-3.56,-3.56,-3.56,-4.6011,-4.6076,-4.6316,-4.6928,-4.6572,-4.6074,-4.6,-4.5588,-4.5214,-4.5214,-4.4879,-4.4615,-4.4615,-4.4615,-4.4615,-4.4615,-4.4615,-4.4615,-4.4615,-4.4615,-4.4615,-4.4615,-4.4615,-4.4344,-4.3639,-4.4181,-4.4056,-4.2692,-4.32,-4.3284,-4.2625,-4.2506,-4.2151,-4.1508,-4.1407,-4.1035,-4.04,-4.04,-4.035,-4.0248,-4.0248,-4.0197,-4.0113,-4.0299,-4.04,-4.0409,-4.0968,-4.1183,-4.1119,-4.1133,-4.1342,-4.1617,-4.1169,-4.0949,-4.0902,-4.0949,-4.0949,-4.0879,-4.0879,-4.0879,-4.0879,-4.0879,-4.058,-4.0196,-4.0196,-4.0146,-4.0096,-4.0096,-4.0096,-4.0096,-4.0096,-4.0096,-4.0096,-4.0096,-4.0096,-4.0096,-4.0096,-4.0096,-4.0096,-4.0096,-4.0096,-4.0096,-4.0096,-4.0096,-4.0096,-4.0096,-4.0096,-4.0096,-4.0096,-4.0096,-4.0096,-4.0096,-4.0096,-4.0096,-4.0096,-4.0011,-3.9994,-4.0096,-4.0011,-3.9673,-3.9022,-3.8903,-3.8244,-3.6981,-3.618,-3.5701,-3.56,-3.56,-3.56,-3.56,-3.56,-3.56,-4.6358,-4.6474,-4.669,-4.7425,-4.7133,-4.666,-4.666,-4.6189,-4.5648,-4.5355,-4.5125,-4.4917,-4.4654,-4.4615,-4.4615,-4.4615,-4.4615,-4.4615,-4.4615,-4.4615,-4.4615,-4.4615,-4.4615,-4.4265,-4.3477,-4.3724,-4.347,-4.2371,-4.2591,-4.2642,-4.2303,-4.1914,-4.1542,-4.1221,-4.0798,-4.0434,-4.0096,-4.0096,-4.0096,-4.0096,-4.0096,-4.0096,-4.0096,-4.0096,-4.0096,-4.0121,-4.0604,-4.0652,-4.041,-4.0683,-4.0778,-4.0713,-4.0778,-4.0652,-4.0434,-4.0707,-4.0635,-4.0427,-4.0427,-4.0427,-4.0427,-4.0427,-4.0254,-4.0096,-4.0096,-4.0096,-4.0096,-4.0096,-4.0096,-4.0096,-4.0096,-4.0096,-4.0096,-4.0096,-4.0096,-4.0096,-4.0096,-4.0096,-4.0096,-4.0096,-4.0096,-4.0096,-4.0096,-4.0096,-4.0096,-4.0096,-4.0096,-4.0096,-4.0096,-4.0096,-4.0096,-4.0096,-4.0096,-4.0096,-4.0096,-4.0096,-4.0096,-4.0096,-3.9723,-3.914,-3.8413,-3.8379,-3.7669,-3.6163,-3.6214,-3.6062,-3.56,-3.56,-3.56,-3.56,-3.56,-3.5594,-4.6213,-4.6394,-4.6613,-4.7522,-4.7379,-4.7072,-4.7266,-4.6799,-4.6238,-4.5817,-4.5432,-4.5053,-4.4579,-4.4393,-4.4282,-4.4282,-4.4282,-4.4378,-4.4581,-4.4615,-4.4615,-4.4615,-4.4615,-4.4198,-4.3234,-4.3274,-4.2946,-4.1813,-4.1897,-4.1931,-4.1745,-4.1221,-4.0916,-4.0916,-4.04,-4.0096,-4.0096,-4.0096,-4.0096,-4.0096,-4.0096,-4.0096,-4.0096,-4.0096,-4.0096,-4.0121,-4.0458,-4.041,-4.0121,-4.0483,-4.0427,-4.0121,-4.0483,-4.0427,-4.0146,-4.0483,-4.0402,-4.0096,-4.0096,-4.0096,-4.0096,-4.0096,-4.0096,-4.0096,-4.0096,-4.0096,-4.0096,-4.0096,-4.0096,-4.0096,-4.0096,-4.0096,-4.0096,-4.0096,-4.0096,-4.0096,-4.0096,-4.0096,-4.0096,-4.0096,-4.0096,-4.0096,-4.0096,-4.0096,-4.0096,-4.0096,-4.0096,-4.0096,-4.0096,-4.0096,-4.0096,-4.0096,-4.0096,-4.0096,-4.0096,-4.0096,-4.0096,-4.0096,-3.9588,-3.8853,-3.7939,-3.8091,-3.7381,-3.5633,-3.6383,-3.64,-3.56,-3.5577,-3.5571,-3.5571,-3.5549,-3.5503,-4.4599,-4.4766,-4.5114,-4.665,-4.6919,-4.7001,-4.77,-4.7428,-4.6999,-4.6863,-4.5823,-4.4768,-4.4302,-4.3805,-4.3443,-4.3443,-4.3443,-4.3741,-4.4496,-4.4615,-4.4615,-4.4615,-4.4615,-4.4022,-4.2489,-4.2997,-4.2523,-4.0383,-4.0849,-4.095,-4.0248,-4.018,-4.0163,-4.0163,-4.013,-4.0096,-4.0096,-4.0096,-4.0096,-4.0096,-4.0096,-4.0096,-4.0096,-4.0096,-4.0096,-4.0096,-4.0121,-4.0121,-4.0096,-4.0121,-4.0121,-4.0096,-4.0121,-4.0121,-4.0096,-4.0121,-4.0121,-4.0096,-4.0096,-4.0096,-4.0096,-4.0096,-4.0096,-4.0096,-4.0096,-4.0096,-4.0096,-4.0096,-4.0096,-4.0096,-4.0096,-4.0096,-4.0096,-4.0096,-4.0096,-4.0096,-4.0096,-4.0096,-4.0096,-4.0096,-4.0096,-4.0096,-4.0096,-4.0096,-4.0096,-4.0096,-4.0096,-4.0096,-4.0096,-4.0096,-4.0096,-4.0096,-4.0096,-4.0096,-4.0096,-4.0096,-4.0096,-4.0096,-4.0062,-3.9394,-3.7973,-3.8565,-3.7889,-3.5633,-3.6383,-3.64,-3.56,-3.5543,-3.5514,-3.5492,-3.536,-3.5314,-4.4488,-4.4673,-4.493,-4.603,-4.6615,-4.6994,-4.7265,-4.7461,-4.7367,-4.6444,-4.5797,-4.4945,-4.3447,-4.3155,-4.3183,-4.3362,-4.3392,-4.369,-4.4496,-4.4615,-4.4615,-4.4615,-4.4615,-4.4164,-4.3115,-4.2828,-4.2168,-4.0899,-4.0595,-4.0383,-4.0113,-4.0096,-4.0096,-4.0096,-4.0096,-4.0096,-4.0096,-4.0096,-4.0096,-4.0096,-4.0096,-4.0096,-4.0096,-4.0096,-4.0096,-4.0096,-4.0096,-4.0096,-4.0096,-4.0096,-4.0096,-4.0096,-4.0096,-4.0096,-4.0096,-4.0096,-4.0096,-4.0096,-4.0096,-4.0096,-4.0096,-4.0096,-4.0096,-4.0096,-4.0096,-4.0096,-4.0096,-4.0096,-4.0096,-4.0096,-4.0096,-4.0096,-4.0096,-4.0096,-4.0096,-4.0096,-4.0096,-4.0096,-4.0096,-4.0096,-4.0096,-4.0096,-4.0096,-4.0096,-4.0096,-4.0096,-4.0096,-4.0096,-4.0096,-4.0096,-4.0096,-4.0096,-4.0096,-4.0096,-4.0096,-4.0096,-4.0096,-4.0096,-3.9673,-3.8937,-3.7939,-3.8616,-3.7922,-3.5633,-3.6764,-3.6774,-3.5543,-3.5514,-3.5446,-3.536,-3.5314,-3.5245,-4.4158,-4.4305,-4.4562,-4.5626,-4.6067,-4.6359,-4.6888,-4.7101,-4.6921,-4.5954,-4.5483,-4.4754,-4.3165,-4.2782,-4.2857,-4.3217,-4.3139,-4.3403,-4.4462,-4.4615,-4.4615,-4.4615,-4.4615,-4.4265,-4.3477,-4.2963,-4.2252,-4.1271,-4.0747,0.0,-4.0113,-4.0096,-4.0096,-4.0096,-4.0096,-4.0096,-4.0096,-4.0096,-4.0096,-4.0096,-4.0096,-4.0096,-4.0096,-4.0096,-4.0096,-4.0096,-4.0096,-4.0096,-4.0096,-4.0096,-4.0096,-4.0096,-4.0096,-4.0096,-4.0096,-4.0096,-4.0096,-4.0096,-4.0096,-4.0096,-4.0096,-4.0096,-4.0096,-4.0096,-4.0096,-4.0096,-4.0096,-4.0096,-4.0096,-4.0096,-4.0096,-4.0096,-4.0096,-4.0096,-4.0096,-4.0096,-4.0096,-4.0096,-4.0096,-4.0096,-4.0096,-4.0096,-4.0096,-4.0096,-4.0096,-4.0096,-4.0096,-4.0096,-4.0096,-4.0096,-4.0096,-4.0096,-4.0096,-4.0096,-4.0096,-4.0096,-3.9994,-3.9757,-3.9259,-3.8548,-3.7567,-3.799,-3.7408,-3.5605,-3.6498,-3.6421,-3.5377,-3.5377,-3.5314,-3.5222,-3.5198,-3.5128,0.0,0.0,0.0,-4.5443,-4.5259,-4.5095,-4.6596,-4.6321,-4.5698,-4.5507,-4.4832,-4.4097,-4.3483,-4.2754,-4.2381,-4.2916,-4.2603,-4.2855,-4.4361,-4.4598,-4.4615,-4.4615,-4.4615,-4.4282,-4.3494,-4.3409,-4.2801,-4.1373,-4.1221,-4.0882,-4.018,-4.0113,-4.0096,-4.0096,-4.0096,-4.0096,-4.0096,-4.0096,-4.0096,-4.0096,-4.0096,-4.0096,-4.0096,-4.0079,-4.0079,-4.0096,-4.0079,-4.0079,-4.0096,-4.0096,-4.0096,-4.0096,-4.0096,-4.0096,-4.0096,-4.0096,-4.0096,-4.0096,-4.0096,-4.0096,-4.0096,-4.0096,-4.0096,-4.0096,-4.0096,-4.0096,-4.0096,-4.0096,-4.0096,-4.0096,-4.0096,-4.0096,-4.0096,-4.0096,-4.0096,-4.0096,-4.0096,-4.0096,-4.0096,-4.0096,-4.0096,-4.0096,-4.0096,-4.0096,-4.0096,-4.0096,-4.0096,-4.0096,-4.0096,-4.0096,-4.0096,-4.0096,-4.0096,-4.0096,-4.0096,-4.0079,-3.9774,-3.9073,-3.9005,-3.8345,-3.6897,-3.6863,-3.6439,-3.5508,-3.5508,-3.5394,-3.5088,-3.5088,-3.5088,-3.5088,-3.497,-3.4899,-4.3515,0.0,0.0,0.0,0.0,0.0,-4.5242,-4.5114,-4.4913,-4.4857,-4.4089,-4.3394,-4.3206,-4.264,-4.2415,-4.3112,-4.2982,-4.3013,-4.3644,-4.4215,-4.4615,-4.4615,-4.4615,-4.4513,-4.4282,-4.3741,-4.3223,0.0,-4.1813,-4.1119,-4.0899,-4.04,-4.0096,-4.0096,-4.0096,-4.0096,-4.0096,-4.0096,-4.0096,-4.0096,-4.0096,-4.0096,-4.0079,-3.9554,-3.9605,-4.0079,-3.9554,-3.9622,-4.0096,-4.0096,-4.0096,-4.0096,-4.0096,-4.0096,-4.0096,-4.0096,-4.0096,-4.0096,-4.0096,-4.0096,-4.0096,-4.0096,-4.0096,-4.0096,-4.0096,-4.0096,-4.0096,-4.0096,-4.0096,-4.0096,-4.0096,-4.0096,-4.0096,-4.0096,-4.0096,-4.0096,-4.0096,-4.0096,-4.0096,-4.0096,-4.0096,-4.0096,-4.0096,-4.0096,-4.0096,-4.0096,-4.0096,-4.0096,-4.0096,-4.0096,-4.0096,-4.0096,-4.0096,-4.0096,-4.0096,-3.9622,-3.9453,-3.9774,-3.9317,-3.8582,-3.7635,-3.8019,-3.7374,-3.5525,-3.5834,-3.5716,-3.5088,-3.5088,-3.5041,-3.4947,-3.4923,-3.4899,-4.3515,-4.3515,-4.3515,-4.3515,0.0,0.0,-4.4195,-4.4178,-4.4143,-4.4108,-4.3634,-4.3215,-4.3142,-4.2824,-4.264,-4.2887,-4.3041,-4.3266,-4.3645,-4.42,-4.4615,-4.4615,-4.4615,-4.4615,-4.4615,-4.4181,-4.3775,-4.3426,-4.232,-4.139,-4.0764,-4.0333,-4.0096,-4.0096,-4.0096,-4.0096,-4.0096,-4.0096,-4.0096,-4.0096,-3.9791,-3.9656,-3.9622,-3.887,-3.8768,-3.9157,-3.8717,-3.8768,-3.9174,-3.9174,-3.9529,-4.0079,-3.9774,-3.9656,-3.9656,-3.9656,-3.9656,-3.969,-3.9994,-4.0096,-4.0096,-4.0096,-4.0096,-4.0096,-4.0096,-4.0096,-4.0096,-4.0096,-4.0096,-4.0096,-4.0096,-4.0096,-4.0096,-4.0096,-4.0096,-4.0096,-4.0096,-4.0096,-4.0096,-4.0096,-4.0096,-4.0096,-4.0096,-4.0096,-4.0096,-4.0096,-4.0096,-4.0096,-4.0096,-4.0096,-3.9994,-3.9673,-3.9656,-3.9537,-3.9191,-3.8785,-3.8582,-3.8725,-3.827,-3.7665,-3.6939,-3.7175,-3.6709,-3.5371,-3.5599,-3.5504,-3.5018,-3.5018,-3.497,-3.4899,-3.4899,-3.4899,-4.3515,-4.3515,-4.3478,-4.3404,-4.3441,0.0,-4.3404,-4.3369,-4.3352,-4.3283,-4.3192,-4.3084,-4.2977,-4.3032,-4.292,-4.2322,-4.2926,-4.3576,-4.3938,-4.4319,-4.4552,-4.4598,-4.4615,-4.4615,-4.4615,-4.4615,-4.4282,-4.3606,-4.2777,-4.167,-4.018,-4.0096,-4.0096,-4.0096,-4.0096,-4.0062,-3.9977,-3.9977,-3.9943,-3.9859,-3.9174,-3.887,-3.8853,-3.8108,-3.7821,-3.7905,-3.7821,-3.7821,-3.7905,-3.7905,-3.8667,-3.9791,-3.9123,-3.887,-3.887,-3.887,-3.887,-3.8954,-3.9639,-3.9859,-3.9876,-3.996,-3.9977,-3.9977,-3.9977,-4.0045,-4.0096,-4.0096,-4.0096,-4.0096,-4.0096,-4.0096,-4.0096,-4.0096,-4.0096,-4.0096,-4.0096,-4.0096,-4.0096,-4.0096,-4.0096,-4.0096,-4.0096,-4.0096,-4.0096,-4.0096,-4.0096,-4.0096,-4.0096,-4.0003,-3.9698,-3.9056,-3.8896,-3.8575,-3.7932,-3.779,-3.7493,-3.6941,-3.669,-3.6283,-3.5643,-3.5455,-3.5305,-3.5088,-3.5105,-3.5018,-3.4899,-3.4899,-3.4899,-3.4899,-3.4899,-3.4899,-4.3515,-4.3515,-4.3332,-4.269,-4.302,0.0,-4.2671,-4.2525,-4.2525,-4.2526,-4.1908,-4.1382,-4.1348,-4.2356,-4.2741,-4.1342,-4.2974,-4.413,-4.3316,-4.3769,-4.4297,-4.4586,-4.4615,-4.4615,-4.4615,-4.4615,-4.4547,-4.4395,-4.3064,-4.167,-4.018,-4.0096,-4.0096,-4.0096,-4.0096,-3.9808,-3.9208,-3.9208,-3.8903,-3.8328,-3.8176,-3.8125,-3.8091,-3.7347,-3.733,-3.7872,-3.7263,-3.7347,-3.7905,-3.7905,-3.8075,-3.8311,-3.8176,-3.8125,-3.8125,-3.8125,-3.8125,-3.8142,-3.8278,-3.8328,-3.843,-3.9005,-3.9208,-3.9208,-3.9208,-3.9639,-4.0096,-4.0096,-4.0096,-4.0096,-4.0096,-4.0096,-4.0096,-4.0096,-4.0096,-4.0096,-4.0096,-4.0096,-4.0096,-4.0096,-4.0096,-4.0096,-4.0096,-4.0096,-4.0096,-4.0096,-4.0096,-4.0096,-4.0096,-3.9488,-3.8991,-3.884,-3.8202,-3.7774,-3.7737,-3.7093,-3.6942,-3.7509,-3.6834,-3.6384,-3.6233,-3.6114,-3.5735,-3.5105,-3.4994,-3.4923,-3.4899,-3.4899,-3.4899,-3.4899,-3.4899,-3.4899,-4.3608,-4.3515,-4.3296,-4.2506,-4.2892,0.0,0.0,-4.2304,-4.2415,-4.2818,-4.2216,-4.1724,-4.2109,-4.2462,-4.2574,-4.2154,-4.2775,-4.3297,-4.3268,-4.3739,-4.4214,-4.4552,-4.4615,-4.4615,-4.4615,-4.4615,-4.4418,-4.4028,-4.2929,-4.1813,-4.0696,-4.0316,-4.0096,-4.0096,-3.9757,-3.9385,-3.8988,-3.8633,-3.8278,-3.7905,-3.7533,-3.7347,-3.733,-3.6552,-3.64,-3.6715,-3.6366,-3.6417,-3.6749,-3.6749,-3.6749,-3.6783,-3.7195,-3.7347,-3.7347,-3.7347,-3.7347,-3.7398,-3.777,-3.7905,-3.7973,-3.8328,-3.8447,-3.8447,-3.8447,-3.8954,-3.9554,-3.9554,-3.9825,-4.0096,-4.0096,-4.0096,-4.0096,-4.0096,-4.0096,-4.0096,-4.0096,-4.0096,-4.0087,-4.0011,-3.9986,-3.9986,-3.9986,-3.9986,-3.9986,-3.9893,-3.9961,-3.9986,-3.991,-3.9194,-3.8564,-3.8194,-3.744,-3.6829,-3.6525,-3.6092,-3.6041,-3.6474,-3.6044,-3.5756,-3.5756,-3.5621,-3.5383,-3.5011,-3.4923,-3.4899,-3.4899,-3.4899,-3.4899,-3.4899,-3.4899,-3.4899,-4.368,-4.3515,-4.3296,-4.2506,-4.2892,-4.3277,0.0,0.0,0.0,-4.2965,-4.2525,-4.2176,-4.2506,-4.2237,-4.2149,-4.266,-4.2429,-4.2467,-4.3227,-4.3623,0.0,-4.4249,-4.4349,-4.4378,-4.4378,-4.4513,-4.4265,-4.3443,-4.2726,-4.1965,-4.1238,-4.0519,-4.0028,-3.9893,-3.9292,-3.8853,-3.8565,-3.799,-3.7618,-3.7442,-3.684,-3.6575,-3.6558,-3.591,-3.56,-3.56,-3.56,-3.56,-3.56,-3.56,-3.56,-3.565,-3.6315,-3.6575,-3.6575,-3.6575,-3.6575,-3.6637,-3.7263,-3.7466,-3.7483,-3.7652,-3.7702,-3.7719,-3.7872,-3.821,-3.8657,-3.8903,-3.9436,-3.9926,-4.0062,-4.0096,-4.0096,-4.0096,-4.0096,-4.0096,-4.0096,-4.0087,-4.0037,-3.9926,-3.9849,-3.9824,-3.9849,-3.9875,-3.9773,-3.9519,-3.9697,-3.9756,-3.9519,-3.8957,-3.8296,-3.7543,-3.679,-3.6031,-3.5335,-3.5245,-3.5222,-3.5268,-3.5152,-3.5065,-3.5065,-3.497,-3.4899,-3.4899,-3.4899,-3.4899,-3.4899,-3.4899,-3.4899,-3.4899,-3.4899,-3.4899,-4.3533,-4.3515,-4.3296,-4.2506,-4.2892,-4.3277,-4.2488,0.0,-4.2983,-4.1662,0.0,-4.082,-3.9496,0.0,0.0,-4.0398,-4.1946,-4.3105,-4.2743,-4.2843,-4.3016,-4.3158,-4.3384,-4.3527,-4.3527,-4.4181,-4.4265,-4.3443,-4.2726,-4.1965,-4.1238,-4.0519,-3.9808,-3.914,-3.9039,-3.8362,-3.7066,-3.6981,-3.6569,-3.5853,-3.5769,-3.5735,-3.5718,-3.5633,-3.56,-3.56,-3.56,-3.56,-3.56,-3.56,-3.56,-3.56,-3.5701,-3.5735,-3.5735,-3.5735,-3.5735,-3.5752,-3.5819,-3.5853,-3.5971,-3.6688,-3.6931,-3.7066,-3.7702,-3.7499,-3.732,-3.8616,-3.9056,-3.9276,-3.9943,-4.0096,-4.0096,-4.0096,-4.0096,-4.0096,-4.0096,-4.0011,-3.9926,-3.9901,-3.9694,-3.959,-3.9703,-3.9729,-3.9486,-3.8824,-3.9285,-3.9469,-3.8807,-3.8538,-3.8128,-3.7403,-3.6563,-3.5791,-3.5178,-3.5018,-3.4994,-3.5128,-3.4994,-3.4923,-3.4923,-3.4899,-3.4899,-3.4899,-3.4899,-3.4899,-3.4899,-3.4899,-3.4899,-3.4899,-3.4899,-3.4899,-4.3643,-4.3515,-4.3423,-4.3075,-4.324,-4.3423,-4.3057,-4.2543,-4.2047,-4.1846,0.0,0.0,0.0,0.0,0.0,0.0,-4.209,-4.2775,-4.3014,-4.2807,-4.2921,-4.366,0.0,0.0,-4.276,0.0,0.0,0.0,-4.2472,-4.1965,-4.1238,-4.0519,-3.9774,-3.9005,-3.8582,-3.7855,-3.6812,-3.6332,-3.5943,-3.56,-3.56,-3.56,-3.56,-3.56,-3.56,-3.56,-3.56,-3.56,-3.56,-3.56,-3.56,-3.56,-3.56,-3.56,-3.56,-3.56,-3.56,-3.56,-3.56,-3.56,-3.565,-3.5994,-3.6096,-3.6163,-3.6462,-3.6671,-3.7032,-3.8058,-3.8667,-3.9157,-3.991,-4.0096,-4.0096,-4.0096,-4.0096,-4.0087,-3.9986,-3.9952,-3.9849,-3.9694,-3.958,-3.9484,-3.9484,-3.9537,-3.933,-3.8493,-3.8703,-3.8646,-3.7827,-3.7311,-3.6887,-3.6588,-3.5842,-3.5254,-3.5003,-3.4923,-3.4923,-3.497,-3.4923,-3.4899,-3.4899,-3.4899,-3.4899,-3.4899,-3.4899,-3.4899,-3.4899,-3.4899,-3.4899,-3.4899,-3.4899,-3.4899,-4.3644,-4.3515,-4.3515,-4.3515,-4.3515,-4.3441,-4.3222,-4.2433,-4.1809,-4.1937,-4.1222,0.0,0.0,0.0,-4.1352,-4.2176,0.0,-4.2514,-4.3319,-4.2921,-4.2807,0.0,0.0,0.0,0.0,0.0,0.0,0.0,0.0,-4.2066,-4.1525,-4.0798,-3.9868,-3.8734,-3.8176,-3.7449,-3.6468,-3.5887,-3.56,-3.56,-3.56,-3.5481,-3.5295,-3.5295,-3.5295,-3.5295,-3.5295,-3.5397,-3.56,-3.56,-3.56,-3.56,-3.56,-3.56,-3.56,-3.56,-3.56,-3.56,-3.56,-3.56,-3.56,-3.56,-3.56,-3.56,-3.56,-3.6011,-3.6671,-3.7635,-3.8294,-3.8903,-3.9859,-4.0096,-4.0096,-4.0096,-4.0096,-4.0045,-3.9926,-3.9875,-3.9772,-3.9537,-3.9475,-3.9405,-3.9325,-3.9379,-3.9172,-3.8328,-3.8273,-3.8059,-3.7201,-3.6638,-3.6224,-3.6025,-3.5528,-3.5114,-3.4916,-3.4899,-3.4899,-3.4899,-3.4899,-3.4899,-3.4899,-3.4899,-3.4899,-3.4899,-3.4899,-3.4899,-3.4899,-3.4899,-3.4899,-3.4899,-3.4899,-3.4899,0.0,0.0,0.0,-4.3515,0.0,0.0,0.0,-4.2892,-4.2983,-4.1444,-4.1717,-4.1992,-4.1242,-4.1095,-4.1352,-4.2176,-4.2304,0.0,0.0,-4.3032,-4.2456,-4.1858,0.0,0.0,0.0,-4.321,-4.2929,0.0,-4.3132,0.0,-4.2252,-4.1576,-4.0172,-3.8007,-3.7922,-3.7155,-3.565,-3.5616,-3.56,-3.56,-3.56,-3.5233,-3.4523,-3.4523,-3.4523,-3.4523,-3.4523,-3.4945,-3.56,-3.56,-3.56,-3.56,-3.56,-3.56,-3.56,-3.56,-3.56,-3.56,-3.56,-3.56,-3.56,-3.56,-3.56,-3.56,-3.56,-3.5616,-3.5955,-3.7483,-3.7922,-3.8278,-3.9723,-4.0096,-4.0096,-4.0096,-4.0096,-4.0045,-3.9926,-3.9781,-3.9651,-3.9528,-3.9395,-3.9299,-3.9299,-3.9299,-3.905,-3.8328,-3.8212,-3.7947,-3.7201,-3.7085,-3.6787,-3.6075,-3.5976,-3.5678,-3.4965,-3.4899,-3.4899,-3.4899,-3.4899,-3.4899,-3.4899,-3.4899,-3.4899,-3.4899,-3.4899,-3.4899,-3.4899,-3.4899,-3.4899,-3.4899,-3.4899,-3.4899,0.0,0.0,-4.2047,-4.2561,0.0,0.0,0.0,0.0,0.0,0.0,-4.1315,-4.1407,-4.115,-4.1535,-4.1992,-4.2268,-4.2745,-4.3185,0.0,-4.3032,-4.2757,-4.2935,-4.2614,-4.2202,-4.1662,0.0,0.0,0.0,-4.1863,0.0,0.0,-4.0865,-3.9681,-3.7956,-3.7905,-3.7178,-3.5616,-3.56,-3.56,-3.5583,-3.5115,-3.4742,-3.4472,-3.3981,-3.3778,-3.3795,-3.4286,-3.4641,-3.4912,-3.5397,-3.56,-3.56,-3.56,-3.56,-3.56,-3.56,-3.56,-3.56,-3.56,-3.56,-3.56,-3.56,-3.56,-3.56,-3.56,-3.5977,-3.6603,-3.7618,-3.8261,-3.8853,-3.9842,-4.0096,-4.0096,-4.0096,-4.0096,-4.0037,-3.9807,-3.9729,-3.9625,-3.9405,-3.9325,-3.9299,-3.9299,-3.9299,-3.905,-3.8328,-3.8186,-3.7765,-3.6539,-3.6373,-3.6092,-3.5346,-3.5263,-3.5164,-3.4916,-3.4899,-3.4899,-3.4899,-3.4899,-3.4899,-3.4899,-3.4899,-3.4899,-3.4899,-3.4899,-3.4899,-3.4899,-3.4899,-3.4899,-3.4899,-3.4546,-3.4546,-4.1039,-4.0994,0.0,-4.1754,-4.148,0.0,-4.1772,0.0,-4.1534,0.0,0.0,0.0,-4.1956,-4.2378,-4.2727,-4.2727,-4.3149,-4.3515,0.0,-4.3178,-4.3044,-4.3242,-4.2663,-4.1963,-4.1196,-4.1367,-4.1525,-4.1593,-4.1356,0.0,0.0,0.0,-3.9428,-3.7956,-3.7652,-3.6891,-3.5616,-3.5329,-3.5216,-3.5194,-3.4455,-3.3964,-3.3715,-3.322,-3.3,-3.3034,-3.3508,-3.3884,-3.4167,-3.4912,-3.5216,-3.5228,-3.5498,-3.56,-3.56,-3.56,-3.56,-3.56,-3.56,-3.56,-3.56,-3.56,-3.56,-3.56,-3.56,-3.596,-3.6586,-3.7618,-3.8244,-3.8836,-3.9842,-4.0096,-4.0096,-4.0096,-4.0045,-3.9961,-3.9755,-3.9651,-3.9547,-3.9352,-3.9299,-3.9299,-3.9299,-3.9299,-3.9149,-3.8659,-3.8377,-3.7765,-3.6555,-3.6158,-3.5727,-3.4982,-3.4899,-3.4899,-3.4899,-3.4899,-3.4899,-3.4899,-3.4899,-3.4899,-3.4899,-3.4899,-3.4811,-3.4618,-3.4635,-3.4505,-3.4317,-3.4317,-3.4317,-3.4292,-3.3926,-3.3968]},{"header":{"parameterUnit":"m.s-1","parameterCategory":1,"la1":30.6,"la2":29.2853,"lo1":-89.7004,"lo2":-87.6739,"dy":0.0162,"dx":0.0183,"nx":112,"ny":82,"refTime":"2024-05-17T12:00:00:Z","depth":0,"parameterNumber":3,"parameterNumberName":"V-component_of_WINDS"},"data":[0.0,0.0,0.0,0.0,0.0,0.0,0.0,0.0,0.0,0.0,0.0,0.0,0.0,0.0,0.0,0.0,0.0,0.0,0.0,0.0,0.0,0.0,0.0,0.0,0.0,0.0,0.0,0.0,0.0,0.0,0.0,0.0,0.0,0.0,0.0,0.0,0.0,0.0,0.0,0.0,0.0,0.0,0.0,0.0,0.0,0.0,0.0,0.0,0.0,0.0,0.0,0.0,0.0,0.0,0.0,0.0,0.0,0.0,0.0,0.0,0.0,0.0,0.0,0.0,0.0,0.0,0.0,0.0,0.0,0.0,0.0,0.0,0.0,0.0,0.0,0.0,0.0,0.0,0.0,0.0,0.0,0.0,0.0,0.0,0.0,0.0,0.0,0.0,0.0,0.0,0.1826,0.1509,0.097,0.0657,0.0591,0.0324,0.0126,0.0061,0.0,0.0,0.0,0.0,0.0,0.0,0.0,0.0,0.0,0.0,0.0,0.0,0.0,0.0,0.0,0.0,0.0,0.0,0.0,0.0,0.0,0.0,0.0,0.0,0.0,0.0,0.0,0.0,0.0,0.0,0.0,0.0,0.0,0.0,0.0,0.0,0.0,0.0,0.0,0.0,0.0,0.0,0.0,0.0,0.0,0.0,0.0,0.0,0.0,0.0,0.0,0.0,0.0,0.0,0.0,0.0,0.0,0.0,0.0,0.0,0.0,0.0,0.0,0.0,0.0,0.0,0.0,0.0,0.0,0.0,0.0,0.0,0.0,0.0,0.0,0.0,0.0,0.0,0.0,0.0,0.0,0.0,0.0,0.0,0.0,0.0,0.0,0.0,0.0,0.0,0.0,0.0,0.0,0.0,0.0,0.0,0.0,0.0,0.0,0.0,0.0,0.0,0.0,0.0,0.1805,0.1507,0.1409,0.1229,0.0971,0.0894,0.075,0.0423,0.0,0.0,0.0,0.0,0.0,0.0,0.0,0.0,0.0,0.0,0.0,0.0,0.0,0.0,0.0,0.0,0.0,0.0,0.0,0.0,0.0,0.0,0.0,0.0,0.0,0.0,0.0,0.0,0.0,0.0,0.0,0.0,0.0,0.0,0.0,0.0,0.0,0.0,0.0,0.0,0.0,0.0,0.0,0.0,0.0,0.0,0.0,0.0,0.0,0.0,0.0,0.0,0.0,0.0,0.0,0.0,0.0,0.0,0.0,0.0,0.0,0.0,0.0,0.0,0.0,0.0,0.0,0.0,0.0,0.0,0.0,0.0,0.0,0.0,0.0,0.0,0.0,0.0,0.0,0.0,0.0,0.0,0.0,0.0,0.0,0.0,0.0,0.0,0.0,0.0,0.0,0.0,0.0,0.0,0.0,0.0,0.0,0.0,0.0,0.0,0.0,0.0,0.0,0.1916,0.1895,0.1761,0.1587,0.1465,0.1274,0.1132,0.0862,0.0537,0.0349,0.0,0.0,0.0,0.0,0.0,0.0,0.0,0.0,0.0,0.0,0.0,0.0,0.0,0.0,0.0,0.0,0.0,0.0,0.0,0.0,0.0,0.0,0.0,0.0,0.0,0.0,0.0,0.0,0.0,0.0,0.0,0.0,0.0,0.0,0.0,0.0,0.0,0.0,0.0,0.0,0.0,0.0,0.0,0.0,0.0,0.0,0.0,0.0,0.0,0.0,0.0,0.0,0.0,0.0,0.0,0.0,0.0,0.0,0.0,0.0,0.0,0.0,0.0,0.0,0.0,0.0,0.0,0.0,0.0,0.0,0.0,0.0,0.0,0.0,0.0,0.0,0.0,0.0,0.0,0.0,0.0,0.0,0.0,0.0,0.0,0.0,0.0,0.0,0.0,0.0,0.0,0.0,0.0,0.0,0.0,0.0,0.0,0.0,0.0,0.0,0.0,0.0,0.1947,0.1977,0.2005,0.1757,0.1632,0.1632,0.1358,0.1086,0.0763,0.0679,0.0,0.0,0.0,0.0,0.0,0.0,0.0,0.0,0.0,0.0,0.0,0.0,0.0,0.0,0.0,0.0,0.0,0.0,0.0,0.0,0.0,0.0,0.0,0.0,0.0,0.0,0.0,0.0,0.0,0.0,0.0,0.0,0.0,0.0,0.0,0.0,0.0,0.0,0.0,0.0,0.0,0.0,0.0,0.0,0.0,0.0,0.0,0.0,0.0,0.0,0.0,0.0,0.0,0.0,0.0,0.0,0.0,0.0,0.0,0.0,0.0,0.0,0.0,0.0,0.0,0.0,0.0,0.0,0.0,0.0,0.0,0.0,0.0,0.0,0.0,0.0,0.0,0.0,0.0,0.0,0.0,0.0,0.0,0.0,0.0,0.0,0.0,0.0,0.0,0.0,0.0,0.0,0.0,0.0,0.0,0.0,0.0,0.0,0.0,0.0,0.0,0.0,0.1915,0.1946,0.1976,0.1979,0.1979,0.1979,0.1865,0.1702,0.1384,0.1266,0.0,0.0,0.0,0.0,0.0,0.0,0.0,0.0,0.0,0.0,0.0,0.0,0.0,0.0,0.0,0.0,0.0,0.0,0.0,0.0,0.0,0.0,0.0,0.0,0.0,0.0,0.0,0.0,0.0,0.0,0.0,0.0,0.0,0.0,0.0,0.0,0.0,0.0,0.0,0.0,0.0,0.0,0.0,0.0,0.0,0.0,0.0,0.0,0.0,0.0,0.0,0.0,0.0,0.0,0.0,0.0,0.0,0.0,0.0,0.0,0.0,0.0,0.0,0.0,0.0,0.0,0.0,0.0,0.0,0.0,0.0,0.0,0.0,0.0,0.0,0.0,0.0,0.0,0.0,0.0,0.0,0.0,0.0,0.0,0.0,0.0,0.0,0.0,0.0,0.0,0.0,0.0,0.0,0.0,0.0,0.0,0.0,0.0,0.0,0.0,0.0,0.0,0.1884,0.1922,0.1971,0.1977,0.1969,0.195,0.1927,0.1767,0.1362,0.0,0.0,0.0,0.0,0.0,0.0,0.0,0.0,0.0,0.0,0.0,0.0,0.0,0.0,0.0,0.0,0.0,0.0,0.0,0.0,0.0,0.0,0.0,0.0,0.0,0.0,0.0,0.0,0.0,0.0,0.0,0.0,0.0,0.0,0.0,0.0,0.0,0.0,0.0,0.0,0.0,0.0,0.0,0.0,0.0,0.0,0.0,0.0,0.0,0.0,0.0,0.0,0.0,0.0,0.0,0.0,0.0,0.0,0.0,0.0,0.0,0.0,0.0,0.0,0.0,0.0,0.0,0.0,0.0,0.0,0.0,0.0,0.0,0.0,0.0,0.0,0.0,0.0,0.0,0.0,0.0,0.0,0.0,0.0,0.0,0.0,0.0,0.0,0.0,0.0,0.0,0.0,0.0,0.0,0.0,0.0,0.0,0.0,0.0,0.0,0.0,0.0,0.1814,0.1861,0.1902,0.1943,0.1956,0.1949,0.1919,0.1899,0.1737,0.1439,0.0,0.0,0.0,0.0,0.0,0.0,0.0,0.0,0.0,0.0,0.0,0.0,0.0,0.0,0.0,0.0,0.0,0.0,0.0,0.0,0.0,0.0,0.0,0.0,0.0,0.0,0.0,0.0,0.0,0.0,0.0,0.0,0.0,0.0,0.0,0.0,0.0,0.0,0.0,0.0,0.0,0.0,0.0,0.0,0.0,0.0,0.0,0.0,0.0,0.0,0.0,0.0,0.0,0.0,0.0,0.0,0.0,0.0,0.0,0.0,0.0,0.0,0.0,0.0,0.0,0.0,0.0,0.0,0.0,0.0,0.0,0.0,0.0,0.0,0.0,0.0,0.0,0.0,0.0,0.0,0.0,0.0,0.0,0.0,0.0,0.0,0.0,0.0,0.0,0.0,0.0,0.0,0.0,0.0,0.0,0.0,0.0,0.0,0.0,0.0,0.0,0.0,0.1839,0.1905,0.1944,0.1944,0.1913,0.1918,0.1947,0.183,0.1769,0.0,0.0,0.0,0.0,0.0,0.0,0.0,0.0,0.0,0.0,0.0,0.0,0.0,0.0,0.0,0.0,0.0,0.0,0.0,0.0,0.0,0.0,0.0,0.0,0.0,0.0,0.0,0.0,0.0,0.0,0.0,0.0,0.0,0.0,0.0,0.0,0.0,0.0,0.0,0.0,0.0,0.0,0.0,0.0,0.0,0.0,0.0,0.0,0.0,0.0,0.0,0.0,0.0,0.0,0.0,0.0,0.0,0.0,0.0,0.0,0.0,0.0,0.0,0.0,0.0,0.0,0.0,0.0,0.0,0.0,0.0,0.0,0.0,0.0,0.0,0.0,0.0,0.0,0.0,0.0,0.0,0.0,0.0,0.0,0.0,0.0,0.0,0.0,0.0,0.0,0.0,0.0,0.0,0.0,0.0,0.0,0.0,0.0,0.0,0.0,0.0,0.0,0.0,0.4102,0.3511,0.3424,0.434,0.2896,0.224,0.3011,0.2295,0.1783,0.1681,0.0,0.0,0.0,0.0,0.0,0.0,0.0,0.0,0.0,0.0,0.0,0.0,0.0,0.0,0.0,0.0,0.0,0.0,0.0,0.0,0.0,0.0,0.0,0.0,0.0,0.0,0.0,0.0,0.0,0.0,0.0,0.0,0.0,0.0,0.0,0.0,0.0,0.0,0.0,0.0,0.0,0.0,0.0,0.0,0.0,0.0,0.0,0.0,0.0,0.0,0.0,0.0,0.0,0.0,0.0,0.0,0.0,0.0,0.0,0.0,0.0,0.0,0.0,0.0,0.0,0.0,0.0,0.0,0.0,0.0,0.0,0.0,0.0,0.0,0.0,0.0,0.0,0.0,0.0,0.0,0.0,0.0,0.0,0.0,0.0,0.0,0.0,0.0,0.0,0.0,0.0,0.0,0.0,0.0,0.0,0.0,0.0,0.0,0.0,0.0,0.0,0.0,0.4998,0.4621,0.4589,0.535,0.4173,0.3586,0.4262,0.3635,0.3148,0.2935,0.0,0.0,0.0,0.0,0.0,0.0,0.0,0.0,0.0,0.0,0.0,0.0,0.0,0.0,0.0,0.0,0.0,0.0,0.0,0.0,0.0,0.0,0.0,0.0,0.0,0.0,0.0,0.0,0.0,0.0,0.0,0.0,0.0,0.0,0.0,0.0,0.0,0.0,0.0,0.0,0.0,0.0,0.0,0.0,0.0,0.0,0.0,0.0,0.0,0.0,0.0,0.0,0.0,0.0,0.0,0.0,0.0,0.0,0.0,0.0,0.0,0.0,0.0,0.0,0.0,0.0,0.0,0.0,0.0,0.0,0.0,0.0,0.0,0.0,0.0,0.0,0.0,0.0,0.0,0.0,0.0,0.0,0.0,0.0,0.0,0.0,0.0,0.0,0.0,0.0,0.0,0.0,0.0,0.0,0.0,0.0,0.0,0.0,0.0,0.0,0.0,0.0,0.5268,0.549,0.5621,0.5759,0.5547,0.5451,0.5536,0.5472,0.5212,0.4859,0.0,0.0,0.0,0.0,0.0,0.0,0.0,0.0,0.0,0.0,0.0,0.0,0.0,0.0,0.0,0.0,0.0,0.0,0.0,0.0,0.0,0.0,0.0,0.0,0.0,0.0,0.0,0.0,0.0,0.0,0.0,0.0,0.0,0.0,0.0,0.0,0.0,0.0,0.0,0.0,0.0,0.0,0.0,0.0,0.0,0.0,0.0,0.0,0.0,0.0,0.0,0.0,0.0,0.0,0.0,0.0,0.0,0.0,0.0,0.0,0.8885,0.0,0.0,0.0,0.0,0.0,0.0,0.0,0.0,0.0,0.0,0.0,0.0,0.0,0.0,0.0,0.0,0.0,0.0,0.0,0.0,0.0,0.0,0.0,0.0,0.0,0.0,0.0,0.0,0.0,0.0,0.0,0.0,0.0,0.0,0.0,0.0,0.0,0.0,0.0,0.0,0.0,0.8024,0.7494,0.751,0.8432,0.6662,0.5775,0.6649,0.5919,0.5293,0.5054,0.4714,0.0,0.0,0.0,0.0,0.0,0.0,0.0,0.0,0.0,0.0,0.0,0.0,0.0,0.0,0.0,0.0,0.0,0.0,0.0,0.0,0.0,0.0,0.0,0.0,0.0,0.0,0.0,0.0,0.0,0.0,0.0,0.0,0.0,0.0,0.0,0.0,0.0,0.0,0.0,0.0,0.0,0.0,0.0,0.0,0.0,0.0,0.0,0.0,0.0,0.0,0.0,0.0,0.0,0.0,0.0,0.0,0.0,0.0,0.0,0.0,0.9047,0.0,0.0,0.0,0.0,0.0,0.0,0.0,0.0,0.0,0.0,0.0,0.0,0.0,0.0,0.0,0.0,0.0,0.0,0.0,0.0,0.0,0.0,0.0,0.0,0.0,0.0,0.0,0.0,0.0,0.0,0.0,0.0,0.0,0.0,0.0,0.0,0.0,0.0,0.0,0.0,0.8853,0.8755,0.8871,0.9541,0.8367,0.7756,0.8371,0.7867,0.7368,0.7041,0.639,0.0,0.0,0.0,0.0,0.0,0.0,0.0,0.0,0.0,0.0,0.0,0.0,0.0,0.0,0.0,0.0,0.0,0.0,0.0,0.0,0.0,0.0,0.0,0.0,0.0,0.0,0.0,0.0,0.0,0.0,0.0,0.0,0.0,0.0,0.0,0.0,0.0,0.0,0.0,0.0,0.0,0.0,0.0,0.0,0.0,0.0,0.0,0.0,0.0,0.0,0.0,0.0,0.0,1.3169,1.2659,1.2804,1.1578,1.087,1.0628,1.0186,0.968,0.9123,0.9099,0.0,0.0,0.0,0.0,0.0,0.0,0.0,0.0,0.0,0.0,0.0,0.0,0.0,0.0,0.0,0.0,0.0,0.0,0.0,0.0,0.0,0.0,0.0,0.0,0.9679,0.9799,0.0,0.0,0.0,0.0,0.0,0.0,0.0,0.0,0.0,0.0,0.0,0.0,0.8953,0.9467,0.9838,0.9868,0.9816,0.9816,0.9816,0.9786,0.9585,0.9149,0.8176,0.7456,0.0,0.0,0.0,0.0,0.0,0.0,0.0,0.0,0.0,0.0,0.0,0.0,0.0,0.0,0.0,0.0,0.0,0.0,0.0,0.0,0.0,0.0,0.0,0.0,0.0,0.0,0.0,0.0,0.0,0.0,0.0,0.0,1.8029,1.8288,0.0,0.0,0.0,0.0,0.0,0.0,0.0,0.0,0.0,0.0,0.0,0.0,0.0,1.4239,1.4092,1.4234,1.4351,1.4381,1.4177,1.4119,1.4144,1.409,1.3255,1.195,1.2188,0.0,1.0111,0.9968,0.0,0.0,0.0,0.0,0.0,0.0,0.0,0.0,0.0,0.0,0.0,0.0,0.0,0.0,0.0,0.0,0.0,0.0,0.0,0.0,0.0,0.0,1.0589,1.049,1.0552,1.0512,0.0,0.9493,0.8875,0.8694,0.866,0.0,0.0,0.0,0.0,0.0,0.0,0.0,0.9637,0.9826,1.0031,1.0237,0.9981,0.9816,0.9816,0.9628,0.9457,0.9309,0.8848,0.8536,0.8343,0.7998,0.0,0.0,0.0,0.0,0.0,0.0,0.0,0.0,0.0,0.0,0.0,0.0,0.0,0.0,0.0,0.0,0.0,0.0,0.0,0.0,0.0,0.0,0.0,0.0,0.0,0.0,0.0,0.0,0.0,1.8103,1.8343,1.8477,1.8637,1.8617,0.0,0.0,0.0,0.0,0.0,0.0,0.0,0.0,0.0,1.7092,1.73,1.7384,1.7322,1.7378,1.7438,1.7438,1.6581,1.6157,1.6093,1.5469,1.4787,1.4146,1.4268,1.3917,1.3124,1.0988,0.9995,0.9867,0.0,0.0,0.0,0.0,0.9486,0.9463,0.9596,0.9598,0.0,0.9354,0.0,0.0,0.0,0.0,0.0,0.0,0.0,0.0,0.0,0.0,1.0692,1.0692,1.0692,1.0672,1.0595,1.0231,0.9827,0.0,0.943,0.9304,0.9131,0.0,0.0,0.0,0.0,0.954,0.9692,0.9983,1.0206,1.0235,1.0162,1.0128,1.003,0.9947,0.983,0.9658,0.9415,0.92,0.9076,0.864,0.8425,0.0,0.0,0.0,0.0,0.0,0.0,0.0,0.0,0.0,0.0,0.0,0.0,0.0,0.0,0.0,0.0,0.0,0.0,0.0,0.0,0.0,0.0,0.0,0.0,0.0,0.0,0.0,0.0,1.8417,1.8631,1.8704,1.9038,1.9085,0.0,0.0,0.0,0.0,0.0,0.0,1.9132,1.9145,1.9285,1.9579,1.98,1.9913,1.9913,1.9833,1.98,1.9793,1.8542,1.7987,1.7929,1.6991,1.6402,1.6101,1.6101,1.5924,1.5349,1.2241,1.0887,1.0718,1.0162,0.9909,0.9816,0.9871,0.9843,0.9811,0.9991,1.0085,1.0034,0.98,0.9817,0.9788,0.9295,0.0,0.0,0.0,0.0,1.0391,1.0435,1.0595,1.0692,1.0692,1.0692,1.0692,1.0692,1.0692,1.0599,0.0,1.0119,0.9953,0.9734,0.0,0.0,0.0,0.0,0.9644,0.9689,1.0046,1.0262,1.0224,1.0282,1.031,1.0228,1.0171,1.0082,0.9892,0.9721,0.9567,0.9477,0.9104,0.8792,0.8673,0.0,0.0,0.0,0.0,0.0,0.0,0.0,0.0,0.0,0.0,0.0,0.0,0.0,0.0,0.0,0.0,0.0,0.0,0.0,0.0,0.0,0.0,0.0,0.0,0.0,0.0,0.0,0.0,0.0,1.935,1.982,0.0,0.0,0.0,0.0,1.8945,1.9165,1.9452,1.974,1.9753,1.9887,2.018,2.014,2.0153,2.0153,1.994,1.98,1.98,1.9447,1.9307,1.9307,1.9249,1.8532,1.7396,1.7396,1.675,1.5494,1.3893,1.298,1.2438,1.1017,1.0177,0.9816,1.0147,1.0253,1.03,1.0582,1.0524,1.0407,1.056,1.044,1.0188,1.0282,1.0092,0.0,0.0,1.0366,1.0419,1.0635,1.0684,1.0692,1.0692,1.0692,1.0692,1.0692,1.0692,1.0639,0.0,1.0358,1.0294,0.9933,0.0,0.9791,0.9624,0.9567,0.9689,0.9851,0.9896,0.9977,1.0196,1.0224,1.0224,1.0212,0.9998,0.9896,0.9884,0.9721,0.9575,0.9567,0.9437,0.9259,0.9088,0.8864,0.0,0.0,0.0,0.0,0.0,0.0,0.0,0.0,0.0,0.0,0.0,0.0,0.0,0.0,0.0,0.0,0.0,0.0,0.0,0.0,0.0,0.0,0.0,0.0,0.0,0.0,0.0,0.0,1.9633,2.016,0.0,1.9813,1.9953,1.9993,1.972,1.9867,2.0054,2.0347,2.0361,2.0494,2.0788,2.0795,2.0795,2.0795,2.0321,2.008,2.0074,1.9593,1.9424,1.9424,1.9424,1.9127,1.8706,1.8706,1.8473,1.7923,1.6356,1.5068,1.3968,1.2335,1.1612,1.1387,1.0798,1.0586,1.0582,1.0692,1.0651,1.0611,1.0672,1.0534,1.0351,1.0416,1.0343,1.0266,1.0346,1.0513,1.0615,1.0676,1.0692,1.0692,1.0692,1.0692,1.0692,1.0692,1.0692,1.0676,1.0611,1.0509,1.0338,1.0262,1.0042,0.9864,0.9803,0.9697,0.9648,0.9709,0.9815,0.9868,0.9823,0.9916,0.9937,0.9827,0.9758,0.9721,0.9721,0.9661,0.9575,0.9458,0.9437,0.9265,0.8926,0.8852,0.8678,0.0,0.0,0.0,0.0,0.0,0.0,0.0,0.0,0.0,0.0,0.0,0.0,0.0,0.0,0.0,0.0,0.0,0.0,0.0,0.0,0.0,0.0,0.0,0.0,0.0,1.9655,1.9833,1.9933,2.0468,2.0668,2.0267,2.0353,2.0488,2.0394,2.0474,2.0615,2.0815,2.0822,2.0909,2.1102,2.1109,2.1109,2.1109,2.0528,2.0173,2.0167,1.9646,1.9424,1.9424,1.9424,1.9424,1.9424,1.9424,1.9424,1.9274,1.8002,1.694,1.5889,1.3868,1.3019,1.2901,1.2146,1.1823,1.1769,1.1391,1.1017,1.0692,1.0692,1.0615,1.0521,1.0521,1.0521,1.0521,1.0521,1.0603,1.0692,1.0692,1.0692,1.0692,1.0692,1.0692,1.0692,1.0692,1.0692,1.0692,1.0692,1.0599,1.0485,1.0363,1.014,0.9937,0.9815,0.9701,0.9579,0.9579,0.973,0.9754,0.9591,0.973,0.975,0.9587,0.9571,0.9563,0.9575,0.9514,0.9421,0.9404,0.9347,0.9125,0.8828,0.8763,0.8589,0.8292,0.0,0.0,0.0,0.0,0.0,0.0,0.0,0.0,0.0,0.0,0.0,0.0,0.0,0.0,0.0,0.0,0.0,0.0,0.0,0.0,0.0,0.0,0.0,2.1402,2.0433,1.9986,2.0214,2.0762,2.0889,2.0253,2.0775,2.0995,2.0715,2.0949,2.1109,2.1109,2.1109,2.1109,2.1109,2.1109,2.1109,2.1109,2.0528,2.0173,2.0167,1.9646,1.9424,1.9424,1.9424,1.9424,1.9424,1.9424,1.9424,1.9325,1.8731,1.849,1.8229,1.553,1.4347,1.4137,1.4137,1.4078,1.3922,1.2847,1.1719,1.0802,1.0802,1.0802,1.0802,1.0802,1.0802,1.0802,1.0747,1.0747,1.0747,1.0692,1.0692,1.0692,1.0692,1.0692,1.0692,1.0692,1.0692,1.0692,1.0692,1.0688,1.0574,1.0282,1.0216,1.0094,0.9689,0.9583,0.0,0.9579,0.9579,0.9579,0.9579,0.9579,0.9579,0.9579,0.9466,0.9437,0.9608,0.9295,0.9173,0.938,0.9177,0.9003,0.8816,0.8653,0.8522,0.8343,0.0,0.0,0.0,0.0,0.0,0.0,0.0,0.0,0.0,0.0,0.0,0.0,0.0,0.0,0.0,0.0,0.0,0.0,0.0,0.0,0.0,2.5145,2.4078,2.1566,2.1552,2.1533,2.0664,2.0882,2.1049,2.0882,2.1015,2.1076,2.0995,2.1062,2.1109,2.1109,2.1109,2.1109,2.1109,2.1109,2.1109,2.1109,2.0528,2.0173,2.0167,1.9646,1.9424,1.9424,1.9424,1.9424,1.9424,1.9424,1.9424,1.9325,1.8731,1.849,1.8326,1.6265,1.544,1.5322,1.44,1.4078,1.4078,1.376,1.3437,1.3166,1.3166,1.3166,1.3166,1.3166,1.3166,1.3009,1.2146,1.1932,1.1714,1.0907,1.0692,1.0692,1.0692,1.0692,1.0692,1.0692,1.0692,1.0692,1.0692,1.059,1.0473,1.0375,1.0249,1.0135,0.9847,0.9705,0.0,0.9579,0.9579,0.9579,0.9579,0.9579,0.9579,0.9579,0.9579,0.9518,0.9482,0.9384,0.919,0.8974,0.8922,0.8816,0.8641,0.8637,0.8886,0.0,0.0,0.0,0.0,0.0,0.0,0.0,0.0,0.0,0.0,0.0,0.0,0.0,0.0,0.0,0.0,0.0,0.0,0.0,0.0,0.0,0.0,2.7261,2.6418,2.4129,2.3712,2.3186,2.1879,2.1867,2.1727,2.1172,2.1109,2.1109,2.1109,2.1109,2.1109,2.1109,2.1109,2.1109,2.1109,2.1109,2.1109,2.1109,2.0528,2.0173,2.0167,1.9646,1.9424,1.9424,1.9424,1.9424,1.9424,1.9424,1.9424,1.9325,1.8731,1.849,0.0,0.0,0.0,0.0,0.0,1.5263,1.4835,1.4835,1.4508,1.4078,1.4078,1.4078,1.4078,1.4078,1.4078,1.397,1.3275,1.3112,1.2847,1.1714,1.1769,1.1987,1.1555,1.1769,1.2146,1.2146,1.1711,1.1333,1.1333,1.1131,0.0,1.0841,1.0427,0.9985,0.9803,0.9693,0.9579,0.9579,0.9579,0.9579,0.9579,0.9579,0.9579,0.9579,0.9559,0.0,0.0,0.0,0.9187,0.9255,0.9633,0.0,0.0,0.0,0.0,0.0,0.0,0.0,0.0,0.9464,0.9961,0.0,0.0,0.0,0.0,0.0,0.0,0.0,0.0,0.0,0.0,0.0,0.0,0.0,0.0,0.0,0.0,2.8889,2.8989,2.7903,2.6541,2.5053,2.335,2.3139,2.2584,2.1229,2.1136,2.1162,2.1162,2.1189,2.1196,2.1162,0.0,0.0,0.0,0.0,2.1109,2.1109,2.0528,2.0173,2.0167,1.9646,1.9424,1.9424,1.9424,1.9424,1.9424,1.9424,1.9424,1.9325,1.8731,1.845,1.8337,1.7796,1.7582,1.7582,1.7582,1.6935,1.6074,1.6074,0.0,0.0,1.4513,1.4513,1.4513,1.4513,1.4513,1.446,1.4347,1.4293,1.403,1.2901,1.3329,1.3863,1.2847,1.3383,1.4073,1.4046,1.3146,1.238,1.2356,1.2073,1.1765,1.162,1.074,1.0025,0.9945,0.9871,0.9821,0.9916,0.9969,0.9969,0.9969,0.0,0.0,0.9969,0.9717,0.9635,0.9735,0.9265,0.9347,1.0076,1.0932,1.1354,1.1284,1.1284,1.1381,1.1537,1.1839,1.2104,1.2249,1.101,1.1202,0.0,0.0,0.0,0.0,0.0,0.0,0.0,0.0,0.0,0.0,0.0,0.0,0.0,0.0,0.0,2.9199,2.9694,2.9968,2.9849,2.931,2.7639,2.3931,2.3256,2.2584,2.1229,2.1329,2.1534,2.1534,2.1683,2.171,2.1476,2.1534,2.1356,2.1116,2.1109,2.1109,2.1109,2.0528,2.0173,2.0167,0.0,0.0,1.9424,1.9424,1.9424,1.9424,1.9424,1.9424,1.9325,1.8731,1.8196,1.7742,1.7629,1.7582,1.7582,1.7582,1.7477,1.7259,1.7259,1.7094,1.6929,1.6929,1.6929,1.6929,1.6929,1.6929,0.0,1.5802,1.5535,1.5263,1.4083,1.3917,1.403,1.3809,1.3922,1.403,1.3842,1.3556,1.3367,1.3132,1.2918,1.2751,1.2704,1.1793,1.1316,1.1991,1.1419,1.1175,1.2004,1.2101,1.2101,1.2101,1.2101,1.2101,1.2101,1.1332,1.0771,1.0656,1.038,1.0627,1.1402,1.1612,1.1565,1.1327,1.1284,1.189,1.3088,1.3136,1.3881,1.5197,1.2911,1.2376,0.0,0.0,0.0,0.0,0.0,0.0,0.0,0.0,0.0,0.0,0.0,2.7946,2.8373,0.0,2.9463,3.0127,3.041,3.0557,3.0665,3.0333,2.8998,2.5896,2.4671,2.3512,2.2215,2.1817,2.1614,2.1614,2.1824,2.1857,2.1635,2.141,2.1263,2.1116,2.0969,2.0962,2.1109,2.0528,2.0173,2.0167,1.9646,1.9424,1.9424,1.9424,1.9424,1.9424,1.9424,1.9424,1.9325,1.8731,1.813,1.7582,1.7582,1.7582,1.7582,1.7582,1.7582,1.7582,1.7582,1.7582,1.7582,1.7582,1.7582,1.7582,1.7582,1.7582,1.747,1.6935,1.6776,1.6505,1.5316,1.5429,1.566,1.4947,1.5329,1.5747,1.5297,1.4802,1.4373,1.4071,1.3827,1.3656,1.3656,1.321,1.2823,1.27,1.229,1.2145,1.2635,1.2678,1.2678,1.2678,1.2678,1.2678,1.2678,1.2242,1.1902,1.1731,1.2025,1.2266,1.2447,1.2921,1.302,1.2711,1.282,1.3292,1.4178,1.446,1.5116,1.6074,1.4955,1.4631,0.0,0.0,0.0,0.0,0.0,0.0,0.0,2.7598,2.7832,2.8051,2.8437,2.9014,2.9697,2.9961,3.037,3.1025,3.1143,3.1143,3.1143,3.081,2.9957,2.8373,2.6682,2.5028,2.3476,2.2589,2.1934,2.1621,2.1824,2.1857,2.1635,2.1269,2.1109,2.1109,2.0828,2.0815,2.1109,2.0528,2.0173,2.0167,1.9646,1.9424,1.9424,1.9424,1.9424,1.9424,1.9424,1.9299,1.9216,1.8684,1.813,1.7582,1.7582,1.7582,1.7582,1.7582,1.7582,1.7582,1.7582,1.7582,1.7582,1.7582,1.7582,1.7582,1.7582,1.7582,1.7582,1.7582,1.7582,1.7364,1.6452,1.6935,1.7305,1.6118,1.6768,1.7422,1.6834,1.6048,1.5394,1.4967,1.4734,1.4586,1.4586,1.4586,1.4292,1.3409,1.3119,1.3071,1.3258,1.3312,1.3312,1.3312,1.3312,1.3258,1.3113,1.3065,1.3078,1.2972,1.3661,1.3897,1.3636,1.4283,1.4479,1.4173,1.4321,1.4591,1.4979,1.5511,1.5915,1.6264,1.6582,1.6676,2.5693,2.6016,2.6416,2.6836,2.6982,2.7314,0.0,2.8457,2.8437,2.9254,3.0019,3.0635,3.0723,3.1367,3.1964,3.2012,3.2021,3.2021,3.2021,3.143,3.0871,3.0622,2.8916,2.6752,2.4316,2.3929,2.3177,2.1699,2.1824,2.1857,2.1635,2.1269,2.1109,2.1109,2.0828,2.0815,2.1109,2.0528,2.0173,2.0167,1.9646,1.9424,1.9424,1.9424,1.9424,1.9424,1.9424,1.9072,1.8584,1.8517,1.813,1.7582,1.7582,1.7582,1.7582,1.7582,1.7582,1.7582,1.7582,1.7582,1.7582,1.7582,1.7582,1.7582,1.7582,1.7582,1.7582,1.7582,1.7582,1.7582,1.7424,1.7477,1.7575,1.7377,1.7503,1.7422,1.6834,1.6607,1.6341,1.5794,1.5662,1.5635,1.5635,1.5635,1.5588,1.5493,1.4675,1.4436,1.5343,1.5439,1.5439,1.5439,1.5439,1.5194,1.4513,1.4465,1.4549,1.4709,1.4804,1.5026,1.5414,1.5291,1.4936,1.437,1.4398,1.4633,1.5159,1.5694,1.6274,1.6819,1.7086,1.7005,2.5615,2.623,2.6797,2.6973,2.7393,2.7959,2.874,2.8975,2.9209,2.9814,3.0449,3.0967,3.1211,3.1543,3.1875,3.219,3.2229,3.208,3.1826,3.1501,3.1265,3.1265,3.0417,2.8898,2.6633,2.5185,2.4025,2.3078,2.2391,2.1857,2.1635,2.1269,2.1109,2.1109,2.0828,2.0815,2.1109,2.0528,2.0173,2.0167,1.9646,1.9424,1.9424,1.9424,1.9424,1.9417,1.9185,1.8871,1.8477,1.8303,1.7976,1.7582,1.7582,1.7582,1.7582,1.7582,1.7582,1.7582,1.7582,1.7582,1.7582,1.7582,1.7582,1.7582,1.7582,1.7582,1.7582,1.7582,1.7582,1.7582,1.7582,1.7582,1.7542,1.742,1.738,1.7219,1.658,1.6453,1.6326,1.5912,1.5784,1.5784,1.5784,1.5784,1.5784,1.5784,1.5445,1.5302,1.5737,1.5784,1.5784,1.5784,1.5784,1.573,1.5588,1.5588,1.5676,1.5913,1.5745,1.5654,1.5686,1.5402,1.5009,1.4573,1.4741,1.5029,1.5425,1.5958,1.6453,1.691,1.7179,1.7192,2.5596,2.6317,2.7012,2.7012,2.7656,2.8398,2.8818,2.916,2.9512,2.9932,3.0488,3.0986,3.1289,3.1631,3.1973,3.2295,3.2441,3.2402,3.209,3.1846,3.1699,3.1699,3.1353,3.0505,2.8925,2.65,2.4708,2.3948,2.2495,2.153,2.1387,2.1029,2.0902,2.0989,2.0782,2.0815,2.1109,2.0528,2.0173,2.0167,1.9646,1.9424,1.9424,1.9424,1.9424,1.9352,1.9052,1.8758,1.847,1.8115,1.7862,1.7582,1.7582,1.7582,1.7582,1.7582,1.7582,1.7582,1.7582,1.7582,1.7582,1.7582,1.7582,1.7582,1.7582,1.7582,1.7582,1.7582,1.7582,1.7582,1.7582,1.7582,1.7528,1.7373,1.7259,1.7058,1.65,1.6333,1.6186,1.5885,1.5784,1.5784,1.5784,1.5784,1.5784,1.5784,1.5784,1.5784,1.5784,1.5879,1.5927,1.5927,1.5974,1.6116,1.6414,1.6414,1.6548,1.677,1.6526,1.6213,1.5901,1.5502,1.5141,1.4831,1.4999,1.5204,1.5476,1.6082,1.6536,1.6778,1.7135,1.7279,2.5684,2.6317,2.7012,2.7012,2.7656,2.8398,2.8818,2.8926,2.9062,2.9502,3.0283,3.0898,3.0908,3.1924,3.2764,3.2773,3.3115,3.3379,3.3359,3.2666,3.2148,3.2148,3.1777,3.1298,3.0869,2.7939,2.5351,2.3736,2.1845,2.0715,2.0702,2.0421,2.0394,2.0681,2.0681,2.0815,2.1109,2.0528,2.0173,2.0167,1.9646,1.9424,1.9424,1.9424,1.9424,1.9352,1.9052,1.8758,1.847,1.8115,1.7862,1.7582,1.7582,1.7582,1.7582,1.7582,1.7582,1.7582,1.7582,1.7582,1.7582,1.7582,1.7582,1.7582,1.7582,1.7582,1.7582,1.7582,1.7582,1.7582,1.7582,1.7582,1.7582,1.7569,1.7407,1.7119,1.676,1.6473,1.6186,1.5885,1.5784,1.5784,1.5784,1.5784,1.5784,1.5784,1.5784,1.5784,1.5784,1.6028,1.6177,1.6177,1.6407,1.6683,1.6932,1.6979,1.7066,1.7286,1.7033,1.6711,1.6382,1.5857,1.5412,1.5097,1.509,1.5097,1.5104,1.5973,1.6419,1.6441,1.7033,1.7279,2.5693,2.6317,2.7012,2.7012,2.7656,2.8398,2.8818,2.8916,2.9043,2.9482,2.9805,3.0195,3.0781,3.124,3.1807,3.2656,3.291,3.3008,3.3008,3.2764,3.2373,3.1807,3.1611,3.1348,3.0928,2.9227,2.7303,2.5346,2.3585,2.213,2.1025,2.0869,2.0862,2.0962,2.0962,2.0915,2.0822,2.0428,2.0134,1.994,1.9553,1.9424,1.9424,1.9424,1.9259,1.9058,1.8764,1.847,1.8176,1.7862,1.7675,1.7582,1.7582,1.7582,1.7582,1.7582,1.7582,1.7582,1.7582,1.7582,1.7582,1.7582,1.7582,1.7582,1.7582,1.7582,1.7582,1.7582,1.7582,1.7582,1.7582,1.7582,1.7582,1.7582,1.7208,1.6827,1.6727,1.6319,1.5945,1.5798,1.5927,1.6076,1.6076,1.6211,1.6346,1.6346,1.617,1.6076,1.6076,1.6312,1.6447,1.6447,1.6541,1.673,1.6979,1.6979,1.7113,1.7286,1.6828,1.6529,1.6419,1.5784,1.5414,1.5305,1.5298,1.5298,1.5305,1.5819,1.6067,1.6082,1.6718,1.7011,2.5693,2.6317,2.7012,2.7012,2.7656,2.8359,2.8633,2.8701,2.8769,2.9053,2.9228,2.956,3.0283,3.0674,3.126,3.2383,3.2695,3.2842,3.2998,3.2764,3.2373,3.1816,3.1484,3.1182,3.0918,3.0208,2.8946,2.697,2.4729,2.297,2.1867,2.1262,2.0955,2.0955,2.0955,2.0862,2.0681,2.0281,1.9933,1.9639,1.9459,1.9424,1.9424,1.9424,1.9205,1.8911,1.8617,1.8323,1.7969,1.7709,1.7582,1.7582,1.7582,1.7582,1.7582,1.7582,1.7582,1.7582,1.7582,1.7582,1.7582,1.7582,1.7582,1.7582,1.7582,1.7582,1.7582,1.7582,1.7582,1.7582,1.7582,1.7582,1.7555,1.7507,1.7163,1.678,1.6623,1.6318,1.6069,1.5974,1.617,1.6359,1.6359,1.6494,1.6588,1.6588,1.6548,1.6461,1.6359,1.6595,1.673,1.673,1.6824,1.6918,1.7113,1.7113,1.7102,1.7165,1.6769,1.6485,1.6213,1.5818,1.5506,1.5389,1.5389,1.5389,1.5389,1.576,1.5913,1.5928,1.644,1.6793,2.5693,2.6317,2.7012,2.7012,2.7656,2.8291,2.8291,2.8291,2.8291,2.8291,2.8613,2.9023,2.9453,3.0244,3.1113,3.1992,3.249,3.292,3.3359,3.2715,3.2187,3.2229,3.1435,3.0918,3.0889,3.0889,3.0265,2.8664,2.5318,2.3278,2.3103,2.1663,2.0812,2.0675,2.0675,2.0661,2.0635,2.006,1.9639,1.9424,1.9424,1.9424,1.9424,1.9352,1.9185,1.8885,1.8597,1.8297,1.7949,1.7702,1.7582,1.7582,1.7582,1.7582,1.7582,1.7582,1.7582,1.7582,1.7582,1.7582,1.7582,1.7582,1.7582,1.7582,1.7582,1.7582,1.7582,1.7582,1.7582,1.7582,1.7582,1.7582,1.7508,1.7266,1.713,1.6939,1.6437,1.6471,1.6541,1.6272,1.6447,1.6629,1.6636,1.6629,1.6629,1.6629,1.6831,1.6932,1.6636,1.6831,1.7026,1.7026,1.72,1.7279,1.7279,1.7311,1.7172,1.6917,1.6873,1.6543,1.5943,1.5899,1.5703,1.5389,1.5389,1.5389,1.5389,1.5695,1.5891,1.5899,1.6206,1.6551,2.5693,2.6317,2.7012,2.7012,2.7656,2.8291,2.8291,2.8291,2.8291,2.8291,2.8379,2.8584,2.9004,2.9531,3.0293,3.1484,3.2051,3.2588,3.332,3.2969,3.2519,3.2268,3.1689,3.123,3.0918,3.0889,3.0704,3.0274,2.8057,2.5817,2.357,2.2835,2.1935,2.0743,2.0675,2.0468,2.0027,1.9659,1.9497,1.9424,1.9424,1.9424,1.9417,1.9138,1.8878,1.8584,1.829,1.7983,1.7695,1.7615,1.7582,1.7582,1.7582,1.7582,1.7582,1.7582,1.7582,1.7582,1.7582,1.7582,1.7582,1.7582,1.7582,1.7582,1.7582,1.7582,1.7582,1.7582,1.7582,1.7582,1.7582,1.7582,1.7508,1.7266,1.713,1.6989,1.6689,1.6621,1.6588,1.6494,1.669,1.6972,1.7099,1.7099,1.7099,1.7099,1.7192,1.7153,1.6925,1.7106,1.7239,1.7239,1.7286,1.7279,1.7279,1.7113,1.6991,1.6903,1.6411,1.6082,1.5921,1.5679,1.5469,1.5389,1.5389,1.5389,1.5389,1.5469,1.5513,1.5562,1.5884,1.6074,2.6249,2.6787,2.7305,2.7305,2.7803,2.8242,2.8057,2.8018,2.8018,2.8018,2.8018,2.8203,2.8809,2.9277,3.0,3.1309,3.1885,3.2461,3.3301,3.29,3.2432,3.2258,3.1435,3.085,3.0605,3.042,3.0381,3.0576,2.9074,2.722,2.4962,2.3876,2.2565,2.0991,2.0609,2.0201,1.9619,1.9511,1.9424,1.9424,1.9424,1.9299,1.9165,1.8998,1.8691,1.829,0.0,1.7869,1.7582,1.7582,1.7582,1.7582,1.7582,1.7582,1.7582,1.7582,1.7582,1.7582,1.7582,1.7582,1.7582,1.7582,1.7582,1.7582,1.7582,1.7582,1.7582,1.7582,1.7582,1.7582,1.7582,1.7694,1.7725,1.7434,1.739,1.7336,1.6981,1.6901,1.6911,1.6911,1.7012,1.7153,1.7279,1.7279,1.7279,1.7279,1.7279,1.7239,1.7153,1.7239,1.7279,1.7279,1.7279,1.7274,1.7128,1.7005,1.6778,1.6462,1.6235,1.5994,1.5673,1.5622,1.5535,1.5389,1.5389,1.5389,1.5389,1.5389,1.5389,1.5389,1.5571,1.5782,2.7012,2.7334,2.7718,2.7718,2.7978,2.8184,2.7816,2.7718,2.7699,2.764,2.7679,2.7891,2.8613,2.915,2.9893,3.1143,3.1709,3.2314,3.3213,3.2607,3.208,3.208,3.0967,3.0176,3.0117,2.9834,2.9805,3.0166,2.9278,2.8119,2.6841,2.4862,2.2918,2.1053,2.0395,1.9873,1.943,1.9424,1.9424,1.9424,1.9424,1.9212,1.8925,1.8885,1.8564,1.7989,1.7949,0.0,1.7582,1.7582,1.7582,1.7582,1.7582,1.7582,1.7582,1.7582,1.7582,1.7582,1.7582,1.7582,1.7582,1.7582,1.7582,1.7582,1.7582,1.7582,1.7582,1.7582,1.7582,1.7635,1.7635,1.7852,1.7941,1.7699,1.7801,1.7782,1.7266,1.7227,1.7279,1.7279,1.7279,1.7279,1.7279,1.7279,1.7279,1.7279,1.7279,1.7279,1.7279,1.7279,1.7279,1.7279,1.7279,1.7201,1.6925,1.6859,1.6587,1.595,1.6118,1.5994,1.5411,1.5701,1.5716,1.5389,1.5389,1.5389,1.5389,1.5389,1.5389,1.5389,1.5389,1.5577,2.7012,2.7334,2.7718,2.7718,2.7978,2.8184,2.7816,2.7718,2.7568,2.7207,2.7412,2.7767,2.7851,2.8516,2.9336,3.0273,3.081,3.1533,3.2734,3.2168,3.1631,3.1631,3.0781,3.0059,2.9717,2.9932,3.0117,3.0185,3.0383,2.9776,2.8179,2.6021,2.3367,2.0146,1.9725,1.9466,1.9424,1.9424,1.9424,1.9424,1.9424,1.9212,1.8918,1.8677,1.8377,1.7975,1.7776,0.0,1.7582,1.7582,1.7582,1.7582,1.7582,1.7582,1.7582,1.7582,1.7582,1.7582,1.7582,1.7582,1.7582,1.7582,1.7582,1.7582,1.7582,1.7582,1.7582,1.7582,1.7582,1.7635,1.7852,1.7964,1.7994,1.7942,1.7895,1.7782,1.7412,1.733,1.7279,1.7279,1.7279,1.7279,1.7279,1.7279,1.7279,1.7279,1.7279,1.7279,1.7279,1.7279,1.7279,1.7279,1.7279,1.7201,1.6925,1.6653,1.6345,1.5943,1.5673,1.5498,1.5389,1.544,1.5447,1.5389,1.5389,1.5389,1.5389,1.5389,1.5389,1.5389,1.5389,1.5418,2.7676,2.7832,2.7988,2.7988,2.8144,2.8125,2.7471,2.7334,2.7266,2.706,2.7178,2.7461,2.791,2.8496,2.9131,2.9766,3.0244,3.0908,3.1973,3.1592,3.1269,3.1494,3.0732,3.0117,2.9912,2.9883,2.9961,3.0176,3.04,2.9967,2.8724,2.5787,2.3129,2.1005,1.9966,1.9424,1.9424,1.9424,1.9424,1.9424,1.9212,1.8978,1.8691,1.839,1.8096,1.7796,1.7649,0.0,1.7582,1.7582,1.7582,1.7582,1.7582,1.7582,1.7582,1.7582,1.7582,1.7635,1.7747,1.7747,1.7635,1.7747,1.7694,1.7582,1.7582,1.7582,1.7582,1.7582,1.7687,1.7852,1.7964,1.8233,1.8461,1.8462,1.8261,1.7978,1.7438,1.7301,1.7279,1.7279,1.7279,1.7279,1.7279,1.7279,1.7279,1.7279,1.7279,1.7279,1.7279,1.7279,1.7279,1.7279,1.7279,1.7201,1.6925,1.6602,1.6243,1.5935,1.5606,1.5389,1.5389,1.5389,1.5389,1.5389,1.5389,1.5389,1.5389,1.5389,1.5389,1.5389,1.5389,1.5389,2.8291,2.8291,2.8291,2.8291,2.8291,2.8066,2.7217,2.7012,2.6992,2.6904,2.6953,2.7246,2.8018,2.8506,2.8926,2.9355,2.9785,3.0371,3.126,3.1103,3.1016,3.1348,3.0684,3.0166,3.0068,2.9844,2.9844,3.0176,3.0293,2.9815,2.8595,2.5477,2.3157,2.1974,2.0324,1.9482,1.9424,1.9424,1.9424,1.9424,1.9065,1.8771,1.8477,1.8129,1.7876,1.7582,1.7582,0.0,0.0,1.7582,1.7582,1.7582,1.7582,1.7582,1.7582,1.7582,1.7635,1.7747,1.7911,1.7905,1.7793,1.801,1.7852,1.7582,1.7582,1.7635,1.7694,1.7694,1.7905,1.8122,1.8174,1.8555,1.8893,1.8801,1.8528,1.8123,1.7425,1.7279,1.7279,1.7279,1.7279,1.7279,1.7279,1.7279,1.7279,1.7279,1.7279,1.7279,1.7279,1.7279,1.7279,1.7279,1.7279,1.7201,1.6925,1.6602,1.6243,1.5935,1.5606,1.5389,1.5389,1.5389,1.5389,1.5389,1.5389,1.5389,1.5389,1.5389,1.5389,1.5389,1.5389,1.5389,2.8291,2.8291,2.8291,2.8291,2.8291,2.8066,2.7217,2.7012,2.6904,2.6523,2.6748,2.7158,2.7637,2.8066,2.8486,2.8906,2.9346,2.9941,3.082,3.0918,3.0908,3.0947,3.0508,3.0049,2.9668,2.9941,3.0156,3.0195,3.0586,2.9833,2.7561,2.6114,2.4244,2.1702,2.0443,1.9649,1.9424,1.9424,1.9424,1.9424,1.9065,1.8771,1.8477,1.8129,1.7876,1.7582,1.7582,0.0,0.0,1.7582,1.7582,1.7582,1.7582,1.7582,1.7582,1.7582,1.7747,1.7964,1.7964,1.8115,1.8318,1.837,1.8003,1.7582,1.7582,1.7747,1.7964,1.7964,1.8167,1.8429,1.8757,1.8869,1.883,1.844,1.835,1.8123,1.7425,1.7279,1.7279,1.7279,1.7279,1.7279,1.7279,1.7279,1.7279,1.7279,1.7279,1.7279,1.7279,1.7279,1.7279,1.7279,1.7279,1.7201,1.6925,1.6602,1.6243,1.5935,1.5606,1.5389,1.5389,1.5389,1.5389,1.5389,1.5389,1.5389,1.5389,1.5389,1.5389,1.5389,1.5389,1.5389,2.8223,2.8291,2.8291,2.8291,2.8291,2.8066,2.7217,2.7217,2.7285,2.6855,2.7109,2.7539,2.7969,2.8174,2.835,2.8516,2.8691,2.9014,2.9619,2.9932,3.0185,3.0439,3.0557,3.0547,3.0381,3.0518,3.0498,3.0215,3.0371,2.985,2.8358,2.7223,2.5896,2.4339,2.2274,2.1052,2.0759,1.9982,1.9445,1.9098,1.8804,1.851,1.8217,1.7903,1.7702,1.7582,1.7582,0.0,0.0,1.7582,1.7582,1.7582,1.7582,1.7694,1.7852,1.7852,1.801,1.8272,1.8496,1.8489,1.8422,1.8646,1.8429,1.8055,1.8055,1.816,1.822,1.822,1.8489,1.8757,1.8869,1.8881,1.8767,1.8408,1.8152,1.7882,1.7381,1.7279,1.7279,1.7279,1.7279,1.7279,1.7279,1.7279,1.7279,1.7279,1.7279,1.7279,1.7279,1.7279,1.7279,1.7279,1.7279,1.7274,1.715,1.6888,1.6573,1.6206,1.5891,1.5593,1.5396,1.5389,1.5389,1.5389,1.5389,1.5389,1.5389,1.5389,1.5389,1.5389,1.5389,1.5389,2.8027,2.8193,2.8291,2.8291,2.8291,2.8066,2.7217,2.7353,2.7591,2.7109,2.7363,2.7806,2.8057,2.8203,2.8252,2.8125,2.831,2.8584,2.8877,2.9287,2.9734,2.9971,3.0293,3.0547,3.0674,3.0684,3.0547,3.0215,3.0078,2.9687,2.8955,2.8172,2.7261,2.6118,2.3567,2.2179,2.2056,2.0452,1.9585,1.9382,1.8657,1.825,1.7982,1.7722,1.7582,1.7582,1.7582,0.0,0.0,1.7582,1.7582,1.7635,1.7694,1.7852,1.8016,1.8069,1.8272,1.8586,1.8817,1.881,1.8691,1.8914,1.8855,1.8691,1.8691,1.8586,1.8534,1.8534,1.8757,1.9026,1.9026,1.8935,1.8708,1.8379,1.8057,1.7728,1.7352,1.7279,1.7279,1.7279,1.7279,1.7279,1.7279,1.7279,1.7279,1.7279,1.7279,1.7279,1.7279,1.7279,1.7279,1.7279,1.7279,1.7279,1.7279,1.7033,1.6763,1.6433,1.6082,1.5767,1.5396,1.5389,1.5389,1.5389,1.5389,1.5389,1.5389,1.5389,1.5389,1.5389,1.5389,1.5389,2.7728,2.7978,2.8291,2.8291,2.8291,2.8066,2.7217,2.7353,2.7591,2.7109,2.7363,2.7718,2.7728,2.8018,2.8154,2.7796,2.8369,2.8916,2.8916,2.9287,2.9626,2.9636,2.9636,2.9746,3.0166,3.0205,3.0205,3.0195,2.9814,0.0,2.8945,2.8861,2.8048,2.6164,2.3791,2.2736,2.3193,2.0684,1.9759,2.0451,1.8822,1.7995,1.7982,1.7722,1.7582,1.7582,0.0,0.0,0.0,1.7582,1.7582,1.7635,1.7911,1.8016,1.8016,1.8325,1.8593,1.8921,1.8921,1.9071,1.9272,1.9272,1.9272,1.9272,1.9272,1.913,1.8869,1.8869,1.9071,1.9279,1.9279,1.903,1.8708,1.8379,1.8057,1.7728,1.7352,1.7279,1.7279,1.7279,1.7279,1.7279,1.7279,1.7279,1.7279,1.7279,1.7279,1.7279,1.7279,1.7279,1.7279,1.7279,1.7279,1.7279,1.7279,1.7033,1.6763,1.6433,1.6082,1.5767,1.5396,1.5389,1.5389,1.5389,1.5389,1.5389,1.5389,1.5389,1.5389,1.5389,1.5389,1.5389,2.7282,2.7816,2.7939,2.8223,2.8076,2.7715,2.7148,2.7353,2.7591,2.7109,2.7588,2.8096,2.8096,2.8203,2.8252,2.8115,2.831,2.8496,2.8496,2.8857,2.9121,2.9121,2.9639,2.9941,2.9785,3.0029,2.9951,2.9365,2.9199,2.8945,2.8516,2.8496,2.8203,2.7618,2.582,2.4795,2.4692,2.283,2.141,2.0484,1.9755,1.8925,1.8001,1.7734,1.7582,1.7582,0.0,0.0,0.0,1.7687,1.7845,1.816,1.8069,1.8233,1.8608,1.8705,1.8914,1.9175,1.9175,1.9227,1.9279,1.9279,1.9279,1.9279,1.9279,1.9227,1.9175,1.9175,1.9227,1.9279,1.9279,1.8869,1.843,1.8328,1.7882,1.741,1.7301,1.7279,1.7279,1.7279,1.7279,1.7279,1.7279,1.7279,1.7279,1.7279,1.7279,1.7279,1.7279,1.7279,1.7279,1.7279,1.7279,1.7279,1.7279,1.7238,1.6945,1.6448,1.6323,1.5987,1.5411,1.5389,1.5389,1.5389,1.5389,1.5389,1.5389,1.5389,1.5389,1.5389,1.5389,1.5389,2.5858,2.6914,2.749,2.7744,2.7607,2.7305,2.6875,2.7119,2.7344,2.707,2.7568,2.8057,2.8057,2.8184,2.8242,2.8086,2.8193,2.8291,2.8291,2.8525,2.8682,2.8682,2.9297,2.9609,2.9346,2.956,2.9492,2.8955,2.8769,2.8564,2.8301,2.8144,2.8057,2.8057,2.6664,2.5881,2.5767,2.3835,2.2264,2.1075,2.0405,1.932,1.7964,1.7852,1.7694,1.7635,0.0,0.0,0.0,1.7898,1.8055,1.8272,1.8331,1.8555,1.8921,1.9026,1.9175,1.9279,1.9279,1.9279,1.9279,1.9279,1.9279,1.9302,1.9133,1.9177,1.9279,1.9279,1.9279,1.9279,1.9279,1.8884,1.8482,1.8482,1.7984,1.7508,1.7508,1.7366,1.7279,1.7279,1.7279,1.7279,1.7279,1.7279,1.7279,1.7279,1.7279,1.7279,1.7279,1.7279,1.7279,1.7279,1.7279,1.7279,1.7279,1.7279,1.7106,1.6631,1.6485,1.614,1.5593,1.5571,1.5571,1.5571,1.5571,1.5571,1.5571,1.5447,1.5389,1.5389,1.5389,1.5389,0.0,2.5581,2.6973,2.7012,2.6992,2.6865,2.6484,2.6689,0.0,2.6973,2.7314,2.7669,2.7669,2.7939,2.8076,2.7738,2.7969,2.8252,2.8252,2.8271,2.8291,2.8291,2.8662,2.8906,2.8877,2.8896,2.8906,2.8877,2.8516,2.8281,2.8252,2.7881,2.7689,2.763,2.6501,2.6074,2.6396,2.4023,2.2639,2.224,2.0904,1.9531,1.8174,1.8174,1.7957,0.0,0.0,0.0,0.0,1.8213,1.8272,1.8128,1.8712,1.8921,1.8974,1.9227,1.9279,1.9279,1.9279,1.9279,1.9279,1.9279,1.9257,1.9184,1.8884,1.9001,1.9242,1.9242,1.9242,1.925,1.9272,1.903,1.8782,1.876,1.8277,1.7808,1.7786,1.7545,1.7279,1.7279,1.7279,1.7279,1.7279,1.7279,1.7279,1.7279,1.7279,1.7279,1.7279,1.7279,1.7279,1.7279,1.7279,1.7279,1.7279,1.7279,1.7194,1.6917,1.6617,1.6309,1.5965,1.595,1.595,1.595,1.5928,1.5913,1.5999,1.5668,1.5506,1.559,1.559,1.559,2.3191,0.0,2.6611,2.6934,2.6777,2.6514,0.0,2.6465,2.6533,2.6533,2.6875,2.7168,2.7168,2.7246,2.7285,2.7187,2.7529,2.7812,2.7812,2.8086,2.8291,2.8291,2.8662,2.8789,2.8467,2.873,2.8789,2.8467,2.835,2.8154,2.7885,2.7767,2.7415,2.6709,2.6427,2.633,2.6387,2.5443,2.4505,2.3642,2.3076,2.1819,1.9916,1.9642,1.9072,0.0,0.0,0.0,1.86,1.8429,1.8639,1.9011,1.8921,1.9026,1.9227,1.9279,1.9279,1.9279,1.9279,1.9279,1.9279,1.9279,1.9103,1.8891,1.8811,1.884,1.8906,1.8906,1.8906,1.8957,1.9213,1.903,1.8723,1.8474,1.8108,1.7743,1.7447,1.7384,1.7279,1.7279,1.7279,1.7279,1.7279,1.7279,1.7279,1.7279,1.7279,1.7279,1.7279,1.7279,1.7279,1.7279,1.7279,1.7279,1.7279,1.7279,1.7194,1.6917,1.6829,1.6639,1.6316,1.6265,1.6265,1.6265,1.6038,1.6242,1.6892,1.655,1.6747,1.7399,1.7399,1.7399,2.3592,2.5185,2.6445,2.667,2.6699,2.6631,2.6435,2.6387,2.6387,2.6387,2.6572,2.6787,2.6982,2.7012,2.708,2.7285,2.751,2.7787,2.793,2.8144,2.8291,2.8291,2.8496,2.8545,2.831,2.8496,2.8535,2.831,2.8115,2.791,2.7728,2.7346,2.6865,2.6406,2.6191,2.6094,2.6094,2.581,2.5177,2.4088,2.3939,2.2685,2.0483,2.0313,1.9539,0.0,0.0,0.0,1.8698,1.875,1.8907,1.9123,1.9071,1.9175,1.9279,1.9279,1.9279,1.9279,1.9279,1.9279,1.925,1.9103,1.8935,1.873,1.843,1.8343,1.8372,1.8525,1.8562,1.8606,1.8782,1.8701,1.8518,1.8343,1.8057,1.7765,1.7589,1.7388,1.7279,1.7279,1.7279,1.7279,1.7279,1.7279,1.7279,1.7279,1.7279,1.7279,1.7279,1.7279,1.7279,1.7279,1.7279,1.7279,1.7279,1.7279,1.7252,1.7084,1.6983,1.6822,1.6646,1.6639,1.6743,1.6976,1.7227,1.7437,1.7557,1.736,1.7553,1.7997,1.7997,1.7997,2.4106,2.5492,2.6387,2.6387,2.6611,2.6748,2.6455,2.6338,2.6289,2.6289,2.6289,2.6396,2.6758,2.6875,2.7041,2.7464,2.763,2.7812,2.8232,2.8291,2.8291,2.8291,2.8291,2.8291,2.8291,2.8291,2.8262,2.8203,2.7861,2.766,2.7532,2.6787,2.6357,2.6299,2.5937,2.5693,2.5693,2.5693,2.5226,2.4344,2.4344,2.3094,2.0834,2.0987,2.0115,1.8586,0.0,0.0,1.8579,1.9116,1.9175,1.8974,1.9227,1.9279,1.9279,1.9279,1.9279,1.9279,1.9279,1.9294,1.9155,1.8877,1.8723,1.854,1.7984,1.7779,1.7801,1.8072,1.8225,1.8299,1.8299,1.8343,1.835,1.8255,1.8021,1.7801,1.775,1.7523,1.7279,1.7279,1.7279,1.7279,1.7279,1.7279,1.7279,1.7279,1.7279,1.7279,1.7279,1.7279,1.7279,1.7279,1.7279,1.7279,1.7279,1.7279,1.7279,1.7279,1.7077,1.6969,1.6969,1.7106,1.7424,1.7878,1.8764,1.8946,1.8371,1.8319,1.8339,1.8399,1.8399,1.8399,2.3185,2.4917,2.6387,2.6387,2.6162,2.6016,2.6318,2.6103,2.5791,2.5791,2.5791,2.581,2.5879,2.624,2.6514,2.6572,2.7197,2.7812,2.8232,2.8291,2.8291,2.8291,2.8291,2.8291,2.8291,2.8291,2.8144,2.7845,2.7748,2.7395,2.6621,2.6455,2.6221,2.5801,2.5723,2.5693,2.5693,2.5693,2.5635,2.543,2.543,2.4313,2.224,2.3135,2.1929,1.922,0.0,2.0027,1.9168,1.9272,1.9279,1.9227,1.9279,1.9279,1.9279,1.9279,1.9279,1.9279,1.9279,1.9096,1.8855,1.8803,1.8416,1.7947,1.7845,1.7618,1.7366,1.7465,1.7874,1.8299,1.8299,1.8511,1.8577,1.8021,1.7852,1.7735,1.7465,1.7315,1.7279,1.7279,1.7279,1.7279,1.7279,1.7279,1.7279,1.7279,1.7279,1.7279,1.7279,1.7279,1.7279,1.7279,1.7279,1.7279,1.7279,1.7279,1.7279,1.7279,1.7282,1.726,1.726,1.8072,1.8555,1.8629,1.9318,1.9817,2.0018,1.9757,1.9823,2.0206,2.0206,2.0206,2.3035,2.465,2.6094,2.6328,2.6406,2.6416,2.6396,2.623,2.6025,2.5732,2.5693,2.5693,2.5693,2.6094,2.6543,2.7002,2.7598,2.8066,2.8262,2.8291,2.8291,2.8291,2.8291,2.8203,2.7978,2.7959,2.7773,2.7344,2.7109,2.6807,2.6406,2.6162,2.5947,2.5693,2.5693,2.5693,2.5693,2.5693,2.5693,2.5693,2.5693,2.4864,2.3384,2.389,2.2634,2.0181,0.0,2.0277,1.9279,1.9279,1.9279,1.9279,1.9279,1.9279,1.9279,1.9279,1.9279,1.925,1.9074,1.8913,1.873,1.8379,1.8057,1.7786,1.7604,1.7395,1.7279,1.7279,1.7545,1.7772,1.7772,1.7889,1.7925,1.7625,1.7552,1.7508,1.7315,1.7279,1.7279,1.7279,1.7738,1.8102,1.8102,1.8102,1.8288,1.878,1.8419,1.8288,1.878,1.8872,1.8872,1.8872,1.8872,1.8872,1.8872,1.8872,1.8419,1.7372,1.7831,1.8102,1.8102,1.9559,2.0236,2.0038,2.0634,2.088,2.081,2.0465,2.0398,2.0605,2.0605,2.0605,2.2626,2.4106,2.5459,2.6103,2.6484,2.6689,2.6562,2.6455,2.6299,2.5957,2.584,2.581,2.5703,2.6172,2.6816,2.7676,2.8086,2.8291,2.8291,2.8291,2.8262,2.8154,2.8144,2.7978,2.7559,2.7562,2.7334,2.6904,2.6572,2.6338,2.624,2.5918,2.5693,2.5693,2.5693,2.5693,2.5693,2.5693,2.5693,2.5693,2.5693,2.5118,2.4088,2.4344,2.3194,2.0936,2.1191,2.0534,1.9279,1.9279,1.9279,1.9279,1.9279,1.9279,1.9279,1.9279,1.9228,1.9125,1.8877,1.8686,1.8474,1.7977,1.7765,1.7655,1.7359,1.7279,1.7279,1.7279,1.7279,1.7279,1.7279,1.7337,1.7468,1.7621,1.7652,1.7692,1.7917,1.7963,1.7963,1.7963,1.8603,1.9109,1.9109,1.9109,1.9376,2.0096,1.9604,1.9376,2.0096,2.0187,2.0187,2.0187,2.0187,2.0187,2.0187,2.0187,1.955,1.8056,1.8696,1.9109,1.9109,2.0782,2.1548,2.1255,2.1859,2.1963,2.1492,2.1084,2.086,2.0723,2.0654,2.0605,2.1499,2.2968,2.4461,2.5469,2.5762,2.5976,2.6797,2.667,2.6377,2.6348,2.6338,2.6221,2.5762,2.6416,2.7246,2.8105,2.8271,2.8291,2.8291,2.8291,2.8144,2.7806,2.7767,2.7539,2.7109,2.706,2.6885,2.6465,2.6406,2.6211,2.5762,2.5703,2.5693,2.5693,2.5693,2.5693,2.5693,2.5693,2.5693,2.5693,2.5693,2.5118,2.4137,2.5118,2.3859,2.0987,2.1937,2.1234,1.9279,1.9279,1.9279,1.9279,1.9279,1.9279,1.9279,1.9279,1.9081,1.8818,1.8796,1.8394,1.7874,1.783,1.7611,1.7315,1.7286,1.7279,1.7279,1.7279,1.7279,1.7279,1.7279,1.7552,1.7937,1.8543,1.8696,1.8926,1.9778,2.0005,2.0005,2.0005,2.0051,2.0096,2.0096,2.0096,2.0096,2.0187,2.0141,2.0096,2.0187,2.0187,2.0187,2.0187,2.0187,2.0187,2.0187,2.0187,2.0141,2.0005,2.0051,2.0096,2.0096,2.115,2.1686,2.1649,2.2566,2.2799,2.2422,2.2002,2.1582,2.1142,2.0762,2.0605,2.1397,2.2868,2.4344,2.543,2.5693,2.5771,2.6093,2.6044,2.5986,2.5986,2.5986,2.6016,2.6123,2.6406,2.6816,2.7402,2.75,2.75,2.75,2.75,2.7441,2.7275,2.7266,2.71,2.667,2.6631,2.6445,2.6016,2.5986,2.5908,2.5693,2.5693,2.5693,2.5693,2.5693,2.5693,2.5693,2.5693,2.5693,2.5693,2.5693,2.5479,2.5118,2.5528,2.4667,2.2885,2.2584,2.1633,2.0233,1.9576,1.9279,1.9279,1.9279,1.9279,1.925,1.9052,1.8891,1.873,1.8321,1.8021,1.7786,1.7582,1.7381,1.7279,1.7279,1.7279,1.7279,1.7279,1.7279,1.7279,1.7279,1.7882,1.8497,1.8727,1.9247,1.9786,2.0096,2.0187,2.0187,2.0187,2.0692,2.1141,2.1141,2.1141,2.1329,2.1908,2.1507,2.1329,2.1917,2.2006,2.2006,2.2006,2.2006,2.2006,2.2006,2.2006,2.2006,2.2006,2.1463,2.1141,2.1141,2.205,2.2555,2.2555,2.2655,2.2539,2.2119,2.1689,2.125,2.081,2.0683,2.0605,2.1296,2.2617,2.3949,2.5333,2.5693,2.5693,2.5693,2.5791,2.5947,2.5947,2.5781,2.582,2.6309,2.6387,2.6523,2.6943,2.7012,2.7012,2.7012,2.7012,2.6963,2.6836,2.6816,2.665,2.6221,2.6182,2.6055,2.5713,2.5693,2.5693,2.5693,2.5693,2.5693,2.5693,2.5693,2.5693,2.5693,2.5693,2.5693,2.5693,2.5693,2.5693,2.5693,2.5693,2.5118,2.4038,2.2994,2.1887,2.0834,1.9732,1.9279,1.9279,1.9279,1.9279,1.9235,1.8913,1.8723,1.8555,1.8006,1.7743,1.7625,1.7352,1.7279,1.7279,1.7279,1.7279,1.7372,1.7692,1.7785,1.7831,1.8149,1.8511,1.8926,1.9559,2.0195,2.0737,2.1051,2.1141,2.1141,2.1141,2.1686,2.2148,2.2148,2.2148,2.2369,2.3003,2.2555,2.2369,2.3003,2.3091,2.3091,2.3091,2.3091,2.3091,2.3091,2.3091,2.3091,2.3091,2.2511,2.2148,2.2148,2.2775,2.3091,2.3091,2.2808,2.2568,2.2275,2.1719,2.1279,2.1016,2.0732,2.0605,2.1092,2.2064,2.2994,2.5128,2.5684,2.5693,2.5693,2.6074,2.6387,2.6387,2.6035,2.582,2.6299,2.6387,2.6514,2.6934,2.7002,2.7002,2.7002,2.7002,2.6846,2.6435,2.6387,2.6211,2.5732,2.5693,2.5693,2.5693,2.5693,2.5693,2.5693,2.5693,2.5693,2.5693,2.5693,2.5693,2.5693,2.5693,2.5693,2.5693,2.5693,2.5693,2.5693,2.5693,2.5118,2.4038,2.2994,2.1887,2.0834,1.9732,1.9279,1.9279,1.9324,1.9324,1.9228,1.8906,1.8577,1.8247,1.7925,1.7604,1.7279,1.7279,1.7279,1.7279,1.7279,1.7333,1.7512,1.8519,1.8796,1.9018,1.9968,1.9513,1.9285,2.1239,2.1695,2.1971,2.2916,2.3091,2.3091,2.3091,2.3091,2.3091,2.3091,2.3091,2.3091,2.3091,2.3091,2.3091,2.3091,2.3091,2.3091,2.3091,2.3091,2.3091,2.3091,2.3091,2.3091,2.3091,2.3091,2.3091,2.3091,2.3091,2.3091,2.3091,2.3091,2.3091,2.3081,2.2295,2.1885,2.1855,2.1016,2.0605,2.0074,2.078,2.1612,2.3974,2.455,2.4756,2.5538,2.5791,2.5937,2.5937,2.5781,2.5732,2.5859,2.5937,2.5977,2.6044,2.6064,2.6064,2.6064,2.6064,2.6015,2.5947,2.5937,2.583,2.5703,2.5693,2.5693,2.5693,2.5693,2.5693,2.5693,2.5693,2.5693,2.5693,2.5693,2.5693,2.5693,2.5693,2.5693,2.5693,2.5693,2.5693,2.5693,2.5693,2.5538,2.5118,2.3294,2.2341,2.1887,2.0027,1.9279,1.9302,1.9023,1.8935,1.8869,1.8313,1.8043,1.7911,1.7541,1.7359,1.7279,1.7279,1.7279,1.7279,1.7279,1.7785,1.8427,1.8703,1.9285,2.0014,2.1006,2.106,2.097,2.1561,2.2192,2.2775,2.3047,2.3091,2.3091,2.3091,2.3091,2.3091,2.3091,2.3091,2.3091,2.3091,2.3091,2.3091,2.3091,2.3091,2.3091,2.3091,2.3091,2.3091,2.3091,2.3091,2.3091,2.3091,2.3091,2.2964,2.2672,2.2935,2.2955,2.2662,2.2945,2.2808,2.2256,2.2012,2.1562,2.0987,2.0723,2.0605,1.9627,2.0202,2.0917,2.2974,2.3791,2.4402,2.5479,2.5693,2.5693,2.5693,2.5693,2.5693,2.5693,2.5693,2.5693,2.5693,2.5693,2.5693,2.5693,2.5693,2.5693,2.5693,2.5693,2.5693,2.5693,2.5693,2.5693,2.5693,2.5693,2.5693,2.5693,2.5693,2.5693,2.5693,2.5693,2.5693,2.5693,2.5693,2.5596,2.5469,2.5469,2.5381,2.5177,2.5528,2.5693,2.5586,2.3452,2.224,2.1726,1.989,1.9081,1.9052,1.8723,1.8591,1.8533,1.8013,1.7816,1.7765,1.7443,1.7279,1.7279,1.7279,1.7552,1.7924,1.7924,1.8557,1.9422,1.9832,2.0376,2.1006,2.2006,2.228,2.228,2.228,2.2687,2.3091,2.3091,2.3091,2.3091,2.3091,2.3091,2.3091,2.3091,2.3091,2.3091,2.3091,2.3091,2.3091,2.3091,2.3091,2.3091,2.3091,2.3091,2.3091,2.3091,2.2945,2.2916,2.3081,2.2945,2.273,2.2519,2.2877,2.2896,2.2519,2.2721,2.2559,2.1885,2.1709,2.1357,2.083,2.0683,2.0605,1.9517,2.0084,2.0641,2.2131,2.3384,2.4501,2.5479,2.5693,2.5693,2.5693,2.5693,2.5693,2.5693,2.5693,2.5693,2.5693,2.5693,2.5693,2.5693,2.5693,2.5693,2.5693,2.5693,2.5693,2.5693,2.5693,2.5693,2.5693,2.5693,2.5693,2.5693,2.5693,2.5674,2.5625,2.5625,2.5606,2.5567,2.5567,2.541,2.5057,2.5057,2.4805,2.4443,2.5206,2.5518,2.5315,2.3295,2.1787,2.0715,1.9413,1.8846,1.8716,1.8486,1.8402,1.8366,1.8034,1.7916,1.7871,1.7522,1.7419,1.7419,1.7419,1.8102,1.8926,1.8926,1.9604,2.0512,2.1418,2.1739,2.2015,2.2872,2.3091,2.3091,2.3091,2.3091,2.3091,2.3091,2.3091,2.3091,2.3091,2.3091,2.3091,2.3091,2.3091,2.3091,2.3091,2.3091,2.3091,2.3091,2.3091,2.3091,2.3091,2.3091,2.3091,2.3091,2.275,2.2691,2.3071,2.2783,2.2568,2.2568,2.2857,2.2838,2.2461,2.2461,2.2246,2.1826,2.1385,2.1171,2.1122,2.0752,2.0605,1.8554,1.8816,1.9453,2.1912,2.3958,2.543,2.5635,2.5693,2.5693,2.5693,2.5693,2.5693,2.5693,2.5693,2.5693,2.5693,2.5693,2.5693,2.5693,2.5693,2.5693,2.5693,2.5693,2.5693,2.5693,2.5693,2.5693,2.5693,2.5693,2.5693,2.5693,2.5693,2.5576,2.5225,2.5215,2.5049,2.4707,2.4697,2.4658,0.0,2.456,2.4502,2.4424,2.4609,2.422,2.3352,2.214,2.1037,2.0018,1.9701,1.9136,1.8471,1.8908,1.9105,1.9058,1.8715,1.8582,1.8566,1.8496,1.8473,1.8473,1.8473,1.9101,1.9914,1.9914,2.0602,2.1418,2.165,2.2236,2.2872,2.3047,2.3091,2.3091,2.3091,2.3091,2.3091,2.3091,2.3091,2.3091,2.3091,2.3091,2.3091,2.3091,2.3091,2.3091,2.3091,2.3091,2.3091,2.3091,2.3091,2.3091,2.3091,2.3091,2.3091,2.3091,2.3013,2.3003,2.3091,2.3013,2.2955,2.2955,2.273,2.2451,2.2031,2.2021,2.1807,2.1337,2.1239,2.1055,2.0742,2.0644,2.0605,1.7946,1.8205,1.8942,2.1186,2.2953,2.4313,2.4815,2.5323,2.5693,2.5693,2.5693,2.5693,2.5693,2.5693,2.5693,2.5693,2.5693,2.5693,2.5693,2.5693,2.5693,2.5693,2.5693,2.5693,2.5693,2.5693,2.5693,2.5693,2.5693,2.5693,2.5693,2.5527,2.5312,2.5125,2.4863,2.4648,2.4414,2.4414,2.4316,2.4111,2.4111,2.4014,2.3773,2.4228,2.4081,2.3514,2.2037,2.1323,2.1162,2.0046,1.9494,1.9407,1.9154,1.9346,1.9638,1.9036,1.9063,1.9467,1.9467,1.9467,1.9467,1.9467,2.015,2.0917,2.0917,2.1596,2.2369,2.2369,2.2731,2.3091,2.3091,2.3091,2.3091,2.3091,2.3091,2.3091,2.3091,2.3091,2.3091,2.3091,2.3091,2.3091,2.3091,2.3091,2.3091,2.3091,2.3091,2.3091,2.3091,2.3091,2.3091,2.3091,2.3091,2.3091,2.3091,2.2916,2.2877,2.3081,2.2906,2.2789,2.2789,2.2441,2.2109,2.1894,2.168,2.1357,2.0918,2.0918,2.0791,2.0605,2.0605,2.0605,1.7507,1.8063,1.9021,2.0459,2.1684,2.2735,2.3642,2.4658,2.543,2.543,2.5586,2.5693,2.5693,2.5693,2.5693,2.5693,2.5693,2.5693,2.5693,2.5693,2.5693,2.5693,2.5693,2.5664,2.5586,2.5645,2.5625,2.5469,2.5528,2.5538,2.5469,2.5156,2.4969,2.4891,2.4502,2.4277,2.4199,2.4199,2.4023,2.3682,2.3682,2.3486,2.312,2.3867,2.4199,2.4052,2.2265,2.1881,2.2471,2.0513,2.006,2.0538,1.9637,1.9786,2.0376,1.9604,1.9786,2.0458,2.0458,2.0458,2.0458,2.0458,2.1141,2.1917,2.1917,2.2467,2.3091,2.3091,2.3091,2.3091,2.3091,2.3091,2.3091,2.3091,2.3091,2.3091,2.3091,2.3091,2.3091,2.3091,2.3091,2.3091,2.3091,2.3091,2.3091,2.3091,2.3091,2.3091,2.3091,2.3091,2.3091,2.3091,2.3091,2.3091,2.3091,2.2779,2.2773,2.3071,2.2769,2.2588,2.2519,2.2178,2.1924,2.1777,2.1338,2.0937,2.0605,2.0605,2.0605,2.0605,2.0605,2.0605,1.7089,1.8441,1.9899,2.0405,2.1532,2.2534,2.2685,2.3543,2.4295,2.4295,2.5069,2.5693,2.5693,2.5693,2.5693,2.5693,2.5693,2.5693,2.5693,2.5693,2.5693,2.5693,2.5693,2.5538,2.5195,2.5508,2.5372,2.4648,2.4941,2.499,2.4609,2.4541,2.4336,2.3965,2.3906,2.3691,2.3266,2.3266,2.3237,2.3179,2.3179,2.3149,2.3101,2.3208,2.3266,2.3213,2.2128,2.1725,2.1806,2.1527,2.0951,2.0354,2.1033,2.1373,2.1463,2.1373,2.1373,2.1507,2.1507,2.1507,2.1507,2.1507,2.2148,2.2916,2.2916,2.3003,2.3091,2.3091,2.3091,2.3091,2.3091,2.3091,2.3091,2.3091,2.3091,2.3091,2.3091,2.3091,2.3091,2.3091,2.3091,2.3091,2.3091,2.3091,2.3091,2.3091,2.3091,2.3091,2.3091,2.3091,2.3091,2.3091,2.3091,2.3091,2.3091,2.3042,2.3033,2.3091,2.3042,2.2847,2.2529,2.2461,2.208,2.1298,2.0889,2.0664,2.0605,2.0605,2.0605,2.0605,2.0605,2.0605,1.7275,1.8015,1.8746,1.9221,2.0372,2.1387,2.1387,2.2341,2.3384,2.3989,2.4501,2.4962,2.5586,2.5693,2.5693,2.5693,2.5693,2.5693,2.5693,2.5693,2.5693,2.5693,2.5693,2.5557,2.5165,2.5244,2.5098,2.4463,2.459,2.4619,2.4424,2.4199,2.3984,2.3799,2.3555,2.3286,2.3091,2.3091,2.3091,2.3091,2.3091,2.3091,2.3091,2.3091,2.3091,2.3047,2.2104,2.2015,2.2457,2.1917,2.1739,2.1819,2.1739,2.2015,2.2413,2.1872,2.2006,2.2467,2.2467,2.2467,2.2467,2.2467,2.2775,2.3091,2.3091,2.3091,2.3091,2.3091,2.3091,2.3091,2.3091,2.3091,2.3091,2.3091,2.3091,2.3091,2.3091,2.3091,2.3091,2.3091,2.3091,2.3091,2.3091,2.3091,2.3091,2.3091,2.3091,2.3091,2.3091,2.3091,2.3091,2.3091,2.3091,2.3091,2.3091,2.3091,2.3091,2.3091,2.2877,2.2598,2.2178,2.2158,2.1748,2.0879,2.0908,2.082,2.0605,2.0605,2.0605,2.0605,2.0605,2.0654,1.7106,1.7346,1.7486,1.8064,1.9022,1.992,2.0063,2.1081,2.224,2.3094,2.3462,2.3892,2.4965,2.5373,2.5566,2.5566,2.5566,2.5557,2.5674,2.5693,2.5693,2.5693,2.5693,2.5518,2.4961,2.5047,2.4795,2.4141,2.4189,2.4209,2.4102,2.3799,2.3623,2.3623,2.3266,2.3091,2.3091,2.3091,2.3091,2.3091,2.3091,2.3091,2.3091,2.3091,2.3091,2.3047,2.2369,2.2457,2.3047,2.2325,2.2467,2.3047,2.2325,2.2467,2.3003,2.2325,2.2511,2.3091,2.3091,2.3091,2.3091,2.3091,2.3091,2.3091,2.3091,2.3091,2.3091,2.3091,2.3091,2.3091,2.3091,2.3091,2.3091,2.3091,2.3091,2.3091,2.3091,2.3091,2.3091,2.3091,2.3091,2.3091,2.3091,2.3091,2.3091,2.3091,2.3091,2.3091,2.3091,2.3091,2.3091,2.3091,2.3091,2.3091,2.3091,2.3091,2.3091,2.3091,2.2799,2.2432,2.1904,2.1992,2.1582,2.0625,2.1006,2.1016,2.0605,2.0644,2.0693,2.0693,2.0731,2.0809,1.6288,1.657,1.6867,1.75,1.7893,1.8278,1.885,1.9828,2.068,2.0987,2.1612,2.2442,2.3432,2.4469,2.5145,2.5145,2.5145,2.5254,2.5625,2.5693,2.5693,2.5693,2.5693,2.5352,2.4531,2.4824,2.4551,2.3257,2.3584,2.3643,2.3179,2.314,2.313,2.313,2.311,2.3091,2.3091,2.3091,2.3091,2.3091,2.3091,2.3091,2.3091,2.3091,2.3091,2.3091,2.3047,2.3047,2.3091,2.3047,2.3047,2.3091,2.3047,2.3047,2.3091,2.3047,2.3047,2.3091,2.3091,2.3091,2.3091,2.3091,2.3091,2.3091,2.3091,2.3091,2.3091,2.3091,2.3091,2.3091,2.3091,2.3091,2.3091,2.3091,2.3091,2.3091,2.3091,2.3091,2.3091,2.3091,2.3091,2.3091,2.3091,2.3091,2.3091,2.3091,2.3091,2.3091,2.3091,2.3091,2.3091,2.3091,2.3091,2.3091,2.3091,2.3091,2.3091,2.3091,2.3071,2.2744,2.1924,2.2266,2.1875,2.0625,2.1006,2.1016,2.0605,2.078,2.0867,2.0906,2.1089,2.1167,1.6192,1.637,1.652,1.6924,1.7371,1.7804,1.8025,1.8815,1.962,2.0194,2.069,2.1138,2.1721,2.2885,2.406,2.4972,2.5116,2.5225,2.5625,2.5693,2.5693,2.5693,2.5693,2.5498,2.4893,2.4727,2.4346,2.3613,2.3437,2.3257,2.3101,2.3091,2.3091,2.3091,2.3091,2.3091,2.3091,2.3091,2.3091,2.3091,2.3091,2.3091,2.3091,2.3091,2.3091,2.3091,2.3091,2.3091,2.3091,2.3091,2.3091,2.3091,2.3091,2.3091,2.3091,2.3091,2.3091,2.3091,2.3091,2.3091,2.3091,2.3091,2.3091,2.3091,2.3091,2.3091,2.3091,2.3091,2.3091,2.3091,2.3091,2.3091,2.3091,2.3091,2.3091,2.3091,2.3091,2.3091,2.3091,2.3091,2.3091,2.3091,2.3091,2.3091,2.3091,2.3091,2.3091,2.3091,2.3091,2.3091,2.3091,2.3091,2.3091,2.3091,2.3091,2.3091,2.3091,2.3091,2.2847,2.248,2.1904,2.2295,2.1894,2.0625,2.144,2.15,2.078,2.0867,2.0984,2.1089,2.1167,2.1282,1.6072,1.6126,1.6219,1.6607,1.6938,1.7218,1.7531,1.7963,1.8482,1.9152,1.9365,1.9576,2.0243,2.104,2.2191,2.4079,2.4656,2.5059,2.5606,2.5693,2.5693,2.5693,2.5693,2.5557,2.5165,2.4805,2.4394,2.3828,2.3525,0.0,2.3101,2.3091,2.3091,2.3091,2.3091,2.3091,2.3091,2.3091,2.3091,2.3091,2.3091,2.3091,2.3091,2.3091,2.3091,2.3091,2.3091,2.3091,2.3091,2.3091,2.3091,2.3091,2.3091,2.3091,2.3091,2.3091,2.3091,2.3091,2.3091,2.3091,2.3091,2.3091,2.3091,2.3091,2.3091,2.3091,2.3091,2.3091,2.3091,2.3091,2.3091,2.3091,2.3091,2.3091,2.3091,2.3091,2.3091,2.3091,2.3091,2.3091,2.3091,2.3091,2.3091,2.3091,2.3091,2.3091,2.3091,2.3091,2.3091,2.3091,2.3091,2.3091,2.3091,2.3091,2.3091,2.3091,2.3033,2.2896,2.2666,2.2256,2.1689,2.1934,2.1652,2.0712,2.1392,2.1561,2.1099,2.1099,2.1167,2.132,2.1359,2.1474,0.0,0.0,0.0,1.654,1.6473,1.6525,1.7364,1.7319,1.7256,1.7754,1.7603,1.776,1.902,1.8979,1.9706,2.246,2.3737,2.468,2.5547,2.5684,2.5693,2.5693,2.5693,2.5566,2.5174,2.5125,2.4773,2.3887,2.3799,2.3603,2.314,2.3101,2.3091,2.3091,2.3091,2.3091,2.3091,2.3091,2.3091,2.3091,2.3091,2.3091,2.3091,2.3081,2.3081,2.3091,2.3081,2.3081,2.3091,2.3091,2.3091,2.3091,2.3091,2.3091,2.3091,2.3091,2.3091,2.3091,2.3091,2.3091,2.3091,2.3091,2.3091,2.3091,2.3091,2.3091,2.3091,2.3091,2.3091,2.3091,2.3091,2.3091,2.3091,2.3091,2.3091,2.3091,2.3091,2.3091,2.3091,2.3091,2.3091,2.3091,2.3091,2.3091,2.3091,2.3091,2.3091,2.3091,2.3091,2.3091,2.3091,2.3091,2.3091,2.3091,2.3091,2.3081,2.2906,2.2559,2.2519,2.2139,2.1249,2.1229,2.1144,2.0916,2.0916,2.1109,2.1502,2.1502,2.1502,2.1502,2.1693,2.1807,1.5784,0.0,0.0,0.0,0.0,0.0,1.6578,1.6755,1.6848,1.6995,1.709,1.7203,1.7566,1.8264,1.9162,2.0218,2.2078,2.3843,2.5071,2.5527,2.5693,2.5693,2.5693,2.5635,2.5566,2.5254,2.5018,0.0,2.4141,2.374,2.3613,2.3266,2.3091,2.3091,2.3091,2.3091,2.3091,2.3091,2.3091,2.3091,2.3091,2.3091,2.3081,2.2779,2.2808,2.3081,2.2779,2.2818,2.3091,2.3091,2.3091,2.3091,2.3091,2.3091,2.3091,2.3091,2.3091,2.3091,2.3091,2.3091,2.3091,2.3091,2.3091,2.3091,2.3091,2.3091,2.3091,2.3091,2.3091,2.3091,2.3091,2.3091,2.3091,2.3091,2.3091,2.3091,2.3091,2.3091,2.3091,2.3091,2.3091,2.3091,2.3091,2.3091,2.3091,2.3091,2.3091,2.3091,2.3091,2.3091,2.3091,2.3091,2.3091,2.3091,2.3091,2.2818,2.2721,2.2906,2.2643,2.2275,2.1728,2.2117,2.1905,2.0926,2.1478,2.1673,2.1502,2.1502,2.1578,2.1731,2.1769,2.1807,1.5784,1.5784,1.5784,1.5784,0.0,0.0,1.6086,1.6189,1.634,1.6491,1.6586,1.6697,1.6831,1.752,1.8264,1.8871,2.0414,2.2164,2.4193,2.5199,2.5693,2.5693,2.5693,2.5693,2.5693,2.5508,2.5273,2.5135,2.4434,2.3896,2.3535,2.3227,2.3091,2.3091,2.3091,2.3091,2.3091,2.3091,2.3091,2.3091,2.2916,2.2838,2.2818,2.2441,2.2383,2.2607,2.2353,2.2383,2.2617,2.2617,2.2822,2.3081,2.2906,2.2838,2.2838,2.2838,2.2838,2.2857,2.3033,2.3091,2.3091,2.3091,2.3091,2.3091,2.3091,2.3091,2.3091,2.3091,2.3091,2.3091,2.3091,2.3091,2.3091,2.3091,2.3091,2.3091,2.3091,2.3091,2.3091,2.3091,2.3091,2.3091,2.3091,2.3091,2.3091,2.3091,2.3091,2.3091,2.3091,2.3091,2.3033,2.2847,2.2838,2.2769,2.2627,2.2393,2.2275,2.2301,2.2151,2.191,2.1488,2.1897,2.184,2.1148,2.1602,2.1757,2.1617,2.1617,2.1693,2.1807,2.1807,2.1807,1.5784,1.5784,1.5771,1.5744,1.5758,0.0,1.5744,1.5785,1.5832,1.6075,1.6095,1.6162,1.639,1.6734,1.7232,1.7964,1.8832,2.0378,2.3117,2.463,2.5528,2.5684,2.5693,2.5693,2.5693,2.5693,2.5566,2.5176,2.4697,2.3997,2.314,2.3091,2.3091,2.3091,2.3091,2.3071,2.3023,2.3023,2.3003,2.2955,2.2617,2.2441,2.2432,2.2002,2.1836,2.1885,2.1836,2.1836,2.1885,2.1885,2.2324,2.2916,2.2588,2.2441,2.2441,2.2441,2.2441,2.249,2.2828,2.2955,2.2964,2.3013,2.3023,2.3023,2.3023,2.3062,2.3091,2.3091,2.3091,2.3091,2.3091,2.3091,2.3091,2.3091,2.3091,2.3091,2.3091,2.3091,2.3091,2.3091,2.3091,2.3091,2.3091,2.3091,2.3091,2.3091,2.3091,2.3091,2.3091,2.3096,2.292,2.2549,2.2513,2.2327,2.1955,2.1928,2.1701,2.1328,2.145,2.1372,2.0995,2.1198,2.1371,2.1502,2.1512,2.1617,2.1807,2.1807,2.1807,2.1807,2.1807,2.1807,1.5784,1.5784,1.5772,1.5538,1.5658,0.0,1.5531,1.5478,1.5478,1.5531,1.5513,1.5472,1.5562,1.6153,1.6567,1.6285,1.8076,2.0344,2.279,2.3641,2.4428,2.5548,2.5693,2.5693,2.5693,2.5693,2.5654,2.5567,2.4863,2.3997,2.314,2.3091,2.3091,2.3091,2.3091,2.2925,2.2637,2.2637,2.2461,2.2129,2.2041,2.2012,2.1992,2.1562,2.1553,2.1865,2.1514,2.1562,2.1885,2.1885,2.1982,2.2119,2.2041,2.2012,2.2012,2.2012,2.2012,2.2021,2.21,2.2129,2.2187,2.2519,2.2637,2.2637,2.2637,2.2828,2.3091,2.3091,2.3091,2.3091,2.3091,2.3091,2.3091,2.3091,2.3091,2.3091,2.3091,2.3091,2.3091,2.3091,2.3091,2.3091,2.3091,2.3091,2.3091,2.3091,2.3091,2.3091,2.3091,2.2971,2.2853,2.2764,2.2615,2.2418,2.2174,2.1959,2.1869,2.1984,2.186,2.17,2.161,2.1807,2.1791,2.1512,2.1655,2.1769,2.1807,2.1807,2.1807,2.1807,2.1807,2.1807,1.5872,1.5784,1.5758,1.5471,1.5611,0.0,0.0,1.5398,1.5438,1.5585,1.547,1.5393,1.5535,1.5929,1.613,1.5971,1.712,1.8714,2.0754,2.2527,2.4131,2.5528,2.5693,2.5693,2.5693,2.5693,2.5644,2.542,2.4785,2.4141,2.3496,2.3218,2.3091,2.3091,2.2896,2.2682,2.251,2.2305,2.21,2.1885,2.167,2.1562,2.1553,2.1103,2.1016,2.1251,2.0996,2.1025,2.1271,2.1271,2.1271,2.129,2.1475,2.1562,2.1562,2.1562,2.1562,2.1592,2.1807,2.1885,2.1924,2.2129,2.2197,2.2197,2.2197,2.249,2.2779,2.2779,2.2935,2.3091,2.3091,2.3091,2.3091,2.3091,2.3091,2.3091,2.3091,2.3091,2.3144,2.3276,2.3319,2.3319,2.3319,2.3319,2.3319,2.344,2.3363,2.3319,2.345,2.3202,2.2886,2.2667,2.233,2.202,2.173,2.1579,2.1549,2.17,2.1658,2.1644,2.1644,2.1829,2.1842,2.1665,2.1769,2.1807,2.1807,2.1807,2.1807,2.1807,2.1807,2.1807,1.5844,1.5784,1.5758,1.5471,1.5611,1.5752,0.0,0.0,0.0,1.5638,1.5478,1.5351,1.5471,1.5582,1.5706,1.5844,1.6181,1.6996,1.8628,2.1276,0.0,2.5035,2.5412,2.5557,2.5557,2.5635,2.5557,2.5145,2.4668,2.4228,2.3809,2.3335,2.3052,2.2974,2.2685,2.2432,2.2266,2.1934,2.1719,2.1672,2.1269,2.1064,2.1054,2.0732,2.0605,2.0605,2.0605,2.0605,2.0605,2.0605,2.0605,2.0635,2.0967,2.1064,2.1064,2.1064,2.1064,2.1152,2.1514,2.1631,2.1641,2.1738,2.1768,2.1777,2.1865,2.206,2.2262,2.2461,2.2711,2.2994,2.3071,2.3091,2.3091,2.3091,2.3091,2.3091,2.3091,2.3144,2.3232,2.346,2.359,2.3634,2.359,2.3547,2.3604,2.3687,2.3617,2.3594,2.3687,2.3408,2.3068,2.2614,2.2161,2.1756,2.1284,2.1282,2.132,2.1244,2.1436,2.154,2.154,2.1693,2.1807,2.1807,2.1807,2.1807,2.1807,2.1807,2.1807,2.1807,2.1807,2.1807,1.5791,1.5784,1.5758,1.5471,1.5611,1.5752,1.5464,0.0,1.5645,1.5164,0.0,1.4908,1.4376,0.0,0.0,1.4754,1.5579,1.6655,1.7869,1.9638,2.1447,2.3129,2.4421,2.5194,2.5194,2.5508,2.5557,2.5145,2.4668,2.4228,2.3809,2.3335,2.2925,2.2598,2.2539,2.2148,2.1346,2.1298,2.1113,2.0752,2.0703,2.0683,2.0674,2.0625,2.0605,2.0605,2.0605,2.0605,2.0605,2.0605,2.0605,2.0605,2.0664,2.0683,2.0683,2.0683,2.0683,2.0693,2.0732,2.0752,2.082,2.1182,2.1268,2.1346,2.1768,2.165,2.1492,2.2295,2.2549,2.2676,2.3003,2.3091,2.3091,2.3091,2.3091,2.3091,2.3091,2.3276,2.346,2.3503,2.3851,2.4024,2.3797,2.3754,2.3667,2.3328,2.3546,2.3657,2.3317,2.3385,2.3308,2.2808,2.2571,2.2148,2.1504,2.1617,2.1655,2.1474,2.1655,2.1769,2.1769,2.1807,2.1807,2.1807,2.1807,2.1807,2.1807,2.1807,2.1807,2.1807,2.1807,2.1807,1.5831,1.5784,1.5751,1.5678,1.5738,1.5751,1.5671,1.5484,1.5304,1.5231,0.0,0.0,0.0,0.0,0.0,0.0,1.5528,1.6206,1.6835,1.817,2.0072,2.2849,0.0,0.0,2.4687,0.0,0.0,0.0,2.4521,2.4228,2.3809,2.3335,2.2906,2.2519,2.2275,2.1855,2.12,2.0977,2.0752,2.0605,2.0605,2.0605,2.0605,2.0605,2.0605,2.0605,2.0605,2.0605,2.0605,2.0605,2.0605,2.0605,2.0605,2.0605,2.0605,2.0605,2.0605,2.0605,2.0605,2.0605,2.0635,2.0781,2.084,2.0879,2.1104,2.1172,2.1327,2.1973,2.2324,2.2607,2.2984,2.3091,2.3091,2.3091,2.3091,2.3144,2.3319,2.3416,2.359,2.3851,2.4077,2.4196,2.4196,2.411,2.3925,2.3646,2.3601,2.3509,2.3237,2.3033,2.2827,2.2642,2.2288,2.1976,2.1714,2.1769,2.1769,2.1693,2.1769,2.1807,2.1807,2.1807,2.1807,2.1807,2.1807,2.1807,2.1807,2.1807,2.1807,2.1807,2.1807,2.1807,1.5885,1.5784,1.5784,1.5784,1.5784,1.5758,1.5732,1.5444,1.5217,1.5264,1.5003,0.0,0.0,0.0,1.5102,1.5351,0.0,1.579,1.6035,1.7124,1.9003,0.0,0.0,0.0,0.0,0.0,0.0,0.0,0.0,2.4287,2.3975,2.3555,2.3018,2.2363,2.2041,2.1621,2.1055,2.0772,2.0605,2.0605,2.0605,2.0537,2.0429,2.0429,2.0429,2.0429,2.0429,2.0488,2.0605,2.0605,2.0605,2.0605,2.0605,2.0605,2.0605,2.0605,2.0605,2.0605,2.0605,2.0605,2.0605,2.0605,2.0605,2.0605,2.0605,2.0791,2.1172,2.1728,2.2109,2.2461,2.2955,2.3091,2.3091,2.3091,2.3091,2.3178,2.346,2.3547,2.3721,2.411,2.4249,2.4325,2.4454,2.4368,2.4182,2.395,2.3742,2.3494,2.3246,2.2894,2.2635,2.2511,2.2201,2.1942,2.1818,2.1807,2.1807,2.1807,2.1807,2.1807,2.1807,2.1807,2.1807,2.1807,2.1807,2.1807,2.1807,2.1807,2.1807,2.1807,2.1807,2.1807,0.0,0.0,0.0,1.5784,0.0,0.0,0.0,1.5611,1.5645,1.5135,1.5184,1.5284,1.5062,1.5008,1.5102,1.5351,1.5398,0.0,0.0,1.6897,1.8295,1.9853,0.0,0.0,0.0,2.4884,2.4785,0.0,2.4902,0.0,2.4394,2.4004,2.3193,2.1943,2.1894,2.1505,2.0635,2.0615,2.0605,2.0605,2.0605,2.0342,1.9932,1.9932,1.9932,1.9932,1.9932,2.0176,2.0605,2.0605,2.0605,2.0605,2.0605,2.0605,2.0605,2.0605,2.0605,2.0605,2.0605,2.0605,2.0605,2.0605,2.0605,2.0605,2.0605,2.0615,2.0811,2.1641,2.1894,2.21,2.2877,2.3091,2.3091,2.3091,2.3091,2.3178,2.346,2.3667,2.3884,2.4163,2.4378,2.4497,2.4497,2.4497,2.4342,2.395,2.3877,2.3712,2.3246,2.3174,2.2987,2.2542,2.248,2.2294,2.1849,2.1807,2.1807,2.1807,2.1807,2.1807,2.1807,2.1807,2.1807,2.1807,2.1807,2.1807,2.1807,2.1807,2.1807,2.1807,2.1807,2.1807,0.0,0.0,1.5304,1.5491,0.0,0.0,0.0,0.0,0.0,0.0,1.5089,1.5122,1.5028,1.5169,1.5284,1.5384,1.5558,1.5718,0.0,1.6897,1.8039,1.9004,2.1596,2.3453,2.3933,0.0,0.0,0.0,2.417,0.0,0.0,2.3594,2.291,2.1914,2.1885,2.1465,2.0615,2.0605,2.0605,2.0595,2.0273,2.0059,1.9902,1.9619,1.9502,1.9512,1.9795,2.0,2.0156,2.0488,2.0605,2.0605,2.0605,2.0605,2.0605,2.0605,2.0605,2.0605,2.0605,2.0605,2.0605,2.0605,2.0605,2.0605,2.0605,2.0771,2.1133,2.1719,2.209,2.2432,2.2945,2.3091,2.3091,2.3091,2.3091,2.3232,2.3624,2.3754,2.3927,2.4325,2.4454,2.4497,2.4497,2.4497,2.4342,2.395,2.3919,2.3598,2.2832,2.2729,2.2553,2.2087,2.2035,2.1973,2.1818,2.1807,2.1807,2.1807,2.1807,2.1807,2.1807,2.1807,2.1807,2.1807,2.1807,2.1807,2.1807,2.1807,2.1807,2.1807,2.2327,2.2327,1.5497,1.5225,0.0,1.5197,1.5149,0.0,1.5204,0.0,1.5117,0.0,0.0,0.0,1.5271,1.5424,1.5551,1.5551,1.5705,1.5784,0.0,1.6574,1.7446,1.8244,2.075,2.2547,2.3012,2.3583,2.3975,2.4014,2.3877,0.0,0.0,0.0,2.2764,2.1914,2.1738,2.1299,2.0615,2.0449,2.0332,2.037,1.9893,1.9609,1.9416,1.918,1.9053,1.9072,1.9346,1.9514,1.9727,2.0156,2.0332,2.039,2.0546,2.0605,2.0605,2.0605,2.0605,2.0605,2.0605,2.0605,2.0605,2.0605,2.0605,2.0605,2.0605,2.0762,2.1123,2.1719,2.208,2.2422,2.2945,2.3091,2.3091,2.3091,2.3178,2.3363,2.3711,2.3884,2.4057,2.4411,2.4497,2.4497,2.4497,2.4497,2.4404,2.4157,2.3981,2.3598,2.2842,2.2594,2.2325,2.1859,2.1807,2.1807,2.1807,2.1807,2.1807,2.1807,2.1807,2.1807,2.1807,2.1807,2.1911,2.2214,2.2225,2.2354,2.2606,2.2606,2.2606,2.2644,2.3154,2.3128]}]]